<?xml version='1.0' encoding='UTF-8'?><gpx version="1.1" creator="JPX - https://github.com/jenetics/jpx" xmlns="http://www.topografix.com/GPX/1/1"><trk><trkseg><trkpt lat="44.0983767" lon="11.981015"><ele>142.0</ele><time>2026-03-22T10:59:43.992Z</time></trkpt><trkpt lat="44.0983917" lon="11.981105"><ele>142.0</ele><time>2026-03-22T10:59:58.991Z</time></trkpt><trkpt lat="44.0983517" lon="11.9812183"><ele>142.0</ele><time>2026-03-22T11:00:48.99Z</time></trkpt><trkpt lat="44.0984067" lon="11.9811067"><ele>142.0</ele><time>2026-03-22T11:01:34.99Z</time></trkpt><trkpt lat="44.09834" lon="11.9812233"><ele>142.0</ele><time>2026-03-22T11:01:49.99Z</time></trkpt><trkpt lat="44.0982583" lon="11.9813217"><ele>142.25</ele><time>2026-03-22T11:01:51.99Z</time></trkpt><trkpt lat="44.0981333" lon="11.9813833"><ele>142.5</ele><time>2026-03-22T11:01:53.99Z</time></trkpt><trkpt lat="44.0980317" lon="11.9814033"><ele>142.75</ele><time>2026-03-22T11:01:54.99Z</time></trkpt><trkpt lat="44.09791" lon="11.9814267"><ele>143.0</ele><time>2026-03-22T11:01:55.99Z</time></trkpt><trkpt lat="44.0977733" lon="11.9814617"><ele>143.0</ele><time>2026-03-22T11:01:56.991Z</time></trkpt><trkpt lat="44.0976433" lon="11.9814833"><ele>143.0</ele><time>2026-03-22T11:01:57.99Z</time></trkpt><trkpt lat="44.097525" lon="11.98149"><ele>143.0</ele><time>2026-03-22T11:01:58.99Z</time></trkpt><trkpt lat="44.0974117" lon="11.9814883"><ele>143.0</ele><time>2026-03-22T11:01:59.99Z</time></trkpt><trkpt lat="44.09729" lon="11.981495"><ele>143.5</ele><time>2026-03-22T11:02:00.99Z</time></trkpt><trkpt lat="44.0971667" lon="11.9814767"><ele>144.0</ele><time>2026-03-22T11:02:01.991Z</time></trkpt><trkpt lat="44.0970433" lon="11.981455"><ele>144.5</ele><time>2026-03-22T11:02:02.99Z</time></trkpt><trkpt lat="44.0969233" lon="11.98142"><ele>145.0</ele><time>2026-03-22T11:02:03.99Z</time></trkpt><trkpt lat="44.0968067" lon="11.9813867"><ele>145.0</ele><time>2026-03-22T11:02:04.99Z</time></trkpt><trkpt lat="44.0966917" lon="11.9813533"><ele>145.0</ele><time>2026-03-22T11:02:05.991Z</time></trkpt><trkpt lat="44.0965833" lon="11.9813183"><ele>145.0</ele><time>2026-03-22T11:02:06.99Z</time></trkpt><trkpt lat="44.0964733" lon="11.9812717"><ele>145.0</ele><time>2026-03-22T11:02:07.99Z</time></trkpt><trkpt lat="44.0963783" lon="11.9812167"><ele>145.0</ele><time>2026-03-22T11:02:08.99Z</time></trkpt><trkpt lat="44.096285" lon="11.9811533"><ele>145.2</ele><time>2026-03-22T11:02:09.991Z</time></trkpt><trkpt lat="44.0961983" lon="11.981085"><ele>145.4</ele><time>2026-03-22T11:02:10.99Z</time></trkpt><trkpt lat="44.0961033" lon="11.9810233"><ele>145.6</ele><time>2026-03-22T11:02:11.991Z</time></trkpt><trkpt lat="44.0960133" lon="11.9809617"><ele>145.8</ele><time>2026-03-22T11:02:12.99Z</time></trkpt><trkpt lat="44.0959233" lon="11.980895"><ele>146.0</ele><time>2026-03-22T11:02:13.99Z</time></trkpt><trkpt lat="44.0958433" lon="11.980835"><ele>146.33333333333331</ele><time>2026-03-22T11:02:14.991Z</time></trkpt><trkpt lat="44.0957583" lon="11.980785"><ele>146.66666666666666</ele><time>2026-03-22T11:02:15.991Z</time></trkpt><trkpt lat="44.09568" lon="11.9807317"><ele>147.0</ele><time>2026-03-22T11:02:16.99Z</time></trkpt><trkpt lat="44.095605" lon="11.98067"><ele>147.33333333333334</ele><time>2026-03-22T11:02:17.99Z</time></trkpt><trkpt lat="44.09553" lon="11.980605"><ele>147.66666666666669</ele><time>2026-03-22T11:02:18.99Z</time></trkpt><trkpt lat="44.0954567" lon="11.98056"><ele>148.0</ele><time>2026-03-22T11:02:19.991Z</time></trkpt><trkpt lat="44.0953767" lon="11.9805167"><ele>148.0</ele><time>2026-03-22T11:02:20.99Z</time></trkpt><trkpt lat="44.0952883" lon="11.98047"><ele>148.0</ele><time>2026-03-22T11:02:21.991Z</time></trkpt><trkpt lat="44.0952133" lon="11.9804083"><ele>148.0</ele><time>2026-03-22T11:02:22.99Z</time></trkpt><trkpt lat="44.095135" lon="11.9803367"><ele>148.0</ele><time>2026-03-22T11:02:23.991Z</time></trkpt><trkpt lat="44.09505" lon="11.98027"><ele>148.0</ele><time>2026-03-22T11:02:24.991Z</time></trkpt><trkpt lat="44.0949667" lon="11.9802"><ele>148.0</ele><time>2026-03-22T11:02:25.99Z</time></trkpt><trkpt lat="44.0948783" lon="11.980155"><ele>148.0</ele><time>2026-03-22T11:02:26.99Z</time></trkpt><trkpt lat="44.0947917" lon="11.9800817"><ele>148.0</ele><time>2026-03-22T11:02:27.991Z</time></trkpt><trkpt lat="44.0947033" lon="11.9800167"><ele>148.0</ele><time>2026-03-22T11:02:28.991Z</time></trkpt><trkpt lat="44.0946117" lon="11.9799467"><ele>148.0</ele><time>2026-03-22T11:02:29.99Z</time></trkpt><trkpt lat="44.094525" lon="11.9798883"><ele>148.0</ele><time>2026-03-22T11:02:30.99Z</time></trkpt><trkpt lat="44.0944433" lon="11.9798317"><ele>148.0</ele><time>2026-03-22T11:02:31.99Z</time></trkpt><trkpt lat="44.0943683" lon="11.97977"><ele>148.0</ele><time>2026-03-22T11:02:32.991Z</time></trkpt><trkpt lat="44.0942917" lon="11.9797133"><ele>148.0</ele><time>2026-03-22T11:02:33.99Z</time></trkpt><trkpt lat="44.0942117" lon="11.97965"><ele>148.0</ele><time>2026-03-22T11:02:34.99Z</time></trkpt><trkpt lat="44.0941267" lon="11.9796"><ele>148.0</ele><time>2026-03-22T11:02:35.991Z</time></trkpt><trkpt lat="44.09405" lon="11.97955"><ele>148.0</ele><time>2026-03-22T11:02:36.99Z</time></trkpt><trkpt lat="44.0939683" lon="11.9795033"><ele>148.0</ele><time>2026-03-22T11:02:37.99Z</time></trkpt><trkpt lat="44.0938833" lon="11.979465"><ele>148.0</ele><time>2026-03-22T11:02:38.991Z</time></trkpt><trkpt lat="44.0938" lon="11.97944"><ele>148.0</ele><time>2026-03-22T11:02:39.991Z</time></trkpt><trkpt lat="44.0937117" lon="11.97943"><ele>148.0</ele><time>2026-03-22T11:02:40.99Z</time></trkpt><trkpt lat="44.0936233" lon="11.9794317"><ele>148.0</ele><time>2026-03-22T11:02:41.99Z</time></trkpt><trkpt lat="44.0935333" lon="11.9794433"><ele>148.0</ele><time>2026-03-22T11:02:42.991Z</time></trkpt><trkpt lat="44.093445" lon="11.97946"><ele>148.0</ele><time>2026-03-22T11:02:43.99Z</time></trkpt><trkpt lat="44.093345" lon="11.9794933"><ele>148.0</ele><time>2026-03-22T11:02:44.991Z</time></trkpt><trkpt lat="44.0932517" lon="11.97952"><ele>148.0</ele><time>2026-03-22T11:02:45.99Z</time></trkpt><trkpt lat="44.09317" lon="11.9795367"><ele>148.0</ele><time>2026-03-22T11:02:46.991Z</time></trkpt><trkpt lat="44.0930917" lon="11.9795617"><ele>149.25</ele><time>2026-03-22T11:02:47.99Z</time></trkpt><trkpt lat="44.0930033" lon="11.9796067"><ele>150.5</ele><time>2026-03-22T11:02:48.99Z</time></trkpt><trkpt lat="44.092895" lon="11.9796367"><ele>151.75</ele><time>2026-03-22T11:02:49.991Z</time></trkpt><trkpt lat="44.0927667" lon="11.97967"><ele>153.0</ele><time>2026-03-22T11:02:50.991Z</time></trkpt><trkpt lat="44.0926033" lon="11.9797133"><ele>153.0</ele><time>2026-03-22T11:02:51.99Z</time></trkpt><trkpt lat="44.0924167" lon="11.9797633"><ele>153.0</ele><time>2026-03-22T11:02:52.99Z</time></trkpt><trkpt lat="44.0922367" lon="11.9798183"><ele>153.0</ele><time>2026-03-22T11:02:53.99Z</time></trkpt><trkpt lat="44.092085" lon="11.97987"><ele>153.0</ele><time>2026-03-22T11:02:54.99Z</time></trkpt><trkpt lat="44.09194" lon="11.97991"><ele>153.0</ele><time>2026-03-22T11:02:55.99Z</time></trkpt><trkpt lat="44.0918" lon="11.9799517"><ele>153.0</ele><time>2026-03-22T11:02:56.99Z</time></trkpt><trkpt lat="44.09169" lon="11.979995"><ele>153.0</ele><time>2026-03-22T11:02:57.99Z</time></trkpt><trkpt lat="44.0915717" lon="11.9800367"><ele>151.4</ele><time>2026-03-22T11:02:58.99Z</time></trkpt><trkpt lat="44.091465" lon="11.9800667"><ele>149.8</ele><time>2026-03-22T11:02:59.99Z</time></trkpt><trkpt lat="44.0913567" lon="11.9800883"><ele>148.2</ele><time>2026-03-22T11:03:00.991Z</time></trkpt><trkpt lat="44.0912567" lon="11.9801133"><ele>146.6</ele><time>2026-03-22T11:03:01.99Z</time></trkpt><trkpt lat="44.0911533" lon="11.98013"><ele>145.0</ele><time>2026-03-22T11:03:02.991Z</time></trkpt><trkpt lat="44.0910517" lon="11.9801383"><ele>145.0</ele><time>2026-03-22T11:03:03.99Z</time></trkpt><trkpt lat="44.09095" lon="11.98013"><ele>145.0</ele><time>2026-03-22T11:03:04.99Z</time></trkpt><trkpt lat="44.0908483" lon="11.98012"><ele>145.0</ele><time>2026-03-22T11:03:05.991Z</time></trkpt><trkpt lat="44.09075" lon="11.9801133"><ele>145.0</ele><time>2026-03-22T11:03:06.99Z</time></trkpt><trkpt lat="44.0906583" lon="11.9800867"><ele>145.0</ele><time>2026-03-22T11:03:07.99Z</time></trkpt><trkpt lat="44.0905583" lon="11.9800533"><ele>146.0</ele><time>2026-03-22T11:03:08.99Z</time></trkpt><trkpt lat="44.0904667" lon="11.9800133"><ele>147.0</ele><time>2026-03-22T11:03:09.99Z</time></trkpt><trkpt lat="44.090375" lon="11.97997"><ele>148.0</ele><time>2026-03-22T11:03:10.991Z</time></trkpt><trkpt lat="44.090295" lon="11.9799233"><ele>149.0</ele><time>2026-03-22T11:03:11.99Z</time></trkpt><trkpt lat="44.090215" lon="11.9798867"><ele>150.0</ele><time>2026-03-22T11:03:12.99Z</time></trkpt><trkpt lat="44.0901383" lon="11.9798483"><ele>151.0</ele><time>2026-03-22T11:03:13.99Z</time></trkpt><trkpt lat="44.0900633" lon="11.97981"><ele>151.0</ele><time>2026-03-22T11:03:14.99Z</time></trkpt><trkpt lat="44.0899867" lon="11.9797833"><ele>151.0</ele><time>2026-03-22T11:03:15.991Z</time></trkpt><trkpt lat="44.089915" lon="11.9797483"><ele>151.0</ele><time>2026-03-22T11:03:16.99Z</time></trkpt><trkpt lat="44.0898583" lon="11.979705"><ele>151.0</ele><time>2026-03-22T11:03:17.99Z</time></trkpt><trkpt lat="44.0897333" lon="11.9796"><ele>151.0</ele><time>2026-03-22T11:03:19.991Z</time></trkpt><trkpt lat="44.0896467" lon="11.9795583"><ele>150.5</ele><time>2026-03-22T11:03:20.99Z</time></trkpt><trkpt lat="44.08957" lon="11.9795133"><ele>150.0</ele><time>2026-03-22T11:03:21.99Z</time></trkpt><trkpt lat="44.0894633" lon="11.97947"><ele>149.5</ele><time>2026-03-22T11:03:23.991Z</time></trkpt><trkpt lat="44.0893983" lon="11.97945"><ele>149.0</ele><time>2026-03-22T11:03:26.991Z</time></trkpt><trkpt lat="44.089355" lon="11.979355"><ele>148.5</ele><time>2026-03-22T11:04:13.99Z</time></trkpt><trkpt lat="44.0894117" lon="11.9792817"><ele>148.0</ele><time>2026-03-22T11:04:17.99Z</time></trkpt><trkpt lat="44.0894783" lon="11.9792933"><ele>148.0</ele><time>2026-03-22T11:04:20.991Z</time></trkpt><trkpt lat="44.0895067" lon="11.979375"><ele>148.0</ele><time>2026-03-22T11:04:23.99Z</time></trkpt><trkpt lat="44.0895083" lon="11.9794767"><ele>148.0</ele><time>2026-03-22T11:04:26.99Z</time></trkpt><trkpt lat="44.08953" lon="11.97957"><ele>148.0</ele><time>2026-03-22T11:06:50.99Z</time></trkpt><trkpt lat="44.08959" lon="11.9796417"><ele>148.0</ele><time>2026-03-22T11:06:52.991Z</time></trkpt><trkpt lat="44.0896917" lon="11.9797167"><ele>148.0</ele><time>2026-03-22T11:06:54.99Z</time></trkpt><trkpt lat="44.0898" lon="11.9797817"><ele>148.0</ele><time>2026-03-22T11:06:56.991Z</time></trkpt><trkpt lat="44.0899133" lon="11.97984"><ele>148.0</ele><time>2026-03-22T11:06:58.99Z</time></trkpt><trkpt lat="44.08997" lon="11.9798783"><ele>148.0</ele><time>2026-03-22T11:06:59.99Z</time></trkpt><trkpt lat="44.0900283" lon="11.9799233"><ele>148.0</ele><time>2026-03-22T11:07:00.99Z</time></trkpt><trkpt lat="44.0900867" lon="11.9799817"><ele>148.0</ele><time>2026-03-22T11:07:01.99Z</time></trkpt><trkpt lat="44.0901517" lon="11.980035"><ele>148.0</ele><time>2026-03-22T11:07:02.99Z</time></trkpt><trkpt lat="44.09022" lon="11.9800933"><ele>147.33333333333334</ele><time>2026-03-22T11:07:03.99Z</time></trkpt><trkpt lat="44.090295" lon="11.9801583"><ele>146.66666666666669</ele><time>2026-03-22T11:07:04.99Z</time></trkpt><trkpt lat="44.09037" lon="11.980215"><ele>146.0</ele><time>2026-03-22T11:07:05.991Z</time></trkpt><trkpt lat="44.0904367" lon="11.9802967"><ele>145.33333333333334</ele><time>2026-03-22T11:07:06.99Z</time></trkpt><trkpt lat="44.0905" lon="11.9803867"><ele>144.66666666666666</ele><time>2026-03-22T11:07:07.99Z</time></trkpt><trkpt lat="44.0905633" lon="11.9804667"><ele>144.0</ele><time>2026-03-22T11:07:08.99Z</time></trkpt><trkpt lat="44.090635" lon="11.9805333"><ele>144.0</ele><time>2026-03-22T11:07:09.991Z</time></trkpt><trkpt lat="44.0907033" lon="11.9806083"><ele>144.0</ele><time>2026-03-22T11:07:10.99Z</time></trkpt><trkpt lat="44.0907717" lon="11.9806833"><ele>144.0</ele><time>2026-03-22T11:07:11.991Z</time></trkpt><trkpt lat="44.090835" lon="11.9807633"><ele>144.0</ele><time>2026-03-22T11:07:12.991Z</time></trkpt><trkpt lat="44.090905" lon="11.9808367"><ele>144.0</ele><time>2026-03-22T11:07:13.99Z</time></trkpt><trkpt lat="44.0909867" lon="11.9809017"><ele>144.0</ele><time>2026-03-22T11:07:14.99Z</time></trkpt><trkpt lat="44.0910683" lon="11.9809617"><ele>143.83333333333334</ele><time>2026-03-22T11:07:15.99Z</time></trkpt><trkpt lat="44.09115" lon="11.9810133"><ele>143.66666666666666</ele><time>2026-03-22T11:07:16.991Z</time></trkpt><trkpt lat="44.0912333" lon="11.981065"><ele>143.5</ele><time>2026-03-22T11:07:17.99Z</time></trkpt><trkpt lat="44.0913133" lon="11.9810967"><ele>143.33333333333331</ele><time>2026-03-22T11:07:18.991Z</time></trkpt><trkpt lat="44.0913983" lon="11.9811383"><ele>143.16666666666666</ele><time>2026-03-22T11:07:19.991Z</time></trkpt><trkpt lat="44.0914833" lon="11.9811583"><ele>143.0</ele><time>2026-03-22T11:07:20.99Z</time></trkpt><trkpt lat="44.0915617" lon="11.9811733"><ele>142.66666666666666</ele><time>2026-03-22T11:07:21.99Z</time></trkpt><trkpt lat="44.0916333" lon="11.981185"><ele>142.33333333333331</ele><time>2026-03-22T11:07:22.991Z</time></trkpt><trkpt lat="44.0917133" lon="11.981185"><ele>142.0</ele><time>2026-03-22T11:07:23.99Z</time></trkpt><trkpt lat="44.0917933" lon="11.9811767"><ele>141.66666666666666</ele><time>2026-03-22T11:07:24.99Z</time></trkpt><trkpt lat="44.091885" lon="11.9811667"><ele>141.33333333333334</ele><time>2026-03-22T11:07:25.99Z</time></trkpt><trkpt lat="44.0919717" lon="11.981175"><ele>141.0</ele><time>2026-03-22T11:07:26.99Z</time></trkpt><trkpt lat="44.0920683" lon="11.9811733"><ele>141.0</ele><time>2026-03-22T11:07:27.99Z</time></trkpt><trkpt lat="44.09217" lon="11.9811717"><ele>141.0</ele><time>2026-03-22T11:07:28.99Z</time></trkpt><trkpt lat="44.0922667" lon="11.9811767"><ele>141.0</ele><time>2026-03-22T11:07:29.99Z</time></trkpt><trkpt lat="44.0923683" lon="11.9811733"><ele>141.0</ele><time>2026-03-22T11:07:30.991Z</time></trkpt><trkpt lat="44.092465" lon="11.9811733"><ele>141.0</ele><time>2026-03-22T11:07:31.99Z</time></trkpt><trkpt lat="44.0925667" lon="11.98118"><ele>140.6</ele><time>2026-03-22T11:07:32.991Z</time></trkpt><trkpt lat="44.0926683" lon="11.9811783"><ele>140.2</ele><time>2026-03-22T11:07:33.99Z</time></trkpt><trkpt lat="44.0927717" lon="11.9811733"><ele>139.8</ele><time>2026-03-22T11:07:34.99Z</time></trkpt><trkpt lat="44.0928717" lon="11.9811767"><ele>139.4</ele><time>2026-03-22T11:07:35.99Z</time></trkpt><trkpt lat="44.0929717" lon="11.9811767"><ele>139.0</ele><time>2026-03-22T11:07:36.99Z</time></trkpt><trkpt lat="44.0930783" lon="11.981175"><ele>139.0</ele><time>2026-03-22T11:07:37.99Z</time></trkpt><trkpt lat="44.0931817" lon="11.981165"><ele>139.0</ele><time>2026-03-22T11:07:38.99Z</time></trkpt><trkpt lat="44.0932883" lon="11.9811617"><ele>139.0</ele><time>2026-03-22T11:07:39.991Z</time></trkpt><trkpt lat="44.0933983" lon="11.98115"><ele>139.0</ele><time>2026-03-22T11:07:40.99Z</time></trkpt><trkpt lat="44.0935117" lon="11.981135"><ele>139.0</ele><time>2026-03-22T11:07:41.99Z</time></trkpt><trkpt lat="44.0936217" lon="11.9811067"><ele>138.5</ele><time>2026-03-22T11:07:42.99Z</time></trkpt><trkpt lat="44.0937417" lon="11.981085"><ele>138.0</ele><time>2026-03-22T11:07:43.99Z</time></trkpt><trkpt lat="44.0938483" lon="11.981065"><ele>137.5</ele><time>2026-03-22T11:07:44.991Z</time></trkpt><trkpt lat="44.0939583" lon="11.98104"><ele>137.0</ele><time>2026-03-22T11:07:45.99Z</time></trkpt><trkpt lat="44.09407" lon="11.9810183"><ele>137.0</ele><time>2026-03-22T11:07:46.99Z</time></trkpt><trkpt lat="44.094175" lon="11.98099"><ele>137.0</ele><time>2026-03-22T11:07:47.99Z</time></trkpt><trkpt lat="44.094275" lon="11.9809633"><ele>137.0</ele><time>2026-03-22T11:07:48.99Z</time></trkpt><trkpt lat="44.094365" lon="11.9809383"><ele>137.0</ele><time>2026-03-22T11:07:49.99Z</time></trkpt><trkpt lat="44.0944517" lon="11.9809217"><ele>137.0</ele><time>2026-03-22T11:07:50.99Z</time></trkpt><trkpt lat="44.0945467" lon="11.9809083"><ele>137.0</ele><time>2026-03-22T11:07:51.99Z</time></trkpt><trkpt lat="44.0946483" lon="11.9808967"><ele>137.0</ele><time>2026-03-22T11:07:52.99Z</time></trkpt><trkpt lat="44.094755" lon="11.980905"><ele>137.0</ele><time>2026-03-22T11:07:53.99Z</time></trkpt><trkpt lat="44.094855" lon="11.98094"><ele>137.0</ele><time>2026-03-22T11:07:54.991Z</time></trkpt><trkpt lat="44.0949467" lon="11.9809833"><ele>137.0</ele><time>2026-03-22T11:07:55.99Z</time></trkpt><trkpt lat="44.0950317" lon="11.9810317"><ele>138.16666666666666</ele><time>2026-03-22T11:07:56.99Z</time></trkpt><trkpt lat="44.09512" lon="11.9810783"><ele>139.33333333333331</ele><time>2026-03-22T11:07:57.991Z</time></trkpt><trkpt lat="44.0951983" lon="11.98112"><ele>140.5</ele><time>2026-03-22T11:07:58.99Z</time></trkpt><trkpt lat="44.09527" lon="11.981165"><ele>141.66666666666666</ele><time>2026-03-22T11:07:59.99Z</time></trkpt><trkpt lat="44.095335" lon="11.981195"><ele>142.83333333333334</ele><time>2026-03-22T11:08:00.991Z</time></trkpt><trkpt lat="44.0953983" lon="11.9812233"><ele>144.0</ele><time>2026-03-22T11:08:01.991Z</time></trkpt><trkpt lat="44.0954967" lon="11.9812633"><ele>144.0</ele><time>2026-03-22T11:08:03.99Z</time></trkpt><trkpt lat="44.095575" lon="11.9812983"><ele>144.0</ele><time>2026-03-22T11:08:05.991Z</time></trkpt><trkpt lat="44.0956267" lon="11.98137"><ele>144.0</ele><time>2026-03-22T11:08:07.99Z</time></trkpt><trkpt lat="44.095655" lon="11.9814667"><ele>144.0</ele><time>2026-03-22T11:08:09.99Z</time></trkpt><trkpt lat="44.0956267" lon="11.9816267"><ele>144.0</ele><time>2026-03-22T11:08:11.99Z</time></trkpt><trkpt lat="44.095605" lon="11.981745"><ele>144.0</ele><time>2026-03-22T11:08:12.99Z</time></trkpt><trkpt lat="44.0955883" lon="11.981855"><ele>143.33333333333334</ele><time>2026-03-22T11:08:13.991Z</time></trkpt><trkpt lat="44.09557" lon="11.981965"><ele>142.66666666666666</ele><time>2026-03-22T11:08:14.991Z</time></trkpt><trkpt lat="44.095555" lon="11.9820583"><ele>142.0</ele><time>2026-03-22T11:08:15.99Z</time></trkpt><trkpt lat="44.095535" lon="11.9821533"><ele>141.33333333333331</ele><time>2026-03-22T11:08:16.991Z</time></trkpt><trkpt lat="44.095525" lon="11.9822533"><ele>140.66666666666666</ele><time>2026-03-22T11:08:17.99Z</time></trkpt><trkpt lat="44.095485" lon="11.98239"><ele>140.0</ele><time>2026-03-22T11:08:19.991Z</time></trkpt><trkpt lat="44.095385" lon="11.982385"><ele>140.0</ele><time>2026-03-22T11:08:21.99Z</time></trkpt><trkpt lat="44.0953" lon="11.9823517"><ele>140.0</ele><time>2026-03-22T11:08:22.99Z</time></trkpt><trkpt lat="44.095225" lon="11.9823183"><ele>140.0</ele><time>2026-03-22T11:08:23.991Z</time></trkpt><trkpt lat="44.09514" lon="11.9823033"><ele>140.0</ele><time>2026-03-22T11:08:25.99Z</time></trkpt><trkpt lat="44.09508" lon="11.982445"><ele>140.0</ele><time>2026-03-22T11:08:28.991Z</time></trkpt><trkpt lat="44.0950583" lon="11.9825517"><ele>139.66666666666666</ele><time>2026-03-22T11:08:29.99Z</time></trkpt><trkpt lat="44.0950333" lon="11.98266"><ele>139.33333333333331</ele><time>2026-03-22T11:08:30.99Z</time></trkpt><trkpt lat="44.0950067" lon="11.9827683"><ele>139.0</ele><time>2026-03-22T11:08:31.99Z</time></trkpt><trkpt lat="44.094975" lon="11.98287"><ele>138.66666666666666</ele><time>2026-03-22T11:08:32.99Z</time></trkpt><trkpt lat="44.09495" lon="11.9829733"><ele>138.33333333333334</ele><time>2026-03-22T11:08:33.991Z</time></trkpt><trkpt lat="44.0949233" lon="11.983075"><ele>138.0</ele><time>2026-03-22T11:08:34.99Z</time></trkpt><trkpt lat="44.0948967" lon="11.9831767"><ele>137.57142857142858</ele><time>2026-03-22T11:08:35.99Z</time></trkpt><trkpt lat="44.0948717" lon="11.9832817"><ele>137.14285714285717</ele><time>2026-03-22T11:08:36.99Z</time></trkpt><trkpt lat="44.09485" lon="11.9833767"><ele>136.71428571428572</ele><time>2026-03-22T11:08:37.99Z</time></trkpt><trkpt lat="44.094825" lon="11.98347"><ele>136.28571428571428</ele><time>2026-03-22T11:08:38.99Z</time></trkpt><trkpt lat="44.0948" lon="11.9835683"><ele>135.85714285714283</ele><time>2026-03-22T11:08:39.99Z</time></trkpt><trkpt lat="44.0947733" lon="11.9836617"><ele>135.42857142857142</ele><time>2026-03-22T11:08:40.99Z</time></trkpt><trkpt lat="44.094745" lon="11.983755"><ele>135.0</ele><time>2026-03-22T11:08:41.99Z</time></trkpt><trkpt lat="44.0947233" lon="11.98385"><ele>134.8</ele><time>2026-03-22T11:08:42.99Z</time></trkpt><trkpt lat="44.094705" lon="11.9839367"><ele>134.6</ele><time>2026-03-22T11:08:43.991Z</time></trkpt><trkpt lat="44.0946683" lon="11.9840917"><ele>134.4</ele><time>2026-03-22T11:08:45.99Z</time></trkpt><trkpt lat="44.0946367" lon="11.984225"><ele>134.2</ele><time>2026-03-22T11:08:47.99Z</time></trkpt><trkpt lat="44.094575" lon="11.9843467"><ele>134.0</ele><time>2026-03-22T11:08:49.99Z</time></trkpt><trkpt lat="44.0945083" lon="11.9844367"><ele>134.33333333333331</ele><time>2026-03-22T11:08:51.99Z</time></trkpt><trkpt lat="44.0944767" lon="11.98454"><ele>134.66666666666666</ele><time>2026-03-22T11:08:54.99Z</time></trkpt><trkpt lat="44.0944233" lon="11.9846017"><ele>135.0</ele><time>2026-03-22T11:08:58.99Z</time></trkpt><trkpt lat="44.0943917" lon="11.984735"><ele>135.33333333333334</ele><time>2026-03-22T11:09:01.99Z</time></trkpt><trkpt lat="44.09436" lon="11.98487"><ele>135.66666666666669</ele><time>2026-03-22T11:09:03.99Z</time></trkpt><trkpt lat="44.09434" lon="11.984995"><ele>136.0</ele><time>2026-03-22T11:09:05.991Z</time></trkpt><trkpt lat="44.0943517" lon="11.9851"><ele>136.83333333333334</ele><time>2026-03-22T11:09:07.989Z</time></trkpt><trkpt lat="44.094375" lon="11.98519"><ele>137.66666666666669</ele><time>2026-03-22T11:09:09.989Z</time></trkpt><trkpt lat="44.094415" lon="11.9852733"><ele>138.5</ele><time>2026-03-22T11:09:12.989Z</time></trkpt><trkpt lat="44.0945133" lon="11.9853183"><ele>139.33333333333334</ele><time>2026-03-22T11:09:16.989Z</time></trkpt><trkpt lat="44.0946067" lon="11.9853033"><ele>140.16666666666666</ele><time>2026-03-22T11:09:18.989Z</time></trkpt><trkpt lat="44.094705" lon="11.9853117"><ele>141.0</ele><time>2026-03-22T11:09:20.989Z</time></trkpt><trkpt lat="44.09477" lon="11.985295"><ele>141.0</ele><time>2026-03-22T11:09:22.989Z</time></trkpt><trkpt lat="44.0948483" lon="11.9852383"><ele>141.0</ele><time>2026-03-22T11:09:24.989Z</time></trkpt><trkpt lat="44.09494" lon="11.9851217"><ele>141.0</ele><time>2026-03-22T11:09:26.989Z</time></trkpt><trkpt lat="44.0950433" lon="11.985045"><ele>141.0</ele><time>2026-03-22T11:09:28.989Z</time></trkpt><trkpt lat="44.0951517" lon="11.98502"><ele>141.0</ele><time>2026-03-22T11:09:30.989Z</time></trkpt><trkpt lat="44.095255" lon="11.9850133"><ele>140.28571428571428</ele><time>2026-03-22T11:09:32.989Z</time></trkpt><trkpt lat="44.095335" lon="11.9850017"><ele>139.57142857142856</ele><time>2026-03-22T11:09:34.99Z</time></trkpt><trkpt lat="44.0954017" lon="11.9849517"><ele>138.85714285714283</ele><time>2026-03-22T11:09:36.989Z</time></trkpt><trkpt lat="44.0954733" lon="11.9849067"><ele>138.14285714285714</ele><time>2026-03-22T11:09:38.989Z</time></trkpt><trkpt lat="44.0955367" lon="11.984885"><ele>137.42857142857142</ele><time>2026-03-22T11:09:40.99Z</time></trkpt><trkpt lat="44.0956067" lon="11.9848633"><ele>136.7142857142857</ele><time>2026-03-22T11:09:43.989Z</time></trkpt><trkpt lat="44.09567" lon="11.9848367"><ele>136.0</ele><time>2026-03-22T11:09:45.989Z</time></trkpt><trkpt lat="44.09574" lon="11.98482"><ele>136.0</ele><time>2026-03-22T11:09:47.989Z</time></trkpt><trkpt lat="44.0958283" lon="11.9847733"><ele>136.0</ele><time>2026-03-22T11:09:49.989Z</time></trkpt><trkpt lat="44.09591" lon="11.984675"><ele>136.0</ele><time>2026-03-22T11:09:51.989Z</time></trkpt><trkpt lat="44.0959683" lon="11.98457"><ele>136.0</ele><time>2026-03-22T11:09:53.99Z</time></trkpt><trkpt lat="44.0960367" lon="11.9844483"><ele>136.0</ele><time>2026-03-22T11:09:55.989Z</time></trkpt><trkpt lat="44.09612" lon="11.98438"><ele>136.0</ele><time>2026-03-22T11:09:57.989Z</time></trkpt><trkpt lat="44.0962117" lon="11.9843917"><ele>136.0</ele><time>2026-03-22T11:09:59.989Z</time></trkpt><trkpt lat="44.0963217" lon="11.9844017"><ele>136.0</ele><time>2026-03-22T11:10:01.989Z</time></trkpt><trkpt lat="44.0964017" lon="11.9844317"><ele>136.0</ele><time>2026-03-22T11:10:03.989Z</time></trkpt><trkpt lat="44.096305" lon="11.9844067"><ele>136.0</ele><time>2026-03-22T11:13:48.99Z</time></trkpt><trkpt lat="44.0962017" lon="11.9843683"><ele>136.0</ele><time>2026-03-22T11:13:50.989Z</time></trkpt><trkpt lat="44.0961133" lon="11.98437"><ele>136.0</ele><time>2026-03-22T11:13:52.99Z</time></trkpt><trkpt lat="44.096025" lon="11.9844667"><ele>136.0</ele><time>2026-03-22T11:13:54.989Z</time></trkpt><trkpt lat="44.09598" lon="11.9845683"><ele>136.0</ele><time>2026-03-22T11:13:56.99Z</time></trkpt><trkpt lat="44.0959217" lon="11.9846283"><ele>136.0</ele><time>2026-03-22T11:13:58.989Z</time></trkpt><trkpt lat="44.0958367" lon="11.98469"><ele>136.0</ele><time>2026-03-22T11:14:00.989Z</time></trkpt><trkpt lat="44.0957733" lon="11.98473"><ele>136.0</ele><time>2026-03-22T11:14:02.99Z</time></trkpt><trkpt lat="44.095695" lon="11.9847633"><ele>136.0</ele><time>2026-03-22T11:14:05.99Z</time></trkpt><trkpt lat="44.095625" lon="11.9848017"><ele>136.0</ele><time>2026-03-22T11:14:07.989Z</time></trkpt><trkpt lat="44.0955517" lon="11.9848433"><ele>136.0</ele><time>2026-03-22T11:14:09.989Z</time></trkpt><trkpt lat="44.0954667" lon="11.984905"><ele>136.0</ele><time>2026-03-22T11:14:11.989Z</time></trkpt><trkpt lat="44.0953717" lon="11.9849583"><ele>136.0</ele><time>2026-03-22T11:14:13.989Z</time></trkpt><trkpt lat="44.0952967" lon="11.9849717"><ele>136.0</ele><time>2026-03-22T11:14:14.989Z</time></trkpt><trkpt lat="44.095215" lon="11.9849783"><ele>136.0</ele><time>2026-03-22T11:14:15.989Z</time></trkpt><trkpt lat="44.09513" lon="11.985"><ele>136.0</ele><time>2026-03-22T11:14:16.99Z</time></trkpt><trkpt lat="44.0950583" lon="11.9850383"><ele>136.0</ele><time>2026-03-22T11:14:17.988Z</time></trkpt><trkpt lat="44.09498" lon="11.9851"><ele>136.0</ele><time>2026-03-22T11:14:18.989Z</time></trkpt><trkpt lat="44.094905" lon="11.9851683"><ele>136.83333333333334</ele><time>2026-03-22T11:14:19.989Z</time></trkpt><trkpt lat="44.094835" lon="11.9852317"><ele>137.66666666666669</ele><time>2026-03-22T11:14:20.988Z</time></trkpt><trkpt lat="44.0947433" lon="11.9852683"><ele>138.5</ele><time>2026-03-22T11:14:22.989Z</time></trkpt><trkpt lat="44.0946617" lon="11.985255"><ele>139.33333333333334</ele><time>2026-03-22T11:14:24.988Z</time></trkpt><trkpt lat="44.0945783" lon="11.985285"><ele>140.16666666666666</ele><time>2026-03-22T11:14:26.988Z</time></trkpt><trkpt lat="44.0945133" lon="11.9852983"><ele>141.0</ele><time>2026-03-22T11:14:27.988Z</time></trkpt><trkpt lat="44.0944483" lon="11.9852967"><ele>141.0</ele><time>2026-03-22T11:14:28.988Z</time></trkpt><trkpt lat="44.0943283" lon="11.9852583"><ele>141.0</ele><time>2026-03-22T11:14:30.988Z</time></trkpt><trkpt lat="44.0942133" lon="11.9851917"><ele>141.0</ele><time>2026-03-22T11:14:32.989Z</time></trkpt><trkpt lat="44.094125" lon="11.985085"><ele>141.0</ele><time>2026-03-22T11:14:34.989Z</time></trkpt><trkpt lat="44.09406" lon="11.9849933"><ele>140.28571428571428</ele><time>2026-03-22T11:14:36.988Z</time></trkpt><trkpt lat="44.0940717" lon="11.9849"><ele>139.57142857142856</ele><time>2026-03-22T11:14:59.989Z</time></trkpt><trkpt lat="44.094095" lon="11.984815"><ele>138.85714285714283</ele><time>2026-03-22T11:15:02.989Z</time></trkpt><trkpt lat="44.0941267" lon="11.9847117"><ele>138.14285714285714</ele><time>2026-03-22T11:15:09.988Z</time></trkpt><trkpt lat="44.0941917" lon="11.9846633"><ele>137.42857142857142</ele><time>2026-03-22T11:15:12.988Z</time></trkpt><trkpt lat="44.094255" lon="11.9845867"><ele>136.7142857142857</ele><time>2026-03-22T11:15:15.989Z</time></trkpt><trkpt lat="44.0943233" lon="11.9845467"><ele>136.0</ele><time>2026-03-22T11:15:19.988Z</time></trkpt><trkpt lat="44.0944017" lon="11.98454"><ele>136.0</ele><time>2026-03-22T11:15:24.988Z</time></trkpt><trkpt lat="44.0944783" lon="11.9844717"><ele>136.0</ele><time>2026-03-22T11:15:27.988Z</time></trkpt><trkpt lat="44.0945467" lon="11.9843767"><ele>136.0</ele><time>2026-03-22T11:15:29.988Z</time></trkpt><trkpt lat="44.0946233" lon="11.9842517"><ele>136.0</ele><time>2026-03-22T11:15:31.989Z</time></trkpt><trkpt lat="44.0946483" lon="11.9841633"><ele>136.0</ele><time>2026-03-22T11:15:32.988Z</time></trkpt><trkpt lat="44.0946767" lon="11.9840433"><ele>135.5</ele><time>2026-03-22T11:15:33.988Z</time></trkpt><trkpt lat="44.094715" lon="11.9838917"><ele>135.0</ele><time>2026-03-22T11:15:34.988Z</time></trkpt><trkpt lat="44.094755" lon="11.9837267"><ele>134.5</ele><time>2026-03-22T11:15:35.988Z</time></trkpt><trkpt lat="44.0947967" lon="11.9835733"><ele>134.0</ele><time>2026-03-22T11:15:36.988Z</time></trkpt><trkpt lat="44.0948367" lon="11.9834267"><ele>134.2</ele><time>2026-03-22T11:15:37.989Z</time></trkpt><trkpt lat="44.0948717" lon="11.9832983"><ele>134.4</ele><time>2026-03-22T11:15:38.988Z</time></trkpt><trkpt lat="44.0949067" lon="11.9831717"><ele>134.6</ele><time>2026-03-22T11:15:39.988Z</time></trkpt><trkpt lat="44.09494" lon="11.983045"><ele>134.8</ele><time>2026-03-22T11:15:40.988Z</time></trkpt><trkpt lat="44.0949667" lon="11.9829267"><ele>135.0</ele><time>2026-03-22T11:15:41.988Z</time></trkpt><trkpt lat="44.094995" lon="11.98281"><ele>135.5</ele><time>2026-03-22T11:15:42.988Z</time></trkpt><trkpt lat="44.0950267" lon="11.9826933"><ele>136.0</ele><time>2026-03-22T11:15:43.989Z</time></trkpt><trkpt lat="44.0950483" lon="11.9825933"><ele>136.5</ele><time>2026-03-22T11:15:44.988Z</time></trkpt><trkpt lat="44.09507" lon="11.982505"><ele>137.0</ele><time>2026-03-22T11:15:45.988Z</time></trkpt><trkpt lat="44.0951217" lon="11.982385"><ele>137.5</ele><time>2026-03-22T11:15:47.988Z</time></trkpt><trkpt lat="44.0952183" lon="11.982345"><ele>138.0</ele><time>2026-03-22T11:15:49.988Z</time></trkpt><trkpt lat="44.0952867" lon="11.9823633"><ele>138.33333333333334</ele><time>2026-03-22T11:15:50.989Z</time></trkpt><trkpt lat="44.0953583" lon="11.982395"><ele>138.66666666666666</ele><time>2026-03-22T11:15:51.988Z</time></trkpt><trkpt lat="44.0954267" lon="11.9824117"><ele>139.0</ele><time>2026-03-22T11:15:52.989Z</time></trkpt><trkpt lat="44.0955033" lon="11.9823683"><ele>139.33333333333331</ele><time>2026-03-22T11:15:54.988Z</time></trkpt><trkpt lat="44.095545" lon="11.9822117"><ele>139.66666666666666</ele><time>2026-03-22T11:15:56.989Z</time></trkpt><trkpt lat="44.0955617" lon="11.9820867"><ele>140.0</ele><time>2026-03-22T11:15:57.988Z</time></trkpt><trkpt lat="44.0955817" lon="11.9819367"><ele>140.0</ele><time>2026-03-22T11:15:58.988Z</time></trkpt><trkpt lat="44.0956" lon="11.9817867"><ele>140.0</ele><time>2026-03-22T11:15:59.988Z</time></trkpt><trkpt lat="44.095625" lon="11.981665"><ele>140.0</ele><time>2026-03-22T11:16:00.988Z</time></trkpt><trkpt lat="44.0956467" lon="11.9815667"><ele>140.0</ele><time>2026-03-22T11:16:01.988Z</time></trkpt><trkpt lat="44.095665" lon="11.9814383"><ele>140.0</ele><time>2026-03-22T11:16:03.988Z</time></trkpt><trkpt lat="44.0956067" lon="11.9813167"><ele>140.8</ele><time>2026-03-22T11:16:06.988Z</time></trkpt><trkpt lat="44.0955483" lon="11.9812717"><ele>141.6</ele><time>2026-03-22T11:16:07.988Z</time></trkpt><trkpt lat="44.0954633" lon="11.9812183"><ele>142.4</ele><time>2026-03-22T11:16:08.989Z</time></trkpt><trkpt lat="44.09536" lon="11.9811617"><ele>143.2</ele><time>2026-03-22T11:16:09.988Z</time></trkpt><trkpt lat="44.0952433" lon="11.9811067"><ele>144.0</ele><time>2026-03-22T11:16:10.988Z</time></trkpt><trkpt lat="44.0951467" lon="11.9810467"><ele>144.0</ele><time>2026-03-22T11:16:11.988Z</time></trkpt><trkpt lat="44.0950417" lon="11.981005"><ele>144.0</ele><time>2026-03-22T11:16:12.988Z</time></trkpt><trkpt lat="44.094945" lon="11.9809567"><ele>144.0</ele><time>2026-03-22T11:16:13.988Z</time></trkpt><trkpt lat="44.0948567" lon="11.9809133"><ele>144.0</ele><time>2026-03-22T11:16:14.989Z</time></trkpt><trkpt lat="44.0947717" lon="11.9808717"><ele>144.0</ele><time>2026-03-22T11:16:15.988Z</time></trkpt><trkpt lat="44.0946867" lon="11.9808583"><ele>142.25</ele><time>2026-03-22T11:16:16.988Z</time></trkpt><trkpt lat="44.0945883" lon="11.9808683"><ele>140.5</ele><time>2026-03-22T11:16:17.988Z</time></trkpt><trkpt lat="44.0944733" lon="11.9808917"><ele>138.75</ele><time>2026-03-22T11:16:18.988Z</time></trkpt><trkpt lat="44.0943433" lon="11.9809283"><ele>137.0</ele><time>2026-03-22T11:16:19.988Z</time></trkpt><trkpt lat="44.09418" lon="11.9809783"><ele>137.0</ele><time>2026-03-22T11:16:20.988Z</time></trkpt><trkpt lat="44.0940017" lon="11.98102"><ele>137.0</ele><time>2026-03-22T11:16:21.988Z</time></trkpt><trkpt lat="44.0938183" lon="11.9810517"><ele>137.0</ele><time>2026-03-22T11:16:22.988Z</time></trkpt><trkpt lat="44.0936517" lon="11.9810783"><ele>137.0</ele><time>2026-03-22T11:16:23.988Z</time></trkpt><trkpt lat="44.0934933" lon="11.9811"><ele>137.0</ele><time>2026-03-22T11:16:24.989Z</time></trkpt><trkpt lat="44.0933383" lon="11.98112"><ele>137.0</ele><time>2026-03-22T11:16:25.988Z</time></trkpt><trkpt lat="44.0931867" lon="11.981135"><ele>137.5</ele><time>2026-03-22T11:16:26.988Z</time></trkpt><trkpt lat="44.09304" lon="11.9811467"><ele>138.0</ele><time>2026-03-22T11:16:27.988Z</time></trkpt><trkpt lat="44.09289" lon="11.9811467"><ele>138.5</ele><time>2026-03-22T11:16:28.988Z</time></trkpt><trkpt lat="44.0927417" lon="11.981145"><ele>139.0</ele><time>2026-03-22T11:16:29.989Z</time></trkpt><trkpt lat="44.0925917" lon="11.9811417"><ele>139.0</ele><time>2026-03-22T11:16:30.988Z</time></trkpt><trkpt lat="44.0924483" lon="11.9811417"><ele>139.0</ele><time>2026-03-22T11:16:31.988Z</time></trkpt><trkpt lat="44.0923083" lon="11.9811367"><ele>139.0</ele><time>2026-03-22T11:16:32.988Z</time></trkpt><trkpt lat="44.0921883" lon="11.9811367"><ele>139.0</ele><time>2026-03-22T11:16:33.988Z</time></trkpt><trkpt lat="44.09207" lon="11.9811333"><ele>139.33333333333334</ele><time>2026-03-22T11:16:34.989Z</time></trkpt><trkpt lat="44.0919733" lon="11.9811217"><ele>139.66666666666669</ele><time>2026-03-22T11:16:35.988Z</time></trkpt><trkpt lat="44.091885" lon="11.98113"><ele>140.0</ele><time>2026-03-22T11:16:36.988Z</time></trkpt><trkpt lat="44.0918083" lon="11.9811583"><ele>140.33333333333334</ele><time>2026-03-22T11:16:37.988Z</time></trkpt><trkpt lat="44.0917383" lon="11.9811933"><ele>140.66666666666666</ele><time>2026-03-22T11:16:38.988Z</time></trkpt><trkpt lat="44.091685" lon="11.9812533"><ele>141.0</ele><time>2026-03-22T11:16:39.989Z</time></trkpt><trkpt lat="44.09163" lon="11.9813483"><ele>141.5</ele><time>2026-03-22T11:16:40.988Z</time></trkpt><trkpt lat="44.0915783" lon="11.981485"><ele>142.0</ele><time>2026-03-22T11:16:41.988Z</time></trkpt><trkpt lat="44.0915333" lon="11.9816567"><ele>142.5</ele><time>2026-03-22T11:16:42.988Z</time></trkpt><trkpt lat="44.091495" lon="11.9818283"><ele>143.0</ele><time>2026-03-22T11:16:43.989Z</time></trkpt><trkpt lat="44.09145" lon="11.9819683"><ele>143.6</ele><time>2026-03-22T11:16:44.988Z</time></trkpt><trkpt lat="44.09141" lon="11.9820967"><ele>144.20000000000002</ele><time>2026-03-22T11:16:45.988Z</time></trkpt><trkpt lat="44.0913617" lon="11.9822083"><ele>144.8</ele><time>2026-03-22T11:16:46.988Z</time></trkpt><trkpt lat="44.0912983" lon="11.98232"><ele>145.4</ele><time>2026-03-22T11:16:47.989Z</time></trkpt><trkpt lat="44.0912117" lon="11.9824067"><ele>146.0</ele><time>2026-03-22T11:16:48.988Z</time></trkpt><trkpt lat="44.0911117" lon="11.982475"><ele>147.0</ele><time>2026-03-22T11:16:49.988Z</time></trkpt><trkpt lat="44.091015" lon="11.9825433"><ele>148.0</ele><time>2026-03-22T11:16:50.988Z</time></trkpt><trkpt lat="44.09092" lon="11.9826167"><ele>149.0</ele><time>2026-03-22T11:16:51.988Z</time></trkpt><trkpt lat="44.090825" lon="11.9827017"><ele>150.0</ele><time>2026-03-22T11:16:52.989Z</time></trkpt><trkpt lat="44.0907283" lon="11.9828017"><ele>150.0</ele><time>2026-03-22T11:16:53.988Z</time></trkpt><trkpt lat="44.0906617" lon="11.9829133"><ele>150.0</ele><time>2026-03-22T11:16:54.988Z</time></trkpt><trkpt lat="44.09062" lon="11.9830433"><ele>150.0</ele><time>2026-03-22T11:16:55.989Z</time></trkpt><trkpt lat="44.0905733" lon="11.9831717"><ele>150.0</ele><time>2026-03-22T11:16:56.988Z</time></trkpt><trkpt lat="44.0905283" lon="11.98329"><ele>150.0</ele><time>2026-03-22T11:16:57.989Z</time></trkpt><trkpt lat="44.09049" lon="11.983375"><ele>150.83333333333334</ele><time>2026-03-22T11:16:58.988Z</time></trkpt><trkpt lat="44.090445" lon="11.9834717"><ele>151.66666666666666</ele><time>2026-03-22T11:17:00.989Z</time></trkpt><trkpt lat="44.0904117" lon="11.98356"><ele>152.5</ele><time>2026-03-22T11:17:02.988Z</time></trkpt><trkpt lat="44.0903583" lon="11.983675"><ele>153.33333333333331</ele><time>2026-03-22T11:17:04.988Z</time></trkpt><trkpt lat="44.0903117" lon="11.9837817"><ele>154.16666666666666</ele><time>2026-03-22T11:17:07.988Z</time></trkpt><trkpt lat="44.09038" lon="11.9836933"><ele>155.0</ele><time>2026-03-22T11:17:14.988Z</time></trkpt><trkpt lat="44.0904217" lon="11.9836"><ele>155.0</ele><time>2026-03-22T11:17:15.988Z</time></trkpt><trkpt lat="44.09046" lon="11.98351"><ele>155.0</ele><time>2026-03-22T11:17:16.988Z</time></trkpt><trkpt lat="44.090515" lon="11.983385"><ele>155.0</ele><time>2026-03-22T11:17:18.988Z</time></trkpt><trkpt lat="44.090625" lon="11.9833833"><ele>155.0</ele><time>2026-03-22T11:17:21.988Z</time></trkpt><trkpt lat="44.0907033" lon="11.9834267"><ele>155.0</ele><time>2026-03-22T11:17:22.988Z</time></trkpt><trkpt lat="44.0908183" lon="11.9834617"><ele>154.5</ele><time>2026-03-22T11:17:23.989Z</time></trkpt><trkpt lat="44.0909583" lon="11.9835083"><ele>154.0</ele><time>2026-03-22T11:17:24.988Z</time></trkpt><trkpt lat="44.0911033" lon="11.9835533"><ele>153.5</ele><time>2026-03-22T11:17:25.988Z</time></trkpt><trkpt lat="44.0912267" lon="11.9836"><ele>153.0</ele><time>2026-03-22T11:17:26.989Z</time></trkpt><trkpt lat="44.0913283" lon="11.983635"><ele>153.0</ele><time>2026-03-22T11:17:27.988Z</time></trkpt><trkpt lat="44.0914083" lon="11.9836717"><ele>153.0</ele><time>2026-03-22T11:17:28.989Z</time></trkpt><trkpt lat="44.0914767" lon="11.9836867"><ele>153.0</ele><time>2026-03-22T11:17:29.988Z</time></trkpt><trkpt lat="44.0915467" lon="11.9836967"><ele>153.0</ele><time>2026-03-22T11:17:30.988Z</time></trkpt><trkpt lat="44.091665" lon="11.9836117"><ele>153.0</ele><time>2026-03-22T11:17:32.988Z</time></trkpt><trkpt lat="44.0917167" lon="11.9835133"><ele>153.0</ele><time>2026-03-22T11:17:33.988Z</time></trkpt><trkpt lat="44.0917567" lon="11.983395"><ele>152.33333333333334</ele><time>2026-03-22T11:17:34.988Z</time></trkpt><trkpt lat="44.0917917" lon="11.9832733"><ele>151.66666666666666</ele><time>2026-03-22T11:17:35.988Z</time></trkpt><trkpt lat="44.0918283" lon="11.98318"><ele>151.0</ele><time>2026-03-22T11:17:36.989Z</time></trkpt><trkpt lat="44.091875" lon="11.9831133"><ele>150.33333333333331</ele><time>2026-03-22T11:17:37.988Z</time></trkpt><trkpt lat="44.0919417" lon="11.983075"><ele>149.66666666666666</ele><time>2026-03-22T11:17:38.988Z</time></trkpt><trkpt lat="44.0920183" lon="11.98305"><ele>149.0</ele><time>2026-03-22T11:17:39.988Z</time></trkpt><trkpt lat="44.0921117" lon="11.9830467"><ele>149.0</ele><time>2026-03-22T11:17:40.988Z</time></trkpt><trkpt lat="44.0922183" lon="11.983065"><ele>149.0</ele><time>2026-03-22T11:17:41.988Z</time></trkpt><trkpt lat="44.0923217" lon="11.9830867"><ele>149.0</ele><time>2026-03-22T11:17:42.988Z</time></trkpt><trkpt lat="44.0924233" lon="11.9831033"><ele>149.0</ele><time>2026-03-22T11:17:43.988Z</time></trkpt><trkpt lat="44.0925117" lon="11.9831217"><ele>149.0</ele><time>2026-03-22T11:17:44.988Z</time></trkpt><trkpt lat="44.09259" lon="11.9831333"><ele>148.33333333333331</ele><time>2026-03-22T11:17:45.988Z</time></trkpt><trkpt lat="44.0926617" lon="11.9831417"><ele>147.66666666666666</ele><time>2026-03-22T11:17:46.989Z</time></trkpt><trkpt lat="44.0927683" lon="11.9831517"><ele>147.0</ele><time>2026-03-22T11:17:48.989Z</time></trkpt><trkpt lat="44.0928317" lon="11.9831583"><ele>146.33333333333334</ele><time>2026-03-22T11:17:51.988Z</time></trkpt><trkpt lat="44.09275" lon="11.98314"><ele>145.66666666666669</ele><time>2026-03-22T11:18:11.988Z</time></trkpt><trkpt lat="44.0926467" lon="11.9831383"><ele>145.0</ele><time>2026-03-22T11:18:13.988Z</time></trkpt><trkpt lat="44.092555" lon="11.9831317"><ele>145.0</ele><time>2026-03-22T11:18:15.988Z</time></trkpt><trkpt lat="44.0924583" lon="11.9831083"><ele>145.0</ele><time>2026-03-22T11:18:17.988Z</time></trkpt><trkpt lat="44.0923783" lon="11.9830933"><ele>145.0</ele><time>2026-03-22T11:18:19.988Z</time></trkpt><trkpt lat="44.0923283" lon="11.98302"><ele>145.0</ele><time>2026-03-22T11:18:22.988Z</time></trkpt><trkpt lat="44.0923333" lon="11.9829033"><ele>145.0</ele><time>2026-03-22T11:18:24.988Z</time></trkpt><trkpt lat="44.0923483" lon="11.98278"><ele>145.0</ele><time>2026-03-22T11:18:26.988Z</time></trkpt><trkpt lat="44.09236" lon="11.9826717"><ele>145.66666666666669</ele><time>2026-03-22T11:18:28.988Z</time></trkpt><trkpt lat="44.0923983" lon="11.9825633"><ele>146.33333333333334</ele><time>2026-03-22T11:18:31.988Z</time></trkpt><trkpt lat="44.092455" lon="11.9824767"><ele>147.0</ele><time>2026-03-22T11:18:34.988Z</time></trkpt><trkpt lat="44.0925183" lon="11.9824417"><ele>147.66666666666666</ele><time>2026-03-22T11:18:36.988Z</time></trkpt><trkpt lat="44.09259" lon="11.9824167"><ele>148.33333333333331</ele><time>2026-03-22T11:18:38.989Z</time></trkpt><trkpt lat="44.09268" lon="11.9823817"><ele>149.0</ele><time>2026-03-22T11:18:40.988Z</time></trkpt><trkpt lat="44.09276" lon="11.9823533"><ele>147.66666666666666</ele><time>2026-03-22T11:18:42.988Z</time></trkpt><trkpt lat="44.0928233" lon="11.9823183"><ele>146.33333333333331</ele><time>2026-03-22T11:18:44.988Z</time></trkpt><trkpt lat="44.0928983" lon="11.9822817"><ele>145.0</ele><time>2026-03-22T11:18:46.988Z</time></trkpt><trkpt lat="44.09298" lon="11.9822617"><ele>143.66666666666666</ele><time>2026-03-22T11:18:48.987Z</time></trkpt><trkpt lat="44.09306" lon="11.9822517"><ele>142.33333333333334</ele><time>2026-03-22T11:18:50.987Z</time></trkpt><trkpt lat="44.0931367" lon="11.9822467"><ele>141.0</ele><time>2026-03-22T11:18:52.987Z</time></trkpt><trkpt lat="44.0932133" lon="11.982235"><ele>140.83333333333334</ele><time>2026-03-22T11:18:54.987Z</time></trkpt><trkpt lat="44.0932933" lon="11.9822283"><ele>140.66666666666666</ele><time>2026-03-22T11:18:56.987Z</time></trkpt><trkpt lat="44.0933667" lon="11.9822"><ele>140.5</ele><time>2026-03-22T11:18:58.987Z</time></trkpt><trkpt lat="44.093455" lon="11.982155"><ele>140.33333333333331</ele><time>2026-03-22T11:19:00.987Z</time></trkpt><trkpt lat="44.0935417" lon="11.9821267"><ele>140.16666666666666</ele><time>2026-03-22T11:19:02.988Z</time></trkpt><trkpt lat="44.0936333" lon="11.98209"><ele>140.0</ele><time>2026-03-22T11:19:04.987Z</time></trkpt><trkpt lat="44.0937167" lon="11.9820533"><ele>140.0</ele><time>2026-03-22T11:19:06.987Z</time></trkpt><trkpt lat="44.0937883" lon="11.982075"><ele>140.0</ele><time>2026-03-22T11:19:08.987Z</time></trkpt><trkpt lat="44.0938383" lon="11.9821667"><ele>140.0</ele><time>2026-03-22T11:19:10.987Z</time></trkpt><trkpt lat="44.0938917" lon="11.9822667"><ele>140.0</ele><time>2026-03-22T11:19:12.987Z</time></trkpt><trkpt lat="44.0939367" lon="11.98236"><ele>140.0</ele><time>2026-03-22T11:19:14.987Z</time></trkpt><trkpt lat="44.0939333" lon="11.9824617"><ele>140.0</ele><time>2026-03-22T11:19:16.987Z</time></trkpt><trkpt lat="44.0939117" lon="11.982565"><ele>139.83333333333331</ele><time>2026-03-22T11:19:18.987Z</time></trkpt><trkpt lat="44.09389" lon="11.9826617"><ele>139.66666666666666</ele><time>2026-03-22T11:19:20.987Z</time></trkpt><trkpt lat="44.0938683" lon="11.9827983"><ele>139.5</ele><time>2026-03-22T11:19:22.987Z</time></trkpt><trkpt lat="44.0938567" lon="11.9829367"><ele>139.33333333333334</ele><time>2026-03-22T11:19:24.987Z</time></trkpt><trkpt lat="44.09383" lon="11.9830733"><ele>139.16666666666669</ele><time>2026-03-22T11:19:26.987Z</time></trkpt><trkpt lat="44.0937967" lon="11.983155"><ele>139.0</ele><time>2026-03-22T11:19:27.987Z</time></trkpt><trkpt lat="44.0937567" lon="11.9832383"><ele>139.0</ele><time>2026-03-22T11:19:28.987Z</time></trkpt><trkpt lat="44.09373" lon="11.9833217"><ele>139.0</ele><time>2026-03-22T11:19:29.987Z</time></trkpt><trkpt lat="44.0936983" lon="11.9835067"><ele>139.0</ele><time>2026-03-22T11:19:31.987Z</time></trkpt><trkpt lat="44.0936917" lon="11.9836117"><ele>139.0</ele><time>2026-03-22T11:19:32.987Z</time></trkpt><trkpt lat="44.0936933" lon="11.983735"><ele>139.0</ele><time>2026-03-22T11:19:33.988Z</time></trkpt><trkpt lat="44.0937" lon="11.9838633"><ele>138.33333333333334</ele><time>2026-03-22T11:19:34.988Z</time></trkpt><trkpt lat="44.0936967" lon="11.9839867"><ele>137.66666666666669</ele><time>2026-03-22T11:19:35.988Z</time></trkpt><trkpt lat="44.0936933" lon="11.9840967"><ele>137.0</ele><time>2026-03-22T11:19:36.987Z</time></trkpt><trkpt lat="44.093685" lon="11.9841867"><ele>136.33333333333334</ele><time>2026-03-22T11:19:37.987Z</time></trkpt><trkpt lat="44.09368" lon="11.984275"><ele>135.66666666666666</ele><time>2026-03-22T11:19:38.987Z</time></trkpt><trkpt lat="44.0936667" lon="11.98437"><ele>135.0</ele><time>2026-03-22T11:19:39.988Z</time></trkpt><trkpt lat="44.093655" lon="11.9845267"><ele>135.0</ele><time>2026-03-22T11:19:41.987Z</time></trkpt><trkpt lat="44.093645" lon="11.9846483"><ele>135.0</ele><time>2026-03-22T11:19:43.987Z</time></trkpt><trkpt lat="44.0936367" lon="11.984775"><ele>135.0</ele><time>2026-03-22T11:19:45.988Z</time></trkpt><trkpt lat="44.0936433" lon="11.984925"><ele>135.0</ele><time>2026-03-22T11:19:47.987Z</time></trkpt><trkpt lat="44.09366" lon="11.985085"><ele>135.0</ele><time>2026-03-22T11:19:49.987Z</time></trkpt><trkpt lat="44.093695" lon="11.98527"><ele>136.83333333333334</ele><time>2026-03-22T11:19:51.987Z</time></trkpt><trkpt lat="44.093715" lon="11.98536"><ele>138.66666666666666</ele><time>2026-03-22T11:19:52.987Z</time></trkpt><trkpt lat="44.0937533" lon="11.9855033"><ele>140.5</ele><time>2026-03-22T11:19:54.987Z</time></trkpt><trkpt lat="44.0937833" lon="11.985585"><ele>142.33333333333331</ele><time>2026-03-22T11:19:57.987Z</time></trkpt><trkpt lat="44.09381" lon="11.9856683"><ele>144.16666666666666</ele><time>2026-03-22T11:20:00.988Z</time></trkpt><trkpt lat="44.0937983" lon="11.985545"><ele>146.0</ele><time>2026-03-22T11:20:29.987Z</time></trkpt><trkpt lat="44.09376" lon="11.98547"><ele>146.0</ele><time>2026-03-22T11:20:31.987Z</time></trkpt><trkpt lat="44.0937167" lon="11.9853533"><ele>146.0</ele><time>2026-03-22T11:20:34.987Z</time></trkpt><trkpt lat="44.0937" lon="11.9852317"><ele>146.0</ele><time>2026-03-22T11:20:36.988Z</time></trkpt><trkpt lat="44.09369" lon="11.98508"><ele>146.0</ele><time>2026-03-22T11:20:38.987Z</time></trkpt><trkpt lat="44.0936783" lon="11.984935"><ele>146.0</ele><time>2026-03-22T11:20:40.987Z</time></trkpt><trkpt lat="44.093685" lon="11.9848183"><ele>143.8</ele><time>2026-03-22T11:20:42.987Z</time></trkpt><trkpt lat="44.09369" lon="11.9847"><ele>141.6</ele><time>2026-03-22T11:20:44.987Z</time></trkpt><trkpt lat="44.0936917" lon="11.984575"><ele>139.4</ele><time>2026-03-22T11:20:46.987Z</time></trkpt><trkpt lat="44.0936983" lon="11.9844067"><ele>137.2</ele><time>2026-03-22T11:20:48.987Z</time></trkpt><trkpt lat="44.0937067" lon="11.9843033"><ele>135.0</ele><time>2026-03-22T11:20:49.987Z</time></trkpt><trkpt lat="44.0937133" lon="11.9841883"><ele>135.0</ele><time>2026-03-22T11:20:50.987Z</time></trkpt><trkpt lat="44.0937167" lon="11.9840717"><ele>135.0</ele><time>2026-03-22T11:20:51.988Z</time></trkpt><trkpt lat="44.0937233" lon="11.9839733"><ele>135.0</ele><time>2026-03-22T11:20:52.987Z</time></trkpt><trkpt lat="44.0937233" lon="11.9838767"><ele>135.0</ele><time>2026-03-22T11:20:53.987Z</time></trkpt><trkpt lat="44.0937267" lon="11.9837767"><ele>135.0</ele><time>2026-03-22T11:20:54.987Z</time></trkpt><trkpt lat="44.0937283" lon="11.9836733"><ele>135.0</ele><time>2026-03-22T11:20:55.987Z</time></trkpt><trkpt lat="44.09373" lon="11.9835833"><ele>135.0</ele><time>2026-03-22T11:20:56.987Z</time></trkpt><trkpt lat="44.093735" lon="11.9834883"><ele>135.66666666666666</ele><time>2026-03-22T11:20:57.987Z</time></trkpt><trkpt lat="44.093765" lon="11.9833433"><ele>136.33333333333334</ele><time>2026-03-22T11:20:59.987Z</time></trkpt><trkpt lat="44.0938" lon="11.9832583"><ele>137.0</ele><time>2026-03-22T11:21:02.987Z</time></trkpt><trkpt lat="44.0938517" lon="11.9831783"><ele>137.66666666666669</ele><time>2026-03-22T11:21:05.987Z</time></trkpt><trkpt lat="44.0938833" lon="11.9830983"><ele>138.33333333333334</ele><time>2026-03-22T11:21:07.987Z</time></trkpt><trkpt lat="44.0938933" lon="11.9830067"><ele>139.0</ele><time>2026-03-22T11:21:10.987Z</time></trkpt><trkpt lat="44.0939133" lon="11.982885"><ele>139.0</ele><time>2026-03-22T11:21:12.988Z</time></trkpt><trkpt lat="44.0939283" lon="11.9827467"><ele>139.0</ele><time>2026-03-22T11:21:14.988Z</time></trkpt><trkpt lat="44.09394" lon="11.9826183"><ele>139.0</ele><time>2026-03-22T11:21:16.987Z</time></trkpt><trkpt lat="44.0939583" lon="11.9824817"><ele>139.0</ele><time>2026-03-22T11:21:18.987Z</time></trkpt><trkpt lat="44.0939417" lon="11.98236"><ele>139.0</ele><time>2026-03-22T11:21:20.987Z</time></trkpt><trkpt lat="44.09388" lon="11.9823"><ele>139.0</ele><time>2026-03-22T11:21:22.987Z</time></trkpt><trkpt lat="44.093785" lon="11.9823133"><ele>139.0</ele><time>2026-03-22T11:21:24.987Z</time></trkpt><trkpt lat="44.093685" lon="11.9824017"><ele>139.0</ele><time>2026-03-22T11:21:26.988Z</time></trkpt><trkpt lat="44.0935967" lon="11.982505"><ele>139.0</ele><time>2026-03-22T11:21:28.987Z</time></trkpt><trkpt lat="44.093525" lon="11.9826217"><ele>139.0</ele><time>2026-03-22T11:21:30.987Z</time></trkpt><trkpt lat="44.093485" lon="11.98269"><ele>139.0</ele><time>2026-03-22T11:21:31.987Z</time></trkpt><trkpt lat="44.0934167" lon="11.9828317"><ele>139.0</ele><time>2026-03-22T11:21:33.987Z</time></trkpt><trkpt lat="44.093355" lon="11.9829433"><ele>139.0</ele><time>2026-03-22T11:21:35.987Z</time></trkpt><trkpt lat="44.0932967" lon="11.9830283"><ele>139.0</ele><time>2026-03-22T11:21:37.987Z</time></trkpt><trkpt lat="44.0932333" lon="11.983085"><ele>139.0</ele><time>2026-03-22T11:21:39.987Z</time></trkpt><trkpt lat="44.0931817" lon="11.98316"><ele>140.0</ele><time>2026-03-22T11:21:41.987Z</time></trkpt><trkpt lat="44.09313" lon="11.9832217"><ele>141.0</ele><time>2026-03-22T11:21:43.988Z</time></trkpt><trkpt lat="44.0930617" lon="11.98327"><ele>142.0</ele><time>2026-03-22T11:21:46.988Z</time></trkpt><trkpt lat="44.0930017" lon="11.9832367"><ele>143.0</ele><time>2026-03-22T11:21:48.988Z</time></trkpt><trkpt lat="44.0929217" lon="11.9832"><ele>144.0</ele><time>2026-03-22T11:21:50.987Z</time></trkpt><trkpt lat="44.09283" lon="11.98318"><ele>145.0</ele><time>2026-03-22T11:21:52.987Z</time></trkpt><trkpt lat="44.0927267" lon="11.9831617"><ele>145.0</ele><time>2026-03-22T11:21:54.987Z</time></trkpt><trkpt lat="44.09261" lon="11.9831417"><ele>145.0</ele><time>2026-03-22T11:21:56.988Z</time></trkpt><trkpt lat="44.0925" lon="11.9831283"><ele>145.0</ele><time>2026-03-22T11:21:58.987Z</time></trkpt><trkpt lat="44.0923883" lon="11.98312"><ele>145.0</ele><time>2026-03-22T11:22:00.988Z</time></trkpt><trkpt lat="44.0922983" lon="11.9830983"><ele>145.0</ele><time>2026-03-22T11:22:02.987Z</time></trkpt><trkpt lat="44.092205" lon="11.98308"><ele>145.57142857142858</ele><time>2026-03-22T11:22:04.988Z</time></trkpt><trkpt lat="44.0920917" lon="11.983075"><ele>146.14285714285717</ele><time>2026-03-22T11:22:06.987Z</time></trkpt><trkpt lat="44.0920283" lon="11.98308"><ele>146.71428571428572</ele><time>2026-03-22T11:22:07.988Z</time></trkpt><trkpt lat="44.0919633" lon="11.9830983"><ele>147.28571428571428</ele><time>2026-03-22T11:22:08.987Z</time></trkpt><trkpt lat="44.0918983" lon="11.9831367"><ele>147.85714285714283</ele><time>2026-03-22T11:22:09.987Z</time></trkpt><trkpt lat="44.0918417" lon="11.983185"><ele>148.42857142857142</ele><time>2026-03-22T11:22:10.988Z</time></trkpt><trkpt lat="44.0917933" lon="11.9832517"><ele>149.0</ele><time>2026-03-22T11:22:11.987Z</time></trkpt><trkpt lat="44.0917633" lon="11.9833367"><ele>149.66666666666666</ele><time>2026-03-22T11:22:12.988Z</time></trkpt><trkpt lat="44.0917383" lon="11.9834267"><ele>150.33333333333331</ele><time>2026-03-22T11:22:13.987Z</time></trkpt><trkpt lat="44.0917133" lon="11.9835167"><ele>151.0</ele><time>2026-03-22T11:22:14.987Z</time></trkpt><trkpt lat="44.0916833" lon="11.983595"><ele>151.66666666666666</ele><time>2026-03-22T11:22:15.988Z</time></trkpt><trkpt lat="44.091615" lon="11.9836983"><ele>152.33333333333334</ele><time>2026-03-22T11:22:17.987Z</time></trkpt><trkpt lat="44.0915083" lon="11.9837267"><ele>153.0</ele><time>2026-03-22T11:22:19.987Z</time></trkpt><trkpt lat="44.091435" lon="11.9837167"><ele>153.0</ele><time>2026-03-22T11:22:20.988Z</time></trkpt><trkpt lat="44.091355" lon="11.9836883"><ele>153.0</ele><time>2026-03-22T11:22:21.987Z</time></trkpt><trkpt lat="44.09128" lon="11.9836533"><ele>153.0</ele><time>2026-03-22T11:22:22.988Z</time></trkpt><trkpt lat="44.0912083" lon="11.983625"><ele>153.0</ele><time>2026-03-22T11:22:23.987Z</time></trkpt><trkpt lat="44.09113" lon="11.983595"><ele>153.0</ele><time>2026-03-22T11:22:24.987Z</time></trkpt><trkpt lat="44.091045" lon="11.9835683"><ele>153.0</ele><time>2026-03-22T11:22:25.987Z</time></trkpt><trkpt lat="44.09096" lon="11.98354"><ele>153.0</ele><time>2026-03-22T11:22:26.987Z</time></trkpt><trkpt lat="44.0908783" lon="11.9835117"><ele>153.0</ele><time>2026-03-22T11:22:27.987Z</time></trkpt><trkpt lat="44.090805" lon="11.98349"><ele>153.0</ele><time>2026-03-22T11:22:28.987Z</time></trkpt><trkpt lat="44.0907333" lon="11.983465"><ele>153.0</ele><time>2026-03-22T11:22:29.987Z</time></trkpt><trkpt lat="44.0906733" lon="11.9834383"><ele>153.0</ele><time>2026-03-22T11:22:30.987Z</time></trkpt><trkpt lat="44.0905733" lon="11.98341"><ele>153.0</ele><time>2026-03-22T11:22:32.987Z</time></trkpt><trkpt lat="44.0905067" lon="11.983415"><ele>153.4</ele><time>2026-03-22T11:22:35.987Z</time></trkpt><trkpt lat="44.0904467" lon="11.9835033"><ele>153.8</ele><time>2026-03-22T11:22:37.987Z</time></trkpt><trkpt lat="44.0904083" lon="11.983585"><ele>154.2</ele><time>2026-03-22T11:22:38.987Z</time></trkpt><trkpt lat="44.09036" lon="11.983695"><ele>154.6</ele><time>2026-03-22T11:22:39.988Z</time></trkpt><trkpt lat="44.0903067" lon="11.9838367"><ele>155.0</ele><time>2026-03-22T11:22:40.988Z</time></trkpt><trkpt lat="44.0902467" lon="11.9839817"><ele>155.0</ele><time>2026-03-22T11:22:41.988Z</time></trkpt><trkpt lat="44.0901883" lon="11.984115"><ele>155.0</ele><time>2026-03-22T11:22:42.987Z</time></trkpt><trkpt lat="44.09014" lon="11.9842417"><ele>155.0</ele><time>2026-03-22T11:22:43.987Z</time></trkpt><trkpt lat="44.0900967" lon="11.98436"><ele>155.0</ele><time>2026-03-22T11:22:44.987Z</time></trkpt><trkpt lat="44.0900617" lon="11.98446"><ele>155.0</ele><time>2026-03-22T11:22:45.988Z</time></trkpt><trkpt lat="44.0900267" lon="11.9845483"><ele>156.4</ele><time>2026-03-22T11:22:46.987Z</time></trkpt><trkpt lat="44.0899517" lon="11.9846717"><ele>157.8</ele><time>2026-03-22T11:22:48.987Z</time></trkpt><trkpt lat="44.0898567" lon="11.9847667"><ele>159.2</ele><time>2026-03-22T11:22:50.987Z</time></trkpt><trkpt lat="44.0897317" lon="11.9848283"><ele>160.6</ele><time>2026-03-22T11:22:52.988Z</time></trkpt><trkpt lat="44.089655" lon="11.98484"><ele>162.0</ele><time>2026-03-22T11:22:53.987Z</time></trkpt><trkpt lat="44.08958" lon="11.98486"><ele>162.16666666666666</ele><time>2026-03-22T11:22:54.988Z</time></trkpt><trkpt lat="44.0895167" lon="11.984875"><ele>162.33333333333334</ele><time>2026-03-22T11:22:55.987Z</time></trkpt><trkpt lat="44.0894433" lon="11.9849217"><ele>162.5</ele><time>2026-03-22T11:22:57.987Z</time></trkpt><trkpt lat="44.089395" lon="11.98501"><ele>162.66666666666669</ele><time>2026-03-22T11:22:59.987Z</time></trkpt><trkpt lat="44.0894" lon="11.9851117"><ele>162.83333333333334</ele><time>2026-03-22T11:23:01.988Z</time></trkpt><trkpt lat="44.0894767" lon="11.98518"><ele>163.0</ele><time>2026-03-22T11:23:03.987Z</time></trkpt><trkpt lat="44.0895417" lon="11.9852"><ele>165.71428571428572</ele><time>2026-03-22T11:23:04.988Z</time></trkpt><trkpt lat="44.08961" lon="11.985225"><ele>168.42857142857142</ele><time>2026-03-22T11:23:05.988Z</time></trkpt><trkpt lat="44.0896733" lon="11.9852683"><ele>171.14285714285714</ele><time>2026-03-22T11:23:06.986Z</time></trkpt><trkpt lat="44.0897333" lon="11.9853233"><ele>173.85714285714286</ele><time>2026-03-22T11:23:07.986Z</time></trkpt><trkpt lat="44.0897967" lon="11.9853817"><ele>176.57142857142856</ele><time>2026-03-22T11:23:08.986Z</time></trkpt><trkpt lat="44.089855" lon="11.9854433"><ele>179.28571428571428</ele><time>2026-03-22T11:23:09.987Z</time></trkpt><trkpt lat="44.0899117" lon="11.98551"><ele>182.0</ele><time>2026-03-22T11:23:10.987Z</time></trkpt><trkpt lat="44.0899683" lon="11.9855683"><ele>182.0</ele><time>2026-03-22T11:23:11.986Z</time></trkpt><trkpt lat="44.0900383" lon="11.9856183"><ele>182.0</ele><time>2026-03-22T11:23:12.986Z</time></trkpt><trkpt lat="44.0900983" lon="11.985665"><ele>182.0</ele><time>2026-03-22T11:23:13.986Z</time></trkpt><trkpt lat="44.0901683" lon="11.9857083"><ele>182.0</ele><time>2026-03-22T11:23:14.986Z</time></trkpt><trkpt lat="44.0902367" lon="11.9857567"><ele>182.0</ele><time>2026-03-22T11:23:15.986Z</time></trkpt><trkpt lat="44.0903117" lon="11.9858167"><ele>182.0</ele><time>2026-03-22T11:23:16.986Z</time></trkpt><trkpt lat="44.0903817" lon="11.9858833"><ele>184.57142857142858</ele><time>2026-03-22T11:23:17.987Z</time></trkpt><trkpt lat="44.0904367" lon="11.9859483"><ele>187.14285714285714</ele><time>2026-03-22T11:23:18.986Z</time></trkpt><trkpt lat="44.09049" lon="11.9860233"><ele>189.71428571428572</ele><time>2026-03-22T11:23:19.986Z</time></trkpt><trkpt lat="44.09053" lon="11.986105"><ele>192.28571428571428</ele><time>2026-03-22T11:23:20.986Z</time></trkpt><trkpt lat="44.0905683" lon="11.9861883"><ele>194.85714285714286</ele><time>2026-03-22T11:23:21.987Z</time></trkpt><trkpt lat="44.09061" lon="11.9862767"><ele>197.42857142857144</ele><time>2026-03-22T11:23:22.986Z</time></trkpt><trkpt lat="44.0906567" lon="11.98637"><ele>200.0</ele><time>2026-03-22T11:23:23.986Z</time></trkpt><trkpt lat="44.0907017" lon="11.986455"><ele>199.83333333333334</ele><time>2026-03-22T11:23:24.986Z</time></trkpt><trkpt lat="44.0907667" lon="11.986575"><ele>199.66666666666669</ele><time>2026-03-22T11:23:26.986Z</time></trkpt><trkpt lat="44.0908067" lon="11.9866483"><ele>199.5</ele><time>2026-03-22T11:23:28.986Z</time></trkpt><trkpt lat="44.0908567" lon="11.98671"><ele>199.33333333333331</ele><time>2026-03-22T11:23:30.986Z</time></trkpt><trkpt lat="44.090915" lon="11.9867533"><ele>199.16666666666666</ele><time>2026-03-22T11:23:32.986Z</time></trkpt><trkpt lat="44.090985" lon="11.9868117"><ele>199.0</ele><time>2026-03-22T11:23:34.986Z</time></trkpt><trkpt lat="44.0910517" lon="11.9868917"><ele>198.99999999999997</ele><time>2026-03-22T11:23:36.986Z</time></trkpt><trkpt lat="44.091125" lon="11.9869817"><ele>199.0</ele><time>2026-03-22T11:23:38.986Z</time></trkpt><trkpt lat="44.0911817" lon="11.987065"><ele>199.0</ele><time>2026-03-22T11:23:40.986Z</time></trkpt><trkpt lat="44.0912317" lon="11.9871217"><ele>199.0</ele><time>2026-03-22T11:23:43.986Z</time></trkpt><trkpt lat="44.0912883" lon="11.98719"><ele>198.99999999999997</ele><time>2026-03-22T11:23:46.986Z</time></trkpt><trkpt lat="44.091355" lon="11.9872383"><ele>199.0</ele><time>2026-03-22T11:23:48.987Z</time></trkpt><trkpt lat="44.09142" lon="11.9872867"><ele>198.99999999999997</ele><time>2026-03-22T11:23:50.986Z</time></trkpt><trkpt lat="44.091515" lon="11.9873383"><ele>199.0</ele><time>2026-03-22T11:23:52.987Z</time></trkpt><trkpt lat="44.09159" lon="11.9873867"><ele>199.0</ele><time>2026-03-22T11:23:55.986Z</time></trkpt><trkpt lat="44.0916483" lon="11.98742"><ele>199.0</ele><time>2026-03-22T11:23:58.986Z</time></trkpt><trkpt lat="44.09173" lon="11.9874683"><ele>198.99999999999997</ele><time>2026-03-22T11:24:20.986Z</time></trkpt><trkpt lat="44.0918" lon="11.9875367"><ele>199.0</ele><time>2026-03-22T11:24:24.986Z</time></trkpt><trkpt lat="44.0918333" lon="11.9876117"><ele>201.0</ele><time>2026-03-22T11:24:26.986Z</time></trkpt><trkpt lat="44.0918383" lon="11.9877317"><ele>203.0</ele><time>2026-03-22T11:24:29.986Z</time></trkpt><trkpt lat="44.0917883" lon="11.9878483"><ele>205.0</ele><time>2026-03-22T11:25:06.986Z</time></trkpt><trkpt lat="44.0918033" lon="11.9879767"><ele>207.0</ele><time>2026-03-22T11:25:55.986Z</time></trkpt><trkpt lat="44.0918383" lon="11.988125"><ele>209.0</ele><time>2026-03-22T11:27:05.985Z</time></trkpt><trkpt lat="44.0918367" lon="11.9882283"><ele>209.00000000000003</ele><time>2026-03-22T11:27:09.985Z</time></trkpt><trkpt lat="44.0918167" lon="11.9883317"><ele>209.0</ele><time>2026-03-22T11:27:12.985Z</time></trkpt><trkpt lat="44.0918083" lon="11.98846"><ele>209.0</ele><time>2026-03-22T11:27:15.985Z</time></trkpt><trkpt lat="44.091795" lon="11.988575"><ele>209.0</ele><time>2026-03-22T11:27:18.986Z</time></trkpt><trkpt lat="44.09178" lon="11.9886883"><ele>209.00000000000003</ele><time>2026-03-22T11:27:21.985Z</time></trkpt><trkpt lat="44.091745" lon="11.9888133"><ele>209.0</ele><time>2026-03-22T11:27:24.986Z</time></trkpt><trkpt lat="44.0916033" lon="11.988995"><ele>209.83333333333334</ele><time>2026-03-22T11:28:43.985Z</time></trkpt><trkpt lat="44.0915233" lon="11.989095"><ele>210.66666666666669</ele><time>2026-03-22T11:29:03.985Z</time></trkpt><trkpt lat="44.09147" lon="11.9891617"><ele>211.5</ele><time>2026-03-22T11:29:08.985Z</time></trkpt><trkpt lat="44.0913633" lon="11.989235"><ele>212.33333333333331</ele><time>2026-03-22T11:29:29.986Z</time></trkpt><trkpt lat="44.09129" lon="11.9892667"><ele>213.16666666666666</ele><time>2026-03-22T11:29:31.985Z</time></trkpt><trkpt lat="44.0912267" lon="11.9893133"><ele>214.0</ele><time>2026-03-22T11:29:33.985Z</time></trkpt><trkpt lat="44.0911517" lon="11.9893567"><ele>213.99999999999997</ele><time>2026-03-22T11:29:35.985Z</time></trkpt><trkpt lat="44.0910717" lon="11.989395"><ele>214.0</ele><time>2026-03-22T11:29:37.985Z</time></trkpt><trkpt lat="44.09101" lon="11.989425"><ele>214.0</ele><time>2026-03-22T11:29:39.985Z</time></trkpt><trkpt lat="44.0909467" lon="11.9894467"><ele>214.0</ele><time>2026-03-22T11:29:41.986Z</time></trkpt><trkpt lat="44.0908617" lon="11.98948"><ele>213.99999999999997</ele><time>2026-03-22T11:29:44.985Z</time></trkpt><trkpt lat="44.09077" lon="11.9895417"><ele>214.0</ele><time>2026-03-22T11:29:46.985Z</time></trkpt><trkpt lat="44.0906783" lon="11.989605"><ele>217.39999999999998</ele><time>2026-03-22T11:29:48.985Z</time></trkpt><trkpt lat="44.0905567" lon="11.9896483"><ele>220.79999999999998</ele><time>2026-03-22T11:29:50.986Z</time></trkpt><trkpt lat="44.0904567" lon="11.9896717"><ele>224.20000000000002</ele><time>2026-03-22T11:29:52.986Z</time></trkpt><trkpt lat="44.090395" lon="11.9896483"><ele>227.60000000000002</ele><time>2026-03-22T11:29:54.985Z</time></trkpt><trkpt lat="44.09031" lon="11.9895683"><ele>231.0</ele><time>2026-03-22T11:29:56.986Z</time></trkpt><trkpt lat="44.0902517" lon="11.9895117"><ele>231.0</ele><time>2026-03-22T11:29:57.985Z</time></trkpt><trkpt lat="44.0902017" lon="11.9894517"><ele>231.00000000000003</ele><time>2026-03-22T11:29:58.985Z</time></trkpt><trkpt lat="44.0901133" lon="11.9893517"><ele>231.00000000000003</ele><time>2026-03-22T11:30:00.986Z</time></trkpt><trkpt lat="44.0900333" lon="11.9892433"><ele>231.0</ele><time>2026-03-22T11:30:02.986Z</time></trkpt><trkpt lat="44.08997" lon="11.9891133"><ele>231.0</ele><time>2026-03-22T11:30:04.985Z</time></trkpt><trkpt lat="44.0899" lon="11.98899"><ele>235.0</ele><time>2026-03-22T11:30:06.985Z</time></trkpt><trkpt lat="44.0898" lon="11.9888783"><ele>239.00000000000003</ele><time>2026-03-22T11:30:08.985Z</time></trkpt><trkpt lat="44.0897317" lon="11.9888"><ele>243.00000000000003</ele><time>2026-03-22T11:30:09.985Z</time></trkpt><trkpt lat="44.08965" lon="11.9887117"><ele>247.0</ele><time>2026-03-22T11:30:10.985Z</time></trkpt><trkpt lat="44.0895783" lon="11.9886283"><ele>251.0</ele><time>2026-03-22T11:30:11.985Z</time></trkpt><trkpt lat="44.0895217" lon="11.98856"><ele>251.00000000000003</ele><time>2026-03-22T11:30:12.985Z</time></trkpt><trkpt lat="44.0894717" lon="11.988495"><ele>251.0</ele><time>2026-03-22T11:30:13.985Z</time></trkpt><trkpt lat="44.08941" lon="11.9884167"><ele>251.0</ele><time>2026-03-22T11:30:14.985Z</time></trkpt><trkpt lat="44.0893617" lon="11.9883567"><ele>251.0</ele><time>2026-03-22T11:30:15.985Z</time></trkpt><trkpt lat="44.0892983" lon="11.9883017"><ele>251.00000000000003</ele><time>2026-03-22T11:30:18.985Z</time></trkpt><trkpt lat="44.08921" lon="11.9883"><ele>251.0</ele><time>2026-03-22T11:31:00.984Z</time></trkpt><trkpt lat="44.0891233" lon="11.9883367"><ele>252.4285714285714</ele><time>2026-03-22T11:31:03.984Z</time></trkpt><trkpt lat="44.08907" lon="11.9883967"><ele>253.85714285714283</ele><time>2026-03-22T11:31:05.984Z</time></trkpt><trkpt lat="44.089015" lon="11.9884583"><ele>255.28571428571428</ele><time>2026-03-22T11:31:07.985Z</time></trkpt><trkpt lat="44.0889667" lon="11.9885183"><ele>256.71428571428567</ele><time>2026-03-22T11:31:09.984Z</time></trkpt><trkpt lat="44.0889267" lon="11.98859"><ele>258.1428571428571</ele><time>2026-03-22T11:31:11.984Z</time></trkpt><trkpt lat="44.088895" lon="11.9886733"><ele>259.57142857142856</ele><time>2026-03-22T11:31:13.984Z</time></trkpt><trkpt lat="44.0888817" lon="11.988765"><ele>261.0</ele><time>2026-03-22T11:31:15.984Z</time></trkpt><trkpt lat="44.08887" lon="11.98886"><ele>261.0</ele><time>2026-03-22T11:31:17.984Z</time></trkpt><trkpt lat="44.0888783" lon="11.9889633"><ele>261.0</ele><time>2026-03-22T11:31:19.984Z</time></trkpt><trkpt lat="44.0889017" lon="11.9890483"><ele>261.0</ele><time>2026-03-22T11:31:22.984Z</time></trkpt><trkpt lat="44.0888983" lon="11.9891533"><ele>261.0</ele><time>2026-03-22T11:31:30.984Z</time></trkpt><trkpt lat="44.0888917" lon="11.9892483"><ele>261.0</ele><time>2026-03-22T11:31:32.984Z</time></trkpt><trkpt lat="44.0888867" lon="11.9893383"><ele>261.0</ele><time>2026-03-22T11:31:34.984Z</time></trkpt><trkpt lat="44.0888667" lon="11.98944"><ele>261.0</ele><time>2026-03-22T11:31:36.984Z</time></trkpt><trkpt lat="44.0888633" lon="11.9895683"><ele>262.0</ele><time>2026-03-22T11:31:39.984Z</time></trkpt><trkpt lat="44.0888683" lon="11.9896567"><ele>263.0</ele><time>2026-03-22T11:31:41.984Z</time></trkpt><trkpt lat="44.08887" lon="11.9897517"><ele>264.0</ele><time>2026-03-22T11:31:43.984Z</time></trkpt><trkpt lat="44.0888633" lon="11.9898483"><ele>265.0</ele><time>2026-03-22T11:31:45.984Z</time></trkpt><trkpt lat="44.0888433" lon="11.98995"><ele>266.0</ele><time>2026-03-22T11:31:47.984Z</time></trkpt><trkpt lat="44.0887983" lon="11.9900417"><ele>267.0</ele><time>2026-03-22T11:31:49.984Z</time></trkpt><trkpt lat="44.0887317" lon="11.990115"><ele>268.0</ele><time>2026-03-22T11:31:51.984Z</time></trkpt><trkpt lat="44.08868" lon="11.9901817"><ele>270.0</ele><time>2026-03-22T11:31:53.984Z</time></trkpt><trkpt lat="44.0886133" lon="11.9902617"><ele>272.0</ele><time>2026-03-22T11:31:55.984Z</time></trkpt><trkpt lat="44.0885433" lon="11.9903783"><ele>274.0</ele><time>2026-03-22T11:31:57.984Z</time></trkpt><trkpt lat="44.088505" lon="11.9904617"><ele>276.0</ele><time>2026-03-22T11:31:58.984Z</time></trkpt><trkpt lat="44.0884633" lon="11.9905633"><ele>278.0</ele><time>2026-03-22T11:31:59.985Z</time></trkpt><trkpt lat="44.0884217" lon="11.9906483"><ele>280.0</ele><time>2026-03-22T11:32:00.985Z</time></trkpt><trkpt lat="44.08838" lon="11.990725"><ele>280.0</ele><time>2026-03-22T11:32:01.984Z</time></trkpt><trkpt lat="44.088345" lon="11.9908017"><ele>280.0</ele><time>2026-03-22T11:32:02.984Z</time></trkpt><trkpt lat="44.0883117" lon="11.9908783"><ele>280.0</ele><time>2026-03-22T11:32:03.985Z</time></trkpt><trkpt lat="44.0882783" lon="11.9909683"><ele>280.0</ele><time>2026-03-22T11:32:04.984Z</time></trkpt><trkpt lat="44.0882367" lon="11.9910867"><ele>280.0</ele><time>2026-03-22T11:32:05.984Z</time></trkpt><trkpt lat="44.0881933" lon="11.9912033"><ele>280.0</ele><time>2026-03-22T11:32:06.984Z</time></trkpt><trkpt lat="44.088145" lon="11.9913"><ele>280.8</ele><time>2026-03-22T11:32:07.985Z</time></trkpt><trkpt lat="44.0880967" lon="11.9913817"><ele>281.6</ele><time>2026-03-22T11:32:08.985Z</time></trkpt><trkpt lat="44.0880283" lon="11.991505"><ele>282.4</ele><time>2026-03-22T11:32:10.984Z</time></trkpt><trkpt lat="44.08799" lon="11.9916033"><ele>283.2</ele><time>2026-03-22T11:32:12.985Z</time></trkpt><trkpt lat="44.08795" lon="11.9917617"><ele>284.0</ele><time>2026-03-22T11:32:14.984Z</time></trkpt><trkpt lat="44.08793" lon="11.9918517"><ele>285.57142857142856</ele><time>2026-03-22T11:32:15.984Z</time></trkpt><trkpt lat="44.0879133" lon="11.9919383"><ele>287.1428571428571</ele><time>2026-03-22T11:32:16.984Z</time></trkpt><trkpt lat="44.087885" lon="11.9920417"><ele>288.7142857142857</ele><time>2026-03-22T11:32:17.984Z</time></trkpt><trkpt lat="44.0878583" lon="11.992155"><ele>290.2857142857143</ele><time>2026-03-22T11:32:18.985Z</time></trkpt><trkpt lat="44.08783" lon="11.992245"><ele>291.8571428571429</ele><time>2026-03-22T11:32:19.984Z</time></trkpt><trkpt lat="44.0878" lon="11.9923367"><ele>293.42857142857144</ele><time>2026-03-22T11:32:20.984Z</time></trkpt><trkpt lat="44.0877617" lon="11.9924217"><ele>295.0</ele><time>2026-03-22T11:32:21.984Z</time></trkpt><trkpt lat="44.0877033" lon="11.9925383"><ele>296.3333333333333</ele><time>2026-03-22T11:32:23.984Z</time></trkpt><trkpt lat="44.087655" lon="11.9926433"><ele>297.66666666666663</ele><time>2026-03-22T11:32:25.984Z</time></trkpt><trkpt lat="44.0876033" lon="11.9927533"><ele>299.0</ele><time>2026-03-22T11:32:27.984Z</time></trkpt><trkpt lat="44.0875567" lon="11.9928667"><ele>300.3333333333333</ele><time>2026-03-22T11:32:29.985Z</time></trkpt><trkpt lat="44.0875217" lon="11.9929817"><ele>301.6666666666667</ele><time>2026-03-22T11:32:31.985Z</time></trkpt><trkpt lat="44.0875" lon="11.9930717"><ele>303.0</ele><time>2026-03-22T11:32:33.985Z</time></trkpt><trkpt lat="44.0874733" lon="11.9931567"><ele>303.0</ele><time>2026-03-22T11:32:35.984Z</time></trkpt><trkpt lat="44.08743" lon="11.9932367"><ele>303.0</ele><time>2026-03-22T11:32:37.984Z</time></trkpt><trkpt lat="44.087375" lon="11.993315"><ele>303.0</ele><time>2026-03-22T11:32:39.985Z</time></trkpt><trkpt lat="44.0873117" lon="11.99341"><ele>303.0</ele><time>2026-03-22T11:32:41.984Z</time></trkpt><trkpt lat="44.0872717" lon="11.9934967"><ele>303.0</ele><time>2026-03-22T11:32:43.985Z</time></trkpt><trkpt lat="44.08722" lon="11.9935883"><ele>303.0</ele><time>2026-03-22T11:32:45.985Z</time></trkpt><trkpt lat="44.087165" lon="11.9937067"><ele>306.3333333333333</ele><time>2026-03-22T11:32:47.985Z</time></trkpt><trkpt lat="44.08712" lon="11.993855"><ele>309.6666666666667</ele><time>2026-03-22T11:32:49.985Z</time></trkpt><trkpt lat="44.0871" lon="11.9939633"><ele>313.0</ele><time>2026-03-22T11:32:51.984Z</time></trkpt><trkpt lat="44.087065" lon="11.9940583"><ele>316.33333333333337</ele><time>2026-03-22T11:32:53.984Z</time></trkpt><trkpt lat="44.08702" lon="11.9941517"><ele>319.6666666666667</ele><time>2026-03-22T11:32:55.985Z</time></trkpt><trkpt lat="44.0869717" lon="11.9942367"><ele>323.0</ele><time>2026-03-22T11:32:58.984Z</time></trkpt><trkpt lat="44.0869117" lon="11.9943283"><ele>325.83333333333337</ele><time>2026-03-22T11:33:01.985Z</time></trkpt><trkpt lat="44.086865" lon="11.9944067"><ele>328.6666666666667</ele><time>2026-03-22T11:33:03.984Z</time></trkpt><trkpt lat="44.0868183" lon="11.9944917"><ele>331.5</ele><time>2026-03-22T11:33:05.984Z</time></trkpt><trkpt lat="44.0867733" lon="11.9945667"><ele>334.3333333333333</ele><time>2026-03-22T11:33:07.984Z</time></trkpt><trkpt lat="44.0867233" lon="11.9946617"><ele>337.16666666666663</ele><time>2026-03-22T11:33:09.985Z</time></trkpt><trkpt lat="44.0866717" lon="11.9947433"><ele>340.0</ele><time>2026-03-22T11:33:11.985Z</time></trkpt><trkpt lat="44.0866117" lon="11.9948117"><ele>339.3333333333333</ele><time>2026-03-22T11:33:13.984Z</time></trkpt><trkpt lat="44.0865433" lon="11.9948883"><ele>338.66666666666663</ele><time>2026-03-22T11:33:15.984Z</time></trkpt><trkpt lat="44.0864733" lon="11.9949917"><ele>338.0</ele><time>2026-03-22T11:33:17.985Z</time></trkpt><trkpt lat="44.08642" lon="11.9950983"><ele>337.3333333333333</ele><time>2026-03-22T11:33:19.984Z</time></trkpt><trkpt lat="44.0863833" lon="11.9952083"><ele>336.6666666666667</ele><time>2026-03-22T11:33:21.984Z</time></trkpt><trkpt lat="44.0863567" lon="11.9953"><ele>336.0</ele><time>2026-03-22T11:33:23.984Z</time></trkpt><trkpt lat="44.086335" lon="11.9954033"><ele>339.8</ele><time>2026-03-22T11:33:25.984Z</time></trkpt><trkpt lat="44.08629" lon="11.9954933"><ele>343.6</ele><time>2026-03-22T11:33:27.984Z</time></trkpt><trkpt lat="44.0862233" lon="11.9955883"><ele>347.4</ele><time>2026-03-22T11:33:29.984Z</time></trkpt><trkpt lat="44.086145" lon="11.9956783"><ele>351.2</ele><time>2026-03-22T11:33:31.985Z</time></trkpt><trkpt lat="44.0860483" lon="11.9957767"><ele>355.0</ele><time>2026-03-22T11:33:33.984Z</time></trkpt><trkpt lat="44.0859583" lon="11.9958517"><ele>356.66666666666663</ele><time>2026-03-22T11:33:35.984Z</time></trkpt><trkpt lat="44.08589" lon="11.9959017"><ele>358.3333333333333</ele><time>2026-03-22T11:33:37.984Z</time></trkpt><trkpt lat="44.0857917" lon="11.9959683"><ele>360.0</ele><time>2026-03-22T11:33:43.984Z</time></trkpt><trkpt lat="44.085735" lon="11.996035"><ele>361.6666666666667</ele><time>2026-03-22T11:33:45.984Z</time></trkpt><trkpt lat="44.08567" lon="11.9960933"><ele>363.33333333333337</ele><time>2026-03-22T11:33:47.984Z</time></trkpt><trkpt lat="44.0856" lon="11.9961633"><ele>365.0</ele><time>2026-03-22T11:33:49.984Z</time></trkpt><trkpt lat="44.08551" lon="11.9962417"><ele>365.2</ele><time>2026-03-22T11:33:51.984Z</time></trkpt><trkpt lat="44.0854183" lon="11.996325"><ele>365.4</ele><time>2026-03-22T11:33:53.985Z</time></trkpt><trkpt lat="44.08535" lon="11.9963733"><ele>365.6</ele><time>2026-03-22T11:33:55.984Z</time></trkpt><trkpt lat="44.0852583" lon="11.9964483"><ele>365.8</ele><time>2026-03-22T11:33:57.985Z</time></trkpt><trkpt lat="44.08516" lon="11.996515"><ele>366.0</ele><time>2026-03-22T11:33:59.984Z</time></trkpt><trkpt lat="44.085075" lon="11.9965733"><ele>366.0</ele><time>2026-03-22T11:34:01.984Z</time></trkpt><trkpt lat="44.0849933" lon="11.996645"><ele>366.0</ele><time>2026-03-22T11:34:03.984Z</time></trkpt><trkpt lat="44.0849233" lon="11.9967233"><ele>366.0</ele><time>2026-03-22T11:34:05.984Z</time></trkpt><trkpt lat="44.0848783" lon="11.996785"><ele>366.0</ele><time>2026-03-22T11:34:07.984Z</time></trkpt><trkpt lat="44.0848583" lon="11.99687"><ele>366.0</ele><time>2026-03-22T11:34:10.984Z</time></trkpt><trkpt lat="44.0848317" lon="11.996985"><ele>366.0</ele><time>2026-03-22T11:34:12.984Z</time></trkpt><trkpt lat="44.0848167" lon="11.9970767"><ele>370.20000000000005</ele><time>2026-03-22T11:34:14.984Z</time></trkpt><trkpt lat="44.0847767" lon="11.9971767"><ele>374.40000000000003</ele><time>2026-03-22T11:34:16.985Z</time></trkpt><trkpt lat="44.0847317" lon="11.9972683"><ele>378.6</ele><time>2026-03-22T11:34:18.984Z</time></trkpt><trkpt lat="44.08469" lon="11.9973767"><ele>382.8</ele><time>2026-03-22T11:34:20.985Z</time></trkpt><trkpt lat="44.0846467" lon="11.9974967"><ele>387.0</ele><time>2026-03-22T11:34:22.984Z</time></trkpt><trkpt lat="44.0846033" lon="11.9976583"><ele>388.0</ele><time>2026-03-22T11:34:24.983Z</time></trkpt><trkpt lat="44.0845617" lon="11.9978033"><ele>389.0</ele><time>2026-03-22T11:34:26.983Z</time></trkpt><trkpt lat="44.0845133" lon="11.9979467"><ele>390.0</ele><time>2026-03-22T11:34:28.983Z</time></trkpt><trkpt lat="44.0844667" lon="11.99807"><ele>391.0</ele><time>2026-03-22T11:34:30.983Z</time></trkpt><trkpt lat="44.0844067" lon="11.998125"><ele>392.0</ele><time>2026-03-22T11:34:33.983Z</time></trkpt><trkpt lat="44.0843267" lon="11.99809"><ele>391.99999999999994</ele><time>2026-03-22T11:34:36.984Z</time></trkpt><trkpt lat="44.08424" lon="11.998065"><ele>392.0</ele><time>2026-03-22T11:34:39.983Z</time></trkpt><trkpt lat="44.0841767" lon="11.998065"><ele>392.0</ele><time>2026-03-22T11:34:42.983Z</time></trkpt><trkpt lat="44.0841167" lon="11.998005"><ele>392.0</ele><time>2026-03-22T11:41:26.983Z</time></trkpt><trkpt lat="44.0840533" lon="11.9979167"><ele>391.99999999999994</ele><time>2026-03-22T11:41:29.982Z</time></trkpt><trkpt lat="44.0839967" lon="11.9978583"><ele>392.0</ele><time>2026-03-22T11:41:31.982Z</time></trkpt><trkpt lat="44.083925" lon="11.997785"><ele>391.49999999999994</ele><time>2026-03-22T11:41:34.982Z</time></trkpt><trkpt lat="44.0838333" lon="11.9977433"><ele>391.0</ele><time>2026-03-22T11:41:37.982Z</time></trkpt><trkpt lat="44.08374" lon="11.9977183"><ele>390.5</ele><time>2026-03-22T11:41:40.982Z</time></trkpt><trkpt lat="44.0836733" lon="11.9976733"><ele>390.0</ele><time>2026-03-22T11:41:42.983Z</time></trkpt><trkpt lat="44.0836067" lon="11.9976233"><ele>389.49999999999994</ele><time>2026-03-22T11:41:44.983Z</time></trkpt><trkpt lat="44.0835317" lon="11.9975517"><ele>389.0</ele><time>2026-03-22T11:41:46.982Z</time></trkpt><trkpt lat="44.083445" lon="11.99746"><ele>389.0</ele><time>2026-03-22T11:41:48.982Z</time></trkpt><trkpt lat="44.0833483" lon="11.9973633"><ele>389.0</ele><time>2026-03-22T11:41:50.982Z</time></trkpt><trkpt lat="44.0832583" lon="11.9972583"><ele>389.0</ele><time>2026-03-22T11:41:52.983Z</time></trkpt><trkpt lat="44.0832017" lon="11.9971867"><ele>389.0</ele><time>2026-03-22T11:41:53.982Z</time></trkpt><trkpt lat="44.0831517" lon="11.9971017"><ele>389.0</ele><time>2026-03-22T11:41:54.982Z</time></trkpt><trkpt lat="44.0831033" lon="11.9970217"><ele>387.66666666666663</ele><time>2026-03-22T11:41:55.982Z</time></trkpt><trkpt lat="44.0830667" lon="11.9969483"><ele>386.3333333333333</ele><time>2026-03-22T11:41:56.982Z</time></trkpt><trkpt lat="44.083025" lon="11.9968817"><ele>385.0</ele><time>2026-03-22T11:41:57.982Z</time></trkpt><trkpt lat="44.0829567" lon="11.996765"><ele>383.66666666666663</ele><time>2026-03-22T11:41:59.982Z</time></trkpt><trkpt lat="44.082895" lon="11.9966667"><ele>382.3333333333333</ele><time>2026-03-22T11:42:01.982Z</time></trkpt><trkpt lat="44.0828233" lon="11.99654"><ele>381.0</ele><time>2026-03-22T11:42:03.982Z</time></trkpt><trkpt lat="44.08275" lon="11.9964583"><ele>381.0</ele><time>2026-03-22T11:42:05.982Z</time></trkpt><trkpt lat="44.08268" lon="11.9964367"><ele>381.0</ele><time>2026-03-22T11:42:07.982Z</time></trkpt><trkpt lat="44.082605" lon="11.9964267"><ele>381.0</ele><time>2026-03-22T11:42:09.982Z</time></trkpt><trkpt lat="44.0825283" lon="11.9963967"><ele>381.0</ele><time>2026-03-22T11:42:11.982Z</time></trkpt><trkpt lat="44.0824533" lon="11.99633"><ele>381.0</ele><time>2026-03-22T11:42:13.982Z</time></trkpt><trkpt lat="44.082395" lon="11.99626"><ele>381.0</ele><time>2026-03-22T11:42:15.982Z</time></trkpt><trkpt lat="44.08234" lon="11.9962"><ele>377.6666666666667</ele><time>2026-03-22T11:42:17.982Z</time></trkpt><trkpt lat="44.0822817" lon="11.9961417"><ele>374.3333333333333</ele><time>2026-03-22T11:42:19.982Z</time></trkpt><trkpt lat="44.08221" lon="11.996055"><ele>371.0</ele><time>2026-03-22T11:42:21.982Z</time></trkpt><trkpt lat="44.082125" lon="11.995925"><ele>367.66666666666663</ele><time>2026-03-22T11:42:23.981Z</time></trkpt><trkpt lat="44.08208" lon="11.9958483"><ele>364.3333333333333</ele><time>2026-03-22T11:42:24.981Z</time></trkpt><trkpt lat="44.082035" lon="11.995775"><ele>361.0</ele><time>2026-03-22T11:42:25.981Z</time></trkpt><trkpt lat="44.0819967" lon="11.9957017"><ele>361.0</ele><time>2026-03-22T11:42:26.981Z</time></trkpt><trkpt lat="44.08193" lon="11.9955833"><ele>361.0</ele><time>2026-03-22T11:42:28.982Z</time></trkpt><trkpt lat="44.0818633" lon="11.9954667"><ele>361.0</ele><time>2026-03-22T11:42:30.981Z</time></trkpt><trkpt lat="44.0817783" lon="11.9953317"><ele>361.0</ele><time>2026-03-22T11:42:32.981Z</time></trkpt><trkpt lat="44.0817" lon="11.9951967"><ele>361.0</ele><time>2026-03-22T11:42:34.981Z</time></trkpt><trkpt lat="44.0816433" lon="11.9951233"><ele>361.0</ele><time>2026-03-22T11:42:35.982Z</time></trkpt><trkpt lat="44.0815933" lon="11.99505"><ele>361.0</ele><time>2026-03-22T11:42:36.981Z</time></trkpt><trkpt lat="44.0815433" lon="11.9949883"><ele>361.0</ele><time>2026-03-22T11:42:37.981Z</time></trkpt><trkpt lat="44.0814917" lon="11.9949333"><ele>361.0</ele><time>2026-03-22T11:42:38.982Z</time></trkpt><trkpt lat="44.08144" lon="11.99488"><ele>361.0</ele><time>2026-03-22T11:42:39.981Z</time></trkpt><trkpt lat="44.0813833" lon="11.99483"><ele>361.0</ele><time>2026-03-22T11:42:40.981Z</time></trkpt><trkpt lat="44.08133" lon="11.9947783"><ele>357.5</ele><time>2026-03-22T11:42:41.981Z</time></trkpt><trkpt lat="44.0812717" lon="11.9947217"><ele>354.0</ele><time>2026-03-22T11:42:42.981Z</time></trkpt><trkpt lat="44.08122" lon="11.9946683"><ele>350.5</ele><time>2026-03-22T11:42:43.982Z</time></trkpt><trkpt lat="44.0811683" lon="11.9946133"><ele>347.0</ele><time>2026-03-22T11:42:44.982Z</time></trkpt><trkpt lat="44.08112" lon="11.9945567"><ele>343.5</ele><time>2026-03-22T11:42:45.981Z</time></trkpt><trkpt lat="44.08102" lon="11.99444"><ele>340.0</ele><time>2026-03-22T11:42:47.982Z</time></trkpt><trkpt lat="44.0809667" lon="11.9943867"><ele>340.0</ele><time>2026-03-22T11:42:48.982Z</time></trkpt><trkpt lat="44.080915" lon="11.994335"><ele>340.0</ele><time>2026-03-22T11:42:49.982Z</time></trkpt><trkpt lat="44.0808233" lon="11.9942317"><ele>340.0</ele><time>2026-03-22T11:42:51.981Z</time></trkpt><trkpt lat="44.0807467" lon="11.99412"><ele>340.0</ele><time>2026-03-22T11:42:53.981Z</time></trkpt><trkpt lat="44.0807083" lon="11.9940367"><ele>340.0</ele><time>2026-03-22T11:42:54.981Z</time></trkpt><trkpt lat="44.0806817" lon="11.9939317"><ele>340.0</ele><time>2026-03-22T11:42:55.981Z</time></trkpt><trkpt lat="44.080655" lon="11.99383"><ele>340.4</ele><time>2026-03-22T11:42:56.981Z</time></trkpt><trkpt lat="44.0806267" lon="11.9936833"><ele>340.8</ele><time>2026-03-22T11:42:58.981Z</time></trkpt><trkpt lat="44.0806033" lon="11.993565"><ele>341.20000000000005</ele><time>2026-03-22T11:43:00.981Z</time></trkpt><trkpt lat="44.0805617" lon="11.9934167"><ele>341.6</ele><time>2026-03-22T11:43:02.981Z</time></trkpt><trkpt lat="44.0805317" lon="11.9933233"><ele>342.0</ele><time>2026-03-22T11:43:03.981Z</time></trkpt><trkpt lat="44.080485" lon="11.993235"><ele>342.0</ele><time>2026-03-22T11:43:04.981Z</time></trkpt><trkpt lat="44.0804217" lon="11.9931417"><ele>342.0</ele><time>2026-03-22T11:43:05.981Z</time></trkpt><trkpt lat="44.0803583" lon="11.9930517"><ele>342.0</ele><time>2026-03-22T11:43:06.981Z</time></trkpt><trkpt lat="44.0802933" lon="11.9929633"><ele>342.0</ele><time>2026-03-22T11:43:07.981Z</time></trkpt><trkpt lat="44.0802283" lon="11.9928883"><ele>342.0</ele><time>2026-03-22T11:43:08.981Z</time></trkpt><trkpt lat="44.0801633" lon="11.9928067"><ele>342.0</ele><time>2026-03-22T11:43:09.981Z</time></trkpt><trkpt lat="44.0800767" lon="11.99272"><ele>342.0</ele><time>2026-03-22T11:43:10.981Z</time></trkpt><trkpt lat="44.0799783" lon="11.9926183"><ele>342.0</ele><time>2026-03-22T11:43:11.982Z</time></trkpt><trkpt lat="44.0798733" lon="11.9925333"><ele>342.0</ele><time>2026-03-22T11:43:12.981Z</time></trkpt><trkpt lat="44.0798033" lon="11.9924717"><ele>342.0</ele><time>2026-03-22T11:43:13.981Z</time></trkpt><trkpt lat="44.07974" lon="11.9924167"><ele>342.0</ele><time>2026-03-22T11:43:14.981Z</time></trkpt><trkpt lat="44.0796767" lon="11.9923633"><ele>343.1428571428571</ele><time>2026-03-22T11:43:15.981Z</time></trkpt><trkpt lat="44.0796183" lon="11.9923067"><ele>344.2857142857143</ele><time>2026-03-22T11:43:16.981Z</time></trkpt><trkpt lat="44.07956" lon="11.99225"><ele>345.42857142857144</ele><time>2026-03-22T11:43:17.981Z</time></trkpt><trkpt lat="44.0795" lon="11.9922017"><ele>346.57142857142856</ele><time>2026-03-22T11:43:18.981Z</time></trkpt><trkpt lat="44.0794467" lon="11.9921467"><ele>347.7142857142857</ele><time>2026-03-22T11:43:19.981Z</time></trkpt><trkpt lat="44.0793833" lon="11.9920783"><ele>348.85714285714283</ele><time>2026-03-22T11:43:20.981Z</time></trkpt><trkpt lat="44.07932" lon="11.992005"><ele>350.0</ele><time>2026-03-22T11:43:21.981Z</time></trkpt><trkpt lat="44.0792767" lon="11.9919383"><ele>350.0</ele><time>2026-03-22T11:43:22.982Z</time></trkpt><trkpt lat="44.0792133" lon="11.991835"><ele>350.0</ele><time>2026-03-22T11:43:24.981Z</time></trkpt><trkpt lat="44.0791717" lon="11.9917533"><ele>350.0</ele><time>2026-03-22T11:43:27.982Z</time></trkpt><trkpt lat="44.079075" lon="11.9917317"><ele>350.0</ele><time>2026-03-22T11:43:30.981Z</time></trkpt><trkpt lat="44.0789667" lon="11.9917117"><ele>350.0</ele><time>2026-03-22T11:43:32.981Z</time></trkpt><trkpt lat="44.0788567" lon="11.9916633"><ele>351.6</ele><time>2026-03-22T11:43:34.981Z</time></trkpt><trkpt lat="44.0787817" lon="11.9916383"><ele>353.2</ele><time>2026-03-22T11:43:37.981Z</time></trkpt><trkpt lat="44.0787167" lon="11.9915817"><ele>354.79999999999995</ele><time>2026-03-22T11:43:41.981Z</time></trkpt><trkpt lat="44.078645" lon="11.9914967"><ele>356.4</ele><time>2026-03-22T11:43:44.981Z</time></trkpt><trkpt lat="44.0785783" lon="11.9914417"><ele>358.0</ele><time>2026-03-22T11:43:46.981Z</time></trkpt><trkpt lat="44.0784133" lon="11.9913733"><ele>358.0</ele><time>2026-03-22T11:43:54.981Z</time></trkpt><trkpt lat="44.07833" lon="11.9913467"><ele>358.0</ele><time>2026-03-22T11:43:55.981Z</time></trkpt><trkpt lat="44.0782417" lon="11.9913117"><ele>358.0</ele><time>2026-03-22T11:43:56.981Z</time></trkpt><trkpt lat="44.07815" lon="11.99129"><ele>358.0</ele><time>2026-03-22T11:43:57.981Z</time></trkpt><trkpt lat="44.0780717" lon="11.99127"><ele>358.0</ele><time>2026-03-22T11:43:58.981Z</time></trkpt><trkpt lat="44.0780067" lon="11.991255"><ele>358.0</ele><time>2026-03-22T11:43:59.981Z</time></trkpt><trkpt lat="44.0779117" lon="11.99118"><ele>359.79999999999995</ele><time>2026-03-22T11:44:01.981Z</time></trkpt><trkpt lat="44.07787" lon="11.9910667"><ele>361.6</ele><time>2026-03-22T11:44:03.981Z</time></trkpt><trkpt lat="44.077885" lon="11.9909183"><ele>363.4</ele><time>2026-03-22T11:44:05.981Z</time></trkpt><trkpt lat="44.0778983" lon="11.9907717"><ele>365.20000000000005</ele><time>2026-03-22T11:44:07.981Z</time></trkpt><trkpt lat="44.0778667" lon="11.9906333"><ele>367.0</ele><time>2026-03-22T11:44:09.981Z</time></trkpt><trkpt lat="44.0778367" lon="11.9905433"><ele>367.0</ele><time>2026-03-22T11:44:10.981Z</time></trkpt><trkpt lat="44.0778033" lon="11.99046"><ele>367.0</ele><time>2026-03-22T11:44:11.981Z</time></trkpt><trkpt lat="44.0777633" lon="11.9903667"><ele>367.0</ele><time>2026-03-22T11:44:13.981Z</time></trkpt><trkpt lat="44.0776983" lon="11.99025"><ele>367.0</ele><time>2026-03-22T11:44:16.982Z</time></trkpt><trkpt lat="44.0776583" lon="11.9901717"><ele>367.0</ele><time>2026-03-22T11:44:17.981Z</time></trkpt><trkpt lat="44.0776117" lon="11.99008"><ele>367.0</ele><time>2026-03-22T11:44:18.981Z</time></trkpt><trkpt lat="44.0775667" lon="11.9899883"><ele>366.40000000000003</ele><time>2026-03-22T11:44:19.981Z</time></trkpt><trkpt lat="44.0775017" lon="11.9898483"><ele>365.8</ele><time>2026-03-22T11:44:21.981Z</time></trkpt><trkpt lat="44.0774533" lon="11.9897467"><ele>365.2</ele><time>2026-03-22T11:44:23.981Z</time></trkpt><trkpt lat="44.0774017" lon="11.9896417"><ele>364.6</ele><time>2026-03-22T11:44:25.981Z</time></trkpt><trkpt lat="44.0773417" lon="11.9894733"><ele>364.0</ele><time>2026-03-22T11:44:27.981Z</time></trkpt><trkpt lat="44.0773167" lon="11.98939"><ele>364.0</ele><time>2026-03-22T11:44:28.981Z</time></trkpt><trkpt lat="44.077265" lon="11.98924"><ele>364.0</ele><time>2026-03-22T11:44:30.981Z</time></trkpt><trkpt lat="44.0771933" lon="11.989115"><ele>364.0</ele><time>2026-03-22T11:44:32.981Z</time></trkpt><trkpt lat="44.0771367" lon="11.9890417"><ele>364.0</ele><time>2026-03-22T11:44:33.982Z</time></trkpt><trkpt lat="44.0770767" lon="11.9889617"><ele>364.0</ele><time>2026-03-22T11:44:34.981Z</time></trkpt><trkpt lat="44.077025" lon="11.9888767"><ele>365.79999999999995</ele><time>2026-03-22T11:44:35.981Z</time></trkpt><trkpt lat="44.0769833" lon="11.9887983"><ele>367.59999999999997</ele><time>2026-03-22T11:44:36.982Z</time></trkpt><trkpt lat="44.076945" lon="11.988725"><ele>369.4</ele><time>2026-03-22T11:44:37.981Z</time></trkpt><trkpt lat="44.0768417" lon="11.9886267"><ele>371.2</ele><time>2026-03-22T11:44:39.982Z</time></trkpt><trkpt lat="44.07672" lon="11.9885633"><ele>373.0</ele><time>2026-03-22T11:44:41.982Z</time></trkpt><trkpt lat="44.0766517" lon="11.9885417"><ele>373.14285714285717</ele><time>2026-03-22T11:44:42.982Z</time></trkpt><trkpt lat="44.0765817" lon="11.9885367"><ele>373.28571428571433</ele><time>2026-03-22T11:44:43.981Z</time></trkpt><trkpt lat="44.076515" lon="11.9885367"><ele>373.42857142857144</ele><time>2026-03-22T11:44:44.981Z</time></trkpt><trkpt lat="44.0764367" lon="11.9885267"><ele>373.57142857142856</ele><time>2026-03-22T11:44:45.981Z</time></trkpt><trkpt lat="44.0763567" lon="11.988525"><ele>373.7142857142857</ele><time>2026-03-22T11:44:46.981Z</time></trkpt><trkpt lat="44.0762733" lon="11.988525"><ele>373.85714285714283</ele><time>2026-03-22T11:44:47.982Z</time></trkpt><trkpt lat="44.07621" lon="11.9885183"><ele>374.0</ele><time>2026-03-22T11:44:48.981Z</time></trkpt><trkpt lat="44.0760833" lon="11.9885033"><ele>374.0</ele><time>2026-03-22T11:44:50.981Z</time></trkpt><trkpt lat="44.07596" lon="11.988495"><ele>374.0</ele><time>2026-03-22T11:44:52.981Z</time></trkpt><trkpt lat="44.0758967" lon="11.9884517"><ele>374.0</ele><time>2026-03-22T11:44:53.981Z</time></trkpt><trkpt lat="44.07584" lon="11.9884067"><ele>374.0</ele><time>2026-03-22T11:44:54.981Z</time></trkpt><trkpt lat="44.0757867" lon="11.9883583"><ele>374.0</ele><time>2026-03-22T11:44:55.981Z</time></trkpt><trkpt lat="44.07572" lon="11.9882783"><ele>374.0</ele><time>2026-03-22T11:44:57.981Z</time></trkpt><trkpt lat="44.075695" lon="11.9881567"><ele>376.4</ele><time>2026-03-22T11:44:59.981Z</time></trkpt><trkpt lat="44.0757183" lon="11.9880117"><ele>378.79999999999995</ele><time>2026-03-22T11:45:01.981Z</time></trkpt><trkpt lat="44.0757533" lon="11.9878867"><ele>381.20000000000005</ele><time>2026-03-22T11:45:03.981Z</time></trkpt><trkpt lat="44.075825" lon="11.9877717"><ele>383.6</ele><time>2026-03-22T11:45:05.981Z</time></trkpt><trkpt lat="44.0759217" lon="11.987675"><ele>386.0</ele><time>2026-03-22T11:45:07.981Z</time></trkpt><trkpt lat="44.0759867" lon="11.987585"><ele>387.0</ele><time>2026-03-22T11:45:09.981Z</time></trkpt><trkpt lat="44.076025" lon="11.9874683"><ele>388.0</ele><time>2026-03-22T11:45:11.981Z</time></trkpt><trkpt lat="44.0760333" lon="11.987295"><ele>389.0</ele><time>2026-03-22T11:45:13.981Z</time></trkpt><trkpt lat="44.0760333" lon="11.9872"><ele>390.0</ele><time>2026-03-22T11:45:14.982Z</time></trkpt><trkpt lat="44.0760283" lon="11.9871"><ele>391.0</ele><time>2026-03-22T11:45:15.981Z</time></trkpt><trkpt lat="44.0760433" lon="11.9869383"><ele>391.00000000000006</ele><time>2026-03-22T11:45:17.981Z</time></trkpt><trkpt lat="44.0760617" lon="11.9867933"><ele>391.0</ele><time>2026-03-22T11:45:19.981Z</time></trkpt><trkpt lat="44.07605" lon="11.9866867"><ele>391.0</ele><time>2026-03-22T11:45:21.981Z</time></trkpt><trkpt lat="44.07598" lon="11.9866017"><ele>391.0</ele><time>2026-03-22T11:45:23.981Z</time></trkpt><trkpt lat="44.07591" lon="11.9865583"><ele>391.00000000000006</ele><time>2026-03-22T11:45:25.981Z</time></trkpt><trkpt lat="44.075835" lon="11.9865"><ele>391.0</ele><time>2026-03-22T11:45:27.981Z</time></trkpt><trkpt lat="44.07578" lon="11.9863933"><ele>391.71428571428567</ele><time>2026-03-22T11:45:29.981Z</time></trkpt><trkpt lat="44.0757367" lon="11.9863133"><ele>392.42857142857144</ele><time>2026-03-22T11:45:31.981Z</time></trkpt><trkpt lat="44.0756883" lon="11.9862567"><ele>393.1428571428571</ele><time>2026-03-22T11:45:33.981Z</time></trkpt><trkpt lat="44.075625" lon="11.9862017"><ele>393.85714285714283</ele><time>2026-03-22T11:45:35.981Z</time></trkpt><trkpt lat="44.0755767" lon="11.9861067"><ele>394.57142857142856</ele><time>2026-03-22T11:45:38.981Z</time></trkpt><trkpt lat="44.0755933" lon="11.985995"><ele>395.2857142857143</ele><time>2026-03-22T11:45:41.981Z</time></trkpt><trkpt lat="44.0756283" lon="11.985915"><ele>396.0</ele><time>2026-03-22T11:45:44.981Z</time></trkpt><trkpt lat="44.075645" lon="11.9858183"><ele>393.2857142857143</ele><time>2026-03-22T11:45:47.981Z</time></trkpt><trkpt lat="44.0756367" lon="11.98573"><ele>390.57142857142856</ele><time>2026-03-22T11:45:49.982Z</time></trkpt><trkpt lat="44.07562" lon="11.9856383"><ele>387.85714285714283</ele><time>2026-03-22T11:45:51.981Z</time></trkpt><trkpt lat="44.07557" lon="11.98557"><ele>385.1428571428571</ele><time>2026-03-22T11:45:53.981Z</time></trkpt><trkpt lat="44.0754867" lon="11.9855133"><ele>382.42857142857144</ele><time>2026-03-22T11:45:55.981Z</time></trkpt><trkpt lat="44.0754267" lon="11.9854733"><ele>379.71428571428567</ele><time>2026-03-22T11:45:56.981Z</time></trkpt><trkpt lat="44.07537" lon="11.9854317"><ele>377.0</ele><time>2026-03-22T11:45:57.981Z</time></trkpt><trkpt lat="44.075275" lon="11.98534"><ele>377.0</ele><time>2026-03-22T11:45:59.982Z</time></trkpt><trkpt lat="44.0752183" lon="11.98524"><ele>377.0</ele><time>2026-03-22T11:46:01.982Z</time></trkpt><trkpt lat="44.0752067" lon="11.985125"><ele>377.0</ele><time>2026-03-22T11:46:03.981Z</time></trkpt><trkpt lat="44.0752117" lon="11.9850033"><ele>377.0</ele><time>2026-03-22T11:46:05.981Z</time></trkpt><trkpt lat="44.0752183" lon="11.9848867"><ele>377.0</ele><time>2026-03-22T11:46:07.981Z</time></trkpt><trkpt lat="44.0752083" lon="11.9847817"><ele>377.0</ele><time>2026-03-22T11:46:09.982Z</time></trkpt><trkpt lat="44.0751883" lon="11.9846617"><ele>372.6</ele><time>2026-03-22T11:46:11.981Z</time></trkpt><trkpt lat="44.0751333" lon="11.98454"><ele>368.20000000000005</ele><time>2026-03-22T11:46:13.982Z</time></trkpt><trkpt lat="44.075065" lon="11.9844383"><ele>363.8</ele><time>2026-03-22T11:46:15.981Z</time></trkpt><trkpt lat="44.0750233" lon="11.9843117"><ele>359.4</ele><time>2026-03-22T11:46:17.981Z</time></trkpt><trkpt lat="44.0749933" lon="11.98422"><ele>355.0</ele><time>2026-03-22T11:46:18.982Z</time></trkpt><trkpt lat="44.074965" lon="11.9841083"><ele>352.3333333333333</ele><time>2026-03-22T11:46:19.981Z</time></trkpt><trkpt lat="44.07494" lon="11.9840017"><ele>349.66666666666663</ele><time>2026-03-22T11:46:20.981Z</time></trkpt><trkpt lat="44.074915" lon="11.9839017"><ele>347.0</ele><time>2026-03-22T11:46:21.981Z</time></trkpt><trkpt lat="44.074895" lon="11.9837583"><ele>344.3333333333333</ele><time>2026-03-22T11:46:23.981Z</time></trkpt><trkpt lat="44.074845" lon="11.9836883"><ele>341.6666666666667</ele><time>2026-03-22T11:46:26.981Z</time></trkpt><trkpt lat="44.0747733" lon="11.9836567"><ele>339.0</ele><time>2026-03-22T11:46:29.981Z</time></trkpt><trkpt lat="44.0747517" lon="11.9835367"><ele>337.6666666666667</ele><time>2026-03-22T11:46:32.981Z</time></trkpt><trkpt lat="44.07479" lon="11.9834483"><ele>336.3333333333333</ele><time>2026-03-22T11:46:34.981Z</time></trkpt><trkpt lat="44.0748517" lon="11.9833483"><ele>335.0</ele><time>2026-03-22T11:46:36.982Z</time></trkpt><trkpt lat="44.0749167" lon="11.98327"><ele>333.66666666666663</ele><time>2026-03-22T11:46:38.981Z</time></trkpt><trkpt lat="44.0749583" lon="11.9832"><ele>332.3333333333333</ele><time>2026-03-22T11:46:40.982Z</time></trkpt><trkpt lat="44.0749817" lon="11.9830883"><ele>331.0</ele><time>2026-03-22T11:46:43.982Z</time></trkpt><trkpt lat="44.0749467" lon="11.9829983"><ele>328.5</ele><time>2026-03-22T11:46:45.981Z</time></trkpt><trkpt lat="44.0749" lon="11.9828783"><ele>326.0</ele><time>2026-03-22T11:46:47.981Z</time></trkpt><trkpt lat="44.0748883" lon="11.9827517"><ele>323.5</ele><time>2026-03-22T11:46:49.98Z</time></trkpt><trkpt lat="44.074905" lon="11.9826283"><ele>321.0</ele><time>2026-03-22T11:46:51.98Z</time></trkpt><trkpt lat="44.0749367" lon="11.9825283"><ele>318.5</ele><time>2026-03-22T11:46:53.981Z</time></trkpt><trkpt lat="44.0749367" lon="11.9824233"><ele>316.0</ele><time>2026-03-22T11:46:55.98Z</time></trkpt><trkpt lat="44.0749283" lon="11.9823167"><ele>315.16666666666663</ele><time>2026-03-22T11:46:57.981Z</time></trkpt><trkpt lat="44.0749433" lon="11.9822233"><ele>314.3333333333333</ele><time>2026-03-22T11:46:59.98Z</time></trkpt><trkpt lat="44.074995" lon="11.9821517"><ele>313.5</ele><time>2026-03-22T11:47:01.98Z</time></trkpt><trkpt lat="44.0750733" lon="11.9820883"><ele>312.6666666666667</ele><time>2026-03-22T11:47:04.98Z</time></trkpt><trkpt lat="44.075155" lon="11.9820483"><ele>311.83333333333337</ele><time>2026-03-22T11:47:07.98Z</time></trkpt><trkpt lat="44.0751883" lon="11.98196"><ele>311.0</ele><time>2026-03-22T11:47:10.981Z</time></trkpt><trkpt lat="44.0751267" lon="11.9818867"><ele>311.0</ele><time>2026-03-22T11:47:13.98Z</time></trkpt><trkpt lat="44.0750383" lon="11.981835"><ele>311.0</ele><time>2026-03-22T11:47:16.98Z</time></trkpt><trkpt lat="44.074955" lon="11.98182"><ele>311.0</ele><time>2026-03-22T11:47:18.98Z</time></trkpt><trkpt lat="44.0748967" lon="11.9817683"><ele>311.0</ele><time>2026-03-22T11:47:20.98Z</time></trkpt><trkpt lat="44.0748583" lon="11.9816917"><ele>311.0</ele><time>2026-03-22T11:47:22.98Z</time></trkpt><trkpt lat="44.0747883" lon="11.9816367"><ele>311.0</ele><time>2026-03-22T11:47:25.98Z</time></trkpt><trkpt lat="44.074715" lon="11.9816583"><ele>305.5</ele><time>2026-03-22T11:47:29.98Z</time></trkpt><trkpt lat="44.0746467" lon="11.9816683"><ele>300.0</ele><time>2026-03-22T11:47:32.98Z</time></trkpt><trkpt lat="44.0745717" lon="11.9816333"><ele>294.5</ele><time>2026-03-22T11:47:35.98Z</time></trkpt><trkpt lat="44.074545" lon="11.9815433"><ele>289.0</ele><time>2026-03-22T11:47:37.98Z</time></trkpt><trkpt lat="44.0745617" lon="11.9814233"><ele>283.5</ele><time>2026-03-22T11:47:39.98Z</time></trkpt><trkpt lat="44.0745583" lon="11.9813217"><ele>278.0</ele><time>2026-03-22T11:47:41.98Z</time></trkpt><trkpt lat="44.074535" lon="11.981205"><ele>278.0</ele><time>2026-03-22T11:47:44.98Z</time></trkpt><trkpt lat="44.0744567" lon="11.98116"><ele>278.0</ele><time>2026-03-22T11:47:47.98Z</time></trkpt><trkpt lat="44.0743517" lon="11.9812117"><ele>278.0</ele><time>2026-03-22T11:47:50.98Z</time></trkpt><trkpt lat="44.0742483" lon="11.9812833"><ele>278.0</ele><time>2026-03-22T11:47:52.98Z</time></trkpt><trkpt lat="44.0741583" lon="11.9813317"><ele>278.0</ele><time>2026-03-22T11:47:54.98Z</time></trkpt><trkpt lat="44.0740717" lon="11.9813783"><ele>272.6</ele><time>2026-03-22T11:47:56.98Z</time></trkpt><trkpt lat="44.0739983" lon="11.9814017"><ele>267.20000000000005</ele><time>2026-03-22T11:47:58.98Z</time></trkpt><trkpt lat="44.0739383" lon="11.9813367"><ele>261.8</ele><time>2026-03-22T11:48:00.98Z</time></trkpt><trkpt lat="44.0738683" lon="11.9812267"><ele>256.40000000000003</ele><time>2026-03-22T11:48:02.981Z</time></trkpt><trkpt lat="44.0737933" lon="11.9811133"><ele>251.0</ele><time>2026-03-22T11:48:04.98Z</time></trkpt><trkpt lat="44.0737133" lon="11.98107"><ele>251.00000000000003</ele><time>2026-03-22T11:48:07.98Z</time></trkpt><trkpt lat="44.07365" lon="11.9811183"><ele>251.0</ele><time>2026-03-22T11:48:09.98Z</time></trkpt><trkpt lat="44.0735817" lon="11.9812117"><ele>251.0</ele><time>2026-03-22T11:48:11.98Z</time></trkpt><trkpt lat="44.0735183" lon="11.9813083"><ele>251.0</ele><time>2026-03-22T11:48:13.98Z</time></trkpt><trkpt lat="44.0734633" lon="11.9814033"><ele>251.00000000000003</ele><time>2026-03-22T11:48:15.98Z</time></trkpt><trkpt lat="44.0733983" lon="11.9814867"><ele>251.0</ele><time>2026-03-22T11:48:17.98Z</time></trkpt><trkpt lat="44.0733117" lon="11.981575"><ele>247.83333333333334</ele><time>2026-03-22T11:48:19.98Z</time></trkpt><trkpt lat="44.0732633" lon="11.9816483"><ele>244.66666666666669</ele><time>2026-03-22T11:48:20.98Z</time></trkpt><trkpt lat="44.0732283" lon="11.981725"><ele>241.5</ele><time>2026-03-22T11:48:21.98Z</time></trkpt><trkpt lat="44.0731767" lon="11.9818567"><ele>238.33333333333331</ele><time>2026-03-22T11:48:23.981Z</time></trkpt><trkpt lat="44.0731267" lon="11.981965"><ele>235.16666666666666</ele><time>2026-03-22T11:48:25.981Z</time></trkpt><trkpt lat="44.0730633" lon="11.9820317"><ele>232.0</ele><time>2026-03-22T11:48:27.98Z</time></trkpt><trkpt lat="44.0729567" lon="11.982065"><ele>232.0</ele><time>2026-03-22T11:48:29.98Z</time></trkpt><trkpt lat="44.0728667" lon="11.9820983"><ele>232.0</ele><time>2026-03-22T11:48:31.98Z</time></trkpt><trkpt lat="44.07281" lon="11.9821933"><ele>232.0</ele><time>2026-03-22T11:48:34.98Z</time></trkpt><trkpt lat="44.07279" lon="11.9823533"><ele>232.0</ele><time>2026-03-22T11:48:36.98Z</time></trkpt><trkpt lat="44.0727717" lon="11.982445"><ele>232.0</ele><time>2026-03-22T11:48:37.98Z</time></trkpt><trkpt lat="44.07274" lon="11.9825967"><ele>231.99999999999997</ele><time>2026-03-22T11:48:39.98Z</time></trkpt><trkpt lat="44.072685" lon="11.9826583"><ele>232.0</ele><time>2026-03-22T11:48:42.98Z</time></trkpt><trkpt lat="44.072665" lon="11.9825467"><ele>232.0</ele><time>2026-03-22T11:48:45.98Z</time></trkpt><trkpt lat="44.0726533" lon="11.9824283"><ele>232.0</ele><time>2026-03-22T11:48:47.98Z</time></trkpt><trkpt lat="44.0726333" lon="11.9823"><ele>231.99999999999997</ele><time>2026-03-22T11:48:51.98Z</time></trkpt><trkpt lat="44.0726" lon="11.98219"><ele>232.0</ele><time>2026-03-22T11:48:53.98Z</time></trkpt><trkpt lat="44.0725933" lon="11.9820717"><ele>232.0</ele><time>2026-03-22T11:48:55.98Z</time></trkpt><trkpt lat="44.0725933" lon="11.98197"><ele>232.0</ele><time>2026-03-22T11:48:57.98Z</time></trkpt><trkpt lat="44.0726267" lon="11.9818683"><ele>232.0</ele><time>2026-03-22T11:48:59.98Z</time></trkpt><trkpt lat="44.0726867" lon="11.98175"><ele>232.0</ele><time>2026-03-22T11:49:01.98Z</time></trkpt><trkpt lat="44.072745" lon="11.981585"><ele>232.0</ele><time>2026-03-22T11:49:03.98Z</time></trkpt><trkpt lat="44.0727667" lon="11.9814867"><ele>229.39999999999998</ele><time>2026-03-22T11:49:04.98Z</time></trkpt><trkpt lat="44.0727867" lon="11.9813783"><ele>226.79999999999998</ele><time>2026-03-22T11:49:05.981Z</time></trkpt><trkpt lat="44.0727983" lon="11.9812783"><ele>224.2</ele><time>2026-03-22T11:49:06.98Z</time></trkpt><trkpt lat="44.0728667" lon="11.9811217"><ele>221.6</ele><time>2026-03-22T11:49:08.98Z</time></trkpt><trkpt lat="44.0729433" lon="11.9809833"><ele>219.0</ele><time>2026-03-22T11:49:10.98Z</time></trkpt><trkpt lat="44.0729833" lon="11.980905"><ele>216.39999999999998</ele><time>2026-03-22T11:49:11.981Z</time></trkpt><trkpt lat="44.0730183" lon="11.980755"><ele>213.79999999999998</ele><time>2026-03-22T11:49:13.98Z</time></trkpt><trkpt lat="44.073065" lon="11.9806"><ele>211.2</ele><time>2026-03-22T11:49:15.98Z</time></trkpt><trkpt lat="44.073105" lon="11.9804417"><ele>208.60000000000002</ele><time>2026-03-22T11:49:17.98Z</time></trkpt><trkpt lat="44.07313" lon="11.9803583"><ele>206.0</ele><time>2026-03-22T11:49:18.98Z</time></trkpt><trkpt lat="44.0731667" lon="11.9802683"><ele>206.00000000000003</ele><time>2026-03-22T11:49:19.98Z</time></trkpt><trkpt lat="44.0732217" lon="11.9801817"><ele>206.0</ele><time>2026-03-22T11:49:20.98Z</time></trkpt><trkpt lat="44.0732783" lon="11.9801033"><ele>206.0</ele><time>2026-03-22T11:49:21.98Z</time></trkpt><trkpt lat="44.073335" lon="11.9800433"><ele>206.0</ele><time>2026-03-22T11:49:22.98Z</time></trkpt><trkpt lat="44.0734433" lon="11.979995"><ele>206.00000000000003</ele><time>2026-03-22T11:49:24.98Z</time></trkpt><trkpt lat="44.0735183" lon="11.9799017"><ele>206.0</ele><time>2026-03-22T11:49:26.981Z</time></trkpt><trkpt lat="44.0735483" lon="11.9798217"><ele>206.14285714285714</ele><time>2026-03-22T11:49:27.98Z</time></trkpt><trkpt lat="44.073575" lon="11.97972"><ele>206.28571428571428</ele><time>2026-03-22T11:49:28.98Z</time></trkpt><trkpt lat="44.0735933" lon="11.979625"><ele>206.42857142857144</ele><time>2026-03-22T11:49:29.98Z</time></trkpt><trkpt lat="44.07361" lon="11.9795367"><ele>206.57142857142856</ele><time>2026-03-22T11:49:30.98Z</time></trkpt><trkpt lat="44.073635" lon="11.979455"><ele>206.71428571428572</ele><time>2026-03-22T11:49:31.98Z</time></trkpt><trkpt lat="44.07368" lon="11.9793817"><ele>206.85714285714286</ele><time>2026-03-22T11:49:32.981Z</time></trkpt><trkpt lat="44.0737133" lon="11.9792883"><ele>207.0</ele><time>2026-03-22T11:49:33.98Z</time></trkpt><trkpt lat="44.0737383" lon="11.9792033"><ele>203.39999999999998</ele><time>2026-03-22T11:49:34.98Z</time></trkpt><trkpt lat="44.0737767" lon="11.9790633"><ele>199.79999999999998</ele><time>2026-03-22T11:49:36.98Z</time></trkpt><trkpt lat="44.07385" lon="11.9789817"><ele>196.2</ele><time>2026-03-22T11:49:38.981Z</time></trkpt><trkpt lat="44.0739617" lon="11.9788983"><ele>192.6</ele><time>2026-03-22T11:49:40.98Z</time></trkpt><trkpt lat="44.074025" lon="11.9788617"><ele>189.0</ele><time>2026-03-22T11:49:41.98Z</time></trkpt><trkpt lat="44.0740817" lon="11.97881"><ele>187.0</ele><time>2026-03-22T11:49:42.98Z</time></trkpt><trkpt lat="44.0741633" lon="11.9787117"><ele>185.0</ele><time>2026-03-22T11:49:44.98Z</time></trkpt><trkpt lat="44.07423" lon="11.9786217"><ele>183.0</ele><time>2026-03-22T11:49:46.981Z</time></trkpt><trkpt lat="44.0742867" lon="11.9785617"><ele>181.0</ele><time>2026-03-22T11:49:48.98Z</time></trkpt><trkpt lat="44.0743167" lon="11.97847"><ele>179.0</ele><time>2026-03-22T11:49:51.98Z</time></trkpt><trkpt lat="44.074275" lon="11.97834"><ele>177.0</ele><time>2026-03-22T11:49:54.98Z</time></trkpt><trkpt lat="44.0742083" lon="11.97825"><ele>177.0</ele><time>2026-03-22T11:49:56.98Z</time></trkpt><trkpt lat="44.0741117" lon="11.9781417"><ele>177.0</ele><time>2026-03-22T11:49:58.98Z</time></trkpt><trkpt lat="44.074025" lon="11.9780283"><ele>177.0</ele><time>2026-03-22T11:50:00.981Z</time></trkpt><trkpt lat="44.0739567" lon="11.9778967"><ele>177.0</ele><time>2026-03-22T11:50:02.98Z</time></trkpt><trkpt lat="44.0739" lon="11.97776"><ele>176.66666666666666</ele><time>2026-03-22T11:50:04.98Z</time></trkpt><trkpt lat="44.07386" lon="11.977655"><ele>176.33333333333334</ele><time>2026-03-22T11:50:06.981Z</time></trkpt><trkpt lat="44.07383" lon="11.9775483"><ele>176.0</ele><time>2026-03-22T11:50:08.98Z</time></trkpt><trkpt lat="44.0738433" lon="11.9774417"><ele>175.66666666666669</ele><time>2026-03-22T11:50:10.98Z</time></trkpt><trkpt lat="44.0739067" lon="11.9773517"><ele>175.33333333333334</ele><time>2026-03-22T11:50:12.98Z</time></trkpt><trkpt lat="44.07395" lon="11.9772833"><ele>175.0</ele><time>2026-03-22T11:50:13.981Z</time></trkpt><trkpt lat="44.0739867" lon="11.9772017"><ele>173.66666666666669</ele><time>2026-03-22T11:50:14.98Z</time></trkpt><trkpt lat="44.073995" lon="11.9771133"><ele>172.33333333333334</ele><time>2026-03-22T11:50:15.98Z</time></trkpt><trkpt lat="44.0739967" lon="11.977015"><ele>171.0</ele><time>2026-03-22T11:50:16.98Z</time></trkpt><trkpt lat="44.0739883" lon="11.9769217"><ele>169.66666666666666</ele><time>2026-03-22T11:50:17.981Z</time></trkpt><trkpt lat="44.073975" lon="11.9768267"><ele>168.33333333333331</ele><time>2026-03-22T11:50:18.98Z</time></trkpt><trkpt lat="44.0739483" lon="11.9767233"><ele>167.0</ele><time>2026-03-22T11:50:19.981Z</time></trkpt><trkpt lat="44.073895" lon="11.9765467"><ele>166.42857142857142</ele><time>2026-03-22T11:50:21.98Z</time></trkpt><trkpt lat="44.0738583" lon="11.9764567"><ele>165.85714285714286</ele><time>2026-03-22T11:50:22.98Z</time></trkpt><trkpt lat="44.07382" lon="11.976365"><ele>165.28571428571428</ele><time>2026-03-22T11:50:23.98Z</time></trkpt><trkpt lat="44.0737783" lon="11.9762767"><ele>164.71428571428572</ele><time>2026-03-22T11:50:24.98Z</time></trkpt><trkpt lat="44.0737367" lon="11.976195"><ele>164.14285714285714</ele><time>2026-03-22T11:50:25.98Z</time></trkpt><trkpt lat="44.0736967" lon="11.9761067"><ele>163.57142857142858</ele><time>2026-03-22T11:50:26.98Z</time></trkpt><trkpt lat="44.07366" lon="11.9760217"><ele>163.0</ele><time>2026-03-22T11:50:27.98Z</time></trkpt><trkpt lat="44.073625" lon="11.97594"><ele>163.0</ele><time>2026-03-22T11:50:28.98Z</time></trkpt><trkpt lat="44.0735933" lon="11.97586"><ele>163.0</ele><time>2026-03-22T11:50:29.98Z</time></trkpt><trkpt lat="44.073565" lon="11.9757767"><ele>163.0</ele><time>2026-03-22T11:50:30.98Z</time></trkpt><trkpt lat="44.07353" lon="11.9756933"><ele>163.0</ele><time>2026-03-22T11:50:31.981Z</time></trkpt><trkpt lat="44.0734933" lon="11.9756067"><ele>163.0</ele><time>2026-03-22T11:50:32.98Z</time></trkpt><trkpt lat="44.0734583" lon="11.97552"><ele>163.0</ele><time>2026-03-22T11:50:33.981Z</time></trkpt><trkpt lat="44.0734233" lon="11.9754267"><ele>163.0</ele><time>2026-03-22T11:50:34.98Z</time></trkpt><trkpt lat="44.07339" lon="11.9753333"><ele>162.85714285714286</ele><time>2026-03-22T11:50:35.98Z</time></trkpt><trkpt lat="44.0733567" lon="11.975235"><ele>162.7142857142857</ele><time>2026-03-22T11:50:36.98Z</time></trkpt><trkpt lat="44.0733267" lon="11.97514"><ele>162.57142857142856</ele><time>2026-03-22T11:50:37.98Z</time></trkpt><trkpt lat="44.073305" lon="11.9750483"><ele>162.42857142857144</ele><time>2026-03-22T11:50:38.98Z</time></trkpt><trkpt lat="44.0732783" lon="11.974965"><ele>162.28571428571428</ele><time>2026-03-22T11:50:39.98Z</time></trkpt><trkpt lat="44.0732567" lon="11.9748767"><ele>162.14285714285714</ele><time>2026-03-22T11:50:40.981Z</time></trkpt><trkpt lat="44.0732217" lon="11.9748033"><ele>162.0</ele><time>2026-03-22T11:50:41.981Z</time></trkpt><trkpt lat="44.0731733" lon="11.97473"><ele>162.33333333333334</ele><time>2026-03-22T11:50:42.981Z</time></trkpt><trkpt lat="44.0731133" lon="11.97467"><ele>162.66666666666666</ele><time>2026-03-22T11:50:43.98Z</time></trkpt><trkpt lat="44.07305" lon="11.9746183"><ele>163.0</ele><time>2026-03-22T11:50:44.98Z</time></trkpt><trkpt lat="44.0729733" lon="11.9745783"><ele>163.33333333333331</ele><time>2026-03-22T11:50:45.98Z</time></trkpt><trkpt lat="44.0728983" lon="11.9745417"><ele>163.66666666666666</ele><time>2026-03-22T11:50:46.98Z</time></trkpt><trkpt lat="44.072815" lon="11.9745167"><ele>164.0</ele><time>2026-03-22T11:50:47.98Z</time></trkpt><trkpt lat="44.072725" lon="11.9745067"><ele>164.0</ele><time>2026-03-22T11:50:48.98Z</time></trkpt><trkpt lat="44.07264" lon="11.97451"><ele>164.0</ele><time>2026-03-22T11:50:49.98Z</time></trkpt><trkpt lat="44.0725617" lon="11.9745133"><ele>164.0</ele><time>2026-03-22T11:50:50.981Z</time></trkpt><trkpt lat="44.0724833" lon="11.9745217"><ele>164.0</ele><time>2026-03-22T11:50:51.98Z</time></trkpt><trkpt lat="44.0724067" lon="11.9745233"><ele>164.0</ele><time>2026-03-22T11:50:52.98Z</time></trkpt><trkpt lat="44.0723283" lon="11.9745117"><ele>164.0</ele><time>2026-03-22T11:50:53.98Z</time></trkpt><trkpt lat="44.0722533" lon="11.9745"><ele>165.83333333333331</ele><time>2026-03-22T11:50:54.98Z</time></trkpt><trkpt lat="44.0721817" lon="11.9744817"><ele>167.66666666666666</ele><time>2026-03-22T11:50:55.98Z</time></trkpt><trkpt lat="44.0721083" lon="11.9744617"><ele>169.5</ele><time>2026-03-22T11:50:56.981Z</time></trkpt><trkpt lat="44.0720367" lon="11.974455"><ele>171.33333333333334</ele><time>2026-03-22T11:50:57.98Z</time></trkpt><trkpt lat="44.0719733" lon="11.9744483"><ele>173.16666666666669</ele><time>2026-03-22T11:50:58.981Z</time></trkpt><trkpt lat="44.0718633" lon="11.9744917"><ele>175.0</ele><time>2026-03-22T11:51:00.98Z</time></trkpt><trkpt lat="44.07177" lon="11.9746183"><ele>175.0</ele><time>2026-03-22T11:51:02.981Z</time></trkpt><trkpt lat="44.0717333" lon="11.974705"><ele>175.0</ele><time>2026-03-22T11:51:03.981Z</time></trkpt><trkpt lat="44.0717067" lon="11.9747967"><ele>175.0</ele><time>2026-03-22T11:51:04.98Z</time></trkpt><trkpt lat="44.0716933" lon="11.9749033"><ele>175.0</ele><time>2026-03-22T11:51:05.98Z</time></trkpt><trkpt lat="44.0716933" lon="11.9750167"><ele>175.0</ele><time>2026-03-22T11:51:06.98Z</time></trkpt><trkpt lat="44.0717167" lon="11.975125"><ele>175.0</ele><time>2026-03-22T11:51:07.98Z</time></trkpt><trkpt lat="44.0717533" lon="11.9752183"><ele>177.4</ele><time>2026-03-22T11:51:08.98Z</time></trkpt><trkpt lat="44.0717833" lon="11.9753283"><ele>179.8</ele><time>2026-03-22T11:51:10.98Z</time></trkpt><trkpt lat="44.0717217" lon="11.97539"><ele>182.2</ele><time>2026-03-22T11:51:13.98Z</time></trkpt><trkpt lat="44.0716417" lon="11.9753533"><ele>184.6</ele><time>2026-03-22T11:51:15.98Z</time></trkpt><trkpt lat="44.0715333" lon="11.975265"><ele>187.0</ele><time>2026-03-22T11:51:17.98Z</time></trkpt><trkpt lat="44.07147" lon="11.9751967"><ele>187.28571428571428</ele><time>2026-03-22T11:51:18.98Z</time></trkpt><trkpt lat="44.0714017" lon="11.9751317"><ele>187.57142857142858</ele><time>2026-03-22T11:51:19.98Z</time></trkpt><trkpt lat="44.0713383" lon="11.97507"><ele>187.85714285714286</ele><time>2026-03-22T11:51:20.98Z</time></trkpt><trkpt lat="44.0712883" lon="11.975005"><ele>188.14285714285714</ele><time>2026-03-22T11:51:21.981Z</time></trkpt><trkpt lat="44.071245" lon="11.9749283"><ele>188.42857142857144</ele><time>2026-03-22T11:51:22.98Z</time></trkpt><trkpt lat="44.0712033" lon="11.9748517"><ele>188.71428571428572</ele><time>2026-03-22T11:51:23.98Z</time></trkpt><trkpt lat="44.0711583" lon="11.9747817"><ele>189.0</ele><time>2026-03-22T11:51:24.98Z</time></trkpt><trkpt lat="44.0711033" lon="11.9747267"><ele>189.0</ele><time>2026-03-22T11:51:25.979Z</time></trkpt><trkpt lat="44.0710483" lon="11.97468"><ele>189.0</ele><time>2026-03-22T11:51:26.979Z</time></trkpt><trkpt lat="44.0709783" lon="11.974645"><ele>189.0</ele><time>2026-03-22T11:51:27.98Z</time></trkpt><trkpt lat="44.0709" lon="11.97463"><ele>189.0</ele><time>2026-03-22T11:51:28.979Z</time></trkpt><trkpt lat="44.07082" lon="11.9746133"><ele>189.0</ele><time>2026-03-22T11:51:29.98Z</time></trkpt><trkpt lat="44.070745" lon="11.9746017"><ele>189.0</ele><time>2026-03-22T11:51:30.98Z</time></trkpt><trkpt lat="44.0706767" lon="11.9745967"><ele>189.0</ele><time>2026-03-22T11:51:31.98Z</time></trkpt><trkpt lat="44.0706033" lon="11.9746017"><ele>194.0</ele><time>2026-03-22T11:51:32.98Z</time></trkpt><trkpt lat="44.0705267" lon="11.9746117"><ele>199.0</ele><time>2026-03-22T11:51:33.979Z</time></trkpt><trkpt lat="44.0704483" lon="11.974615"><ele>204.0</ele><time>2026-03-22T11:51:34.979Z</time></trkpt><trkpt lat="44.07037" lon="11.9746067"><ele>209.0</ele><time>2026-03-22T11:51:35.979Z</time></trkpt><trkpt lat="44.0702983" lon="11.974565"><ele>214.0</ele><time>2026-03-22T11:51:36.979Z</time></trkpt><trkpt lat="44.0702283" lon="11.9745"><ele>219.0</ele><time>2026-03-22T11:51:37.98Z</time></trkpt><trkpt lat="44.0701683" lon="11.974425"><ele>219.0</ele><time>2026-03-22T11:51:38.979Z</time></trkpt><trkpt lat="44.070105" lon="11.974355"><ele>219.0</ele><time>2026-03-22T11:51:39.979Z</time></trkpt><trkpt lat="44.0700467" lon="11.9742717"><ele>219.0</ele><time>2026-03-22T11:51:40.979Z</time></trkpt><trkpt lat="44.069985" lon="11.974205"><ele>219.0</ele><time>2026-03-22T11:51:41.979Z</time></trkpt><trkpt lat="44.06992" lon="11.9741467"><ele>219.0</ele><time>2026-03-22T11:51:42.98Z</time></trkpt><trkpt lat="44.0698567" lon="11.9740917"><ele>219.0</ele><time>2026-03-22T11:51:43.979Z</time></trkpt><trkpt lat="44.06979" lon="11.974045"><ele>218.0</ele><time>2026-03-22T11:51:44.979Z</time></trkpt><trkpt lat="44.069735" lon="11.974"><ele>217.0</ele><time>2026-03-22T11:51:45.979Z</time></trkpt><trkpt lat="44.0696467" lon="11.9738883"><ele>216.0</ele><time>2026-03-22T11:51:47.979Z</time></trkpt><trkpt lat="44.0696117" lon="11.9737967"><ele>215.0</ele><time>2026-03-22T11:51:48.98Z</time></trkpt><trkpt lat="44.0695833" lon="11.9736867"><ele>214.0</ele><time>2026-03-22T11:51:49.979Z</time></trkpt><trkpt lat="44.069555" lon="11.9735833"><ele>213.0</ele><time>2026-03-22T11:51:50.979Z</time></trkpt><trkpt lat="44.0695267" lon="11.973495"><ele>213.0</ele><time>2026-03-22T11:51:51.979Z</time></trkpt><trkpt lat="44.0694933" lon="11.9733867"><ele>213.0</ele><time>2026-03-22T11:51:52.98Z</time></trkpt><trkpt lat="44.06945" lon="11.9733"><ele>213.0</ele><time>2026-03-22T11:51:53.979Z</time></trkpt><trkpt lat="44.069405" lon="11.9732017"><ele>213.0</ele><time>2026-03-22T11:51:54.979Z</time></trkpt><trkpt lat="44.0693633" lon="11.9731183"><ele>213.0</ele><time>2026-03-22T11:51:55.979Z</time></trkpt><trkpt lat="44.0693217" lon="11.9730317"><ele>213.0</ele><time>2026-03-22T11:51:56.979Z</time></trkpt><trkpt lat="44.0692817" lon="11.9729533"><ele>209.16666666666666</ele><time>2026-03-22T11:51:57.979Z</time></trkpt><trkpt lat="44.069245" lon="11.972875"><ele>205.33333333333334</ele><time>2026-03-22T11:51:58.979Z</time></trkpt><trkpt lat="44.0692067" lon="11.9728033"><ele>201.5</ele><time>2026-03-22T11:51:59.979Z</time></trkpt><trkpt lat="44.0691717" lon="11.9727267"><ele>197.66666666666669</ele><time>2026-03-22T11:52:00.98Z</time></trkpt><trkpt lat="44.0691383" lon="11.9726517"><ele>193.83333333333334</ele><time>2026-03-22T11:52:01.979Z</time></trkpt><trkpt lat="44.069095" lon="11.9724983"><ele>190.0</ele><time>2026-03-22T11:52:03.979Z</time></trkpt><trkpt lat="44.0691167" lon="11.9723467"><ele>188.16666666666669</ele><time>2026-03-22T11:52:05.979Z</time></trkpt><trkpt lat="44.0692083" lon="11.9722267"><ele>186.33333333333334</ele><time>2026-03-22T11:52:07.979Z</time></trkpt><trkpt lat="44.06927" lon="11.972175"><ele>184.5</ele><time>2026-03-22T11:52:08.979Z</time></trkpt><trkpt lat="44.0693283" lon="11.9721217"><ele>182.66666666666666</ele><time>2026-03-22T11:52:09.979Z</time></trkpt><trkpt lat="44.0694017" lon="11.972035"><ele>180.83333333333331</ele><time>2026-03-22T11:52:11.979Z</time></trkpt><trkpt lat="44.06939" lon="11.9719333"><ele>179.0</ele><time>2026-03-22T11:52:15.979Z</time></trkpt><trkpt lat="44.0693133" lon="11.9718817"><ele>179.0</ele><time>2026-03-22T11:52:17.979Z</time></trkpt><trkpt lat="44.0692433" lon="11.9718583"><ele>179.0</ele><time>2026-03-22T11:52:18.979Z</time></trkpt><trkpt lat="44.0691517" lon="11.97182"><ele>179.0</ele><time>2026-03-22T11:52:19.979Z</time></trkpt><trkpt lat="44.0690383" lon="11.9717467"><ele>179.0</ele><time>2026-03-22T11:52:20.979Z</time></trkpt><trkpt lat="44.068915" lon="11.971645"><ele>179.0</ele><time>2026-03-22T11:52:21.979Z</time></trkpt><trkpt lat="44.068775" lon="11.971515"><ele>181.0</ele><time>2026-03-22T11:52:22.98Z</time></trkpt><trkpt lat="44.0686117" lon="11.97137"><ele>183.0</ele><time>2026-03-22T11:52:23.979Z</time></trkpt><trkpt lat="44.0684433" lon="11.9712317"><ele>185.0</ele><time>2026-03-22T11:52:24.98Z</time></trkpt><trkpt lat="44.06828" lon="11.9711117"><ele>185.66666666666666</ele><time>2026-03-22T11:52:25.98Z</time></trkpt><trkpt lat="44.06812" lon="11.97102"><ele>186.33333333333334</ele><time>2026-03-22T11:52:26.98Z</time></trkpt><trkpt lat="44.0679667" lon="11.9709317"><ele>187.0</ele><time>2026-03-22T11:52:27.979Z</time></trkpt><trkpt lat="44.067815" lon="11.9708483"><ele>187.0</ele><time>2026-03-22T11:52:28.979Z</time></trkpt><trkpt lat="44.067655" lon="11.970765"><ele>187.0</ele><time>2026-03-22T11:52:29.98Z</time></trkpt><trkpt lat="44.067485" lon="11.9706783"><ele>187.0</ele><time>2026-03-22T11:52:30.979Z</time></trkpt><trkpt lat="44.0673217" lon="11.97059"><ele>190.0</ele><time>2026-03-22T11:52:31.979Z</time></trkpt><trkpt lat="44.067175" lon="11.97053"><ele>193.0</ele><time>2026-03-22T11:52:32.979Z</time></trkpt><trkpt lat="44.0670417" lon="11.9704633"><ele>196.0</ele><time>2026-03-22T11:52:33.979Z</time></trkpt><trkpt lat="44.06692" lon="11.9703983"><ele>199.0</ele><time>2026-03-22T11:52:34.979Z</time></trkpt><trkpt lat="44.0668133" lon="11.97034"><ele>199.0</ele><time>2026-03-22T11:52:35.979Z</time></trkpt><trkpt lat="44.066715" lon="11.97028"><ele>199.0</ele><time>2026-03-22T11:52:36.98Z</time></trkpt><trkpt lat="44.0666317" lon="11.9702183"><ele>199.0</ele><time>2026-03-22T11:52:37.98Z</time></trkpt><trkpt lat="44.0665533" lon="11.9701483"><ele>199.0</ele><time>2026-03-22T11:52:38.98Z</time></trkpt><trkpt lat="44.0664783" lon="11.9700583"><ele>199.0</ele><time>2026-03-22T11:52:39.979Z</time></trkpt><trkpt lat="44.0664217" lon="11.969955"><ele>198.25</ele><time>2026-03-22T11:52:40.98Z</time></trkpt><trkpt lat="44.0663617" lon="11.969845"><ele>197.5</ele><time>2026-03-22T11:52:41.979Z</time></trkpt><trkpt lat="44.0662967" lon="11.9697183"><ele>196.75</ele><time>2026-03-22T11:52:42.979Z</time></trkpt><trkpt lat="44.06624" lon="11.96957"><ele>196.0</ele><time>2026-03-22T11:52:43.979Z</time></trkpt><trkpt lat="44.0661767" lon="11.9693833"><ele>193.66666666666666</ele><time>2026-03-22T11:52:44.979Z</time></trkpt><trkpt lat="44.0661033" lon="11.9691633"><ele>191.33333333333331</ele><time>2026-03-22T11:52:45.98Z</time></trkpt><trkpt lat="44.0660267" lon="11.9689567"><ele>189.0</ele><time>2026-03-22T11:52:46.979Z</time></trkpt><trkpt lat="44.0659617" lon="11.968755"><ele>189.0</ele><time>2026-03-22T11:52:47.979Z</time></trkpt><trkpt lat="44.0658983" lon="11.96857"><ele>189.0</ele><time>2026-03-22T11:52:48.979Z</time></trkpt><trkpt lat="44.065835" lon="11.96839"><ele>189.0</ele><time>2026-03-22T11:52:49.979Z</time></trkpt><trkpt lat="44.0657733" lon="11.968215"><ele>189.0</ele><time>2026-03-22T11:52:50.979Z</time></trkpt><trkpt lat="44.065725" lon="11.96806"><ele>188.0</ele><time>2026-03-22T11:52:51.979Z</time></trkpt><trkpt lat="44.065675" lon="11.9679033"><ele>187.0</ele><time>2026-03-22T11:52:52.979Z</time></trkpt><trkpt lat="44.0656283" lon="11.96776"><ele>186.0</ele><time>2026-03-22T11:52:53.979Z</time></trkpt><trkpt lat="44.065585" lon="11.9676233"><ele>185.0</ele><time>2026-03-22T11:52:54.979Z</time></trkpt><trkpt lat="44.06555" lon="11.9674983"><ele>184.0</ele><time>2026-03-22T11:52:55.98Z</time></trkpt><trkpt lat="44.065525" lon="11.967395"><ele>183.16666666666669</ele><time>2026-03-22T11:52:56.979Z</time></trkpt><trkpt lat="44.0654717" lon="11.967255"><ele>182.33333333333334</ele><time>2026-03-22T11:52:58.98Z</time></trkpt><trkpt lat="44.065435" lon="11.967155"><ele>181.5</ele><time>2026-03-22T11:53:00.979Z</time></trkpt><trkpt lat="44.0654117" lon="11.9670683"><ele>180.66666666666666</ele><time>2026-03-22T11:53:04.98Z</time></trkpt><trkpt lat="44.0654683" lon="11.96713"><ele>179.83333333333331</ele><time>2026-03-22T11:53:08.979Z</time></trkpt><trkpt lat="44.0654933" lon="11.967285"><ele>179.0</ele><time>2026-03-22T11:53:10.979Z</time></trkpt><trkpt lat="44.0655133" lon="11.9673867"><ele>180.0</ele><time>2026-03-22T11:53:11.979Z</time></trkpt><trkpt lat="44.06549" lon="11.9675567"><ele>181.0</ele><time>2026-03-22T11:53:13.979Z</time></trkpt><trkpt lat="44.065445" lon="11.9676383"><ele>182.0</ele><time>2026-03-22T11:53:14.979Z</time></trkpt><trkpt lat="44.0654033" lon="11.9677133"><ele>183.0</ele><time>2026-03-22T11:53:15.98Z</time></trkpt><trkpt lat="44.0653317" lon="11.9678517"><ele>184.0</ele><time>2026-03-22T11:53:17.979Z</time></trkpt><trkpt lat="44.0652917" lon="11.9679283"><ele>184.0</ele><time>2026-03-22T11:53:18.98Z</time></trkpt><trkpt lat="44.0652533" lon="11.9680067"><ele>184.0</ele><time>2026-03-22T11:53:19.979Z</time></trkpt><trkpt lat="44.0651683" lon="11.968115"><ele>184.0</ele><time>2026-03-22T11:53:21.979Z</time></trkpt><trkpt lat="44.06504" lon="11.968115"><ele>184.0</ele><time>2026-03-22T11:53:23.979Z</time></trkpt><trkpt lat="44.0649717" lon="11.9681167"><ele>184.0</ele><time>2026-03-22T11:53:24.979Z</time></trkpt><trkpt lat="44.0649033" lon="11.96813"><ele>184.0</ele><time>2026-03-22T11:53:25.979Z</time></trkpt><trkpt lat="44.0648383" lon="11.968165"><ele>183.5</ele><time>2026-03-22T11:53:26.98Z</time></trkpt><trkpt lat="44.0647867" lon="11.968235"><ele>183.0</ele><time>2026-03-22T11:53:27.979Z</time></trkpt><trkpt lat="44.0647283" lon="11.9683433"><ele>182.5</ele><time>2026-03-22T11:53:28.979Z</time></trkpt><trkpt lat="44.0646767" lon="11.9684567"><ele>182.0</ele><time>2026-03-22T11:53:29.979Z</time></trkpt><trkpt lat="44.0646283" lon="11.9685617"><ele>181.5</ele><time>2026-03-22T11:53:30.979Z</time></trkpt><trkpt lat="44.064585" lon="11.968635"><ele>181.0</ele><time>2026-03-22T11:53:31.98Z</time></trkpt><trkpt lat="44.0645517" lon="11.96872"><ele>183.0</ele><time>2026-03-22T11:53:32.979Z</time></trkpt><trkpt lat="44.0645083" lon="11.9688083"><ele>185.0</ele><time>2026-03-22T11:53:33.98Z</time></trkpt><trkpt lat="44.0644567" lon="11.9688967"><ele>187.0</ele><time>2026-03-22T11:53:34.979Z</time></trkpt><trkpt lat="44.064405" lon="11.9689867"><ele>189.0</ele><time>2026-03-22T11:53:35.979Z</time></trkpt><trkpt lat="44.064355" lon="11.9690733"><ele>190.99999999999997</ele><time>2026-03-22T11:53:36.979Z</time></trkpt><trkpt lat="44.0643017" lon="11.9691567"><ele>193.0</ele><time>2026-03-22T11:53:37.979Z</time></trkpt><trkpt lat="44.064245" lon="11.9692333"><ele>196.66666666666666</ele><time>2026-03-22T11:53:38.979Z</time></trkpt><trkpt lat="44.0641833" lon="11.9693083"><ele>200.33333333333331</ele><time>2026-03-22T11:53:39.979Z</time></trkpt><trkpt lat="44.0641217" lon="11.9693783"><ele>204.0</ele><time>2026-03-22T11:53:40.979Z</time></trkpt><trkpt lat="44.0640633" lon="11.9694433"><ele>207.66666666666669</ele><time>2026-03-22T11:53:41.979Z</time></trkpt><trkpt lat="44.0639883" lon="11.9694933"><ele>211.33333333333334</ele><time>2026-03-22T11:53:42.98Z</time></trkpt><trkpt lat="44.06391" lon="11.969545"><ele>215.0</ele><time>2026-03-22T11:53:43.979Z</time></trkpt><trkpt lat="44.0638317" lon="11.9695867"><ele>216.00000000000003</ele><time>2026-03-22T11:53:44.979Z</time></trkpt><trkpt lat="44.0637483" lon="11.969625"><ele>217.0</ele><time>2026-03-22T11:53:45.979Z</time></trkpt><trkpt lat="44.063665" lon="11.9696617"><ele>218.0</ele><time>2026-03-22T11:53:46.979Z</time></trkpt><trkpt lat="44.0635917" lon="11.9697017"><ele>219.0</ele><time>2026-03-22T11:53:47.98Z</time></trkpt><trkpt lat="44.063525" lon="11.969745"><ele>220.00000000000003</ele><time>2026-03-22T11:53:48.979Z</time></trkpt><trkpt lat="44.0634483" lon="11.9697883"><ele>221.0</ele><time>2026-03-22T11:53:49.979Z</time></trkpt><trkpt lat="44.0633717" lon="11.9698367"><ele>221.00000000000003</ele><time>2026-03-22T11:53:50.98Z</time></trkpt><trkpt lat="44.0632967" lon="11.96988"><ele>221.0</ele><time>2026-03-22T11:53:51.98Z</time></trkpt><trkpt lat="44.06322" lon="11.969915"><ele>221.0</ele><time>2026-03-22T11:53:52.979Z</time></trkpt><trkpt lat="44.0631383" lon="11.9699383"><ele>221.0</ele><time>2026-03-22T11:53:53.98Z</time></trkpt><trkpt lat="44.063055" lon="11.969965"><ele>221.00000000000003</ele><time>2026-03-22T11:53:54.979Z</time></trkpt><trkpt lat="44.0629833" lon="11.9699917"><ele>221.0</ele><time>2026-03-22T11:53:55.979Z</time></trkpt><trkpt lat="44.0629183" lon="11.97001"><ele>220.50000000000003</ele><time>2026-03-22T11:53:56.979Z</time></trkpt><trkpt lat="44.0628" lon="11.97003"><ele>220.0</ele><time>2026-03-22T11:53:58.979Z</time></trkpt><trkpt lat="44.06273" lon="11.97003"><ele>219.5</ele><time>2026-03-22T11:53:59.98Z</time></trkpt><trkpt lat="44.0626533" lon="11.9700233"><ele>219.0</ele><time>2026-03-22T11:54:00.979Z</time></trkpt><trkpt lat="44.06257" lon="11.9700183"><ele>218.50000000000003</ele><time>2026-03-22T11:54:01.979Z</time></trkpt><trkpt lat="44.0624883" lon="11.9700067"><ele>218.0</ele><time>2026-03-22T11:54:02.979Z</time></trkpt><trkpt lat="44.062415" lon="11.969995"><ele>219.16666666666669</ele><time>2026-03-22T11:54:03.979Z</time></trkpt><trkpt lat="44.0623517" lon="11.9699767"><ele>220.33333333333334</ele><time>2026-03-22T11:54:04.979Z</time></trkpt><trkpt lat="44.0622833" lon="11.9699733"><ele>221.5</ele><time>2026-03-22T11:54:05.98Z</time></trkpt><trkpt lat="44.062215" lon="11.969975"><ele>222.66666666666669</ele><time>2026-03-22T11:54:06.979Z</time></trkpt><trkpt lat="44.0621017" lon="11.9700133"><ele>223.83333333333334</ele><time>2026-03-22T11:54:08.98Z</time></trkpt><trkpt lat="44.0620433" lon="11.9700667"><ele>225.0</ele><time>2026-03-22T11:54:09.979Z</time></trkpt><trkpt lat="44.06197" lon="11.9701383"><ele>228.2</ele><time>2026-03-22T11:54:10.979Z</time></trkpt><trkpt lat="44.0618933" lon="11.9702267"><ele>231.4</ele><time>2026-03-22T11:54:11.979Z</time></trkpt><trkpt lat="44.0618167" lon="11.9703117"><ele>234.60000000000002</ele><time>2026-03-22T11:54:12.979Z</time></trkpt><trkpt lat="44.0617483" lon="11.97039"><ele>237.8</ele><time>2026-03-22T11:54:13.979Z</time></trkpt><trkpt lat="44.061675" lon="11.9704667"><ele>241.0</ele><time>2026-03-22T11:54:14.979Z</time></trkpt><trkpt lat="44.061615" lon="11.9705483"><ele>242.20000000000002</ele><time>2026-03-22T11:54:15.979Z</time></trkpt><trkpt lat="44.06157" lon="11.9706217"><ele>243.40000000000003</ele><time>2026-03-22T11:54:16.979Z</time></trkpt><trkpt lat="44.0615" lon="11.9707567"><ele>244.6</ele><time>2026-03-22T11:54:18.979Z</time></trkpt><trkpt lat="44.0614" lon="11.970815"><ele>245.8</ele><time>2026-03-22T11:54:20.98Z</time></trkpt><trkpt lat="44.0613283" lon="11.9707733"><ele>247.0</ele><time>2026-03-22T11:54:23.979Z</time></trkpt><trkpt lat="44.061345" lon="11.970635"><ele>247.0</ele><time>2026-03-22T11:54:26.979Z</time></trkpt><trkpt lat="44.06136" lon="11.970485"><ele>247.0</ele><time>2026-03-22T11:54:28.98Z</time></trkpt><trkpt lat="44.0613683" lon="11.97038"><ele>247.0</ele><time>2026-03-22T11:54:29.979Z</time></trkpt><trkpt lat="44.0613617" lon="11.9702717"><ele>247.0</ele><time>2026-03-22T11:54:30.979Z</time></trkpt><trkpt lat="44.06136" lon="11.970115"><ele>247.0</ele><time>2026-03-22T11:54:32.979Z</time></trkpt><trkpt lat="44.0613083" lon="11.969985"><ele>246.16666666666666</ele><time>2026-03-22T11:54:34.979Z</time></trkpt><trkpt lat="44.06126" lon="11.9699267"><ele>245.33333333333331</ele><time>2026-03-22T11:54:35.979Z</time></trkpt><trkpt lat="44.061195" lon="11.9698833"><ele>244.5</ele><time>2026-03-22T11:54:36.98Z</time></trkpt><trkpt lat="44.0611317" lon="11.9698533"><ele>243.66666666666669</ele><time>2026-03-22T11:54:37.98Z</time></trkpt><trkpt lat="44.0610233" lon="11.969825"><ele>242.83333333333334</ele><time>2026-03-22T11:54:39.979Z</time></trkpt><trkpt lat="44.0609283" lon="11.969855"><ele>242.0</ele><time>2026-03-22T11:54:41.98Z</time></trkpt><trkpt lat="44.06087" lon="11.969905"><ele>242.00000000000003</ele><time>2026-03-22T11:54:43.979Z</time></trkpt><trkpt lat="44.0608033" lon="11.9699483"><ele>242.0</ele><time>2026-03-22T11:54:45.979Z</time></trkpt><trkpt lat="44.0607117" lon="11.9700017"><ele>242.0</ele><time>2026-03-22T11:54:47.979Z</time></trkpt><trkpt lat="44.0606333" lon="11.9700417"><ele>242.0</ele><time>2026-03-22T11:54:49.979Z</time></trkpt><trkpt lat="44.0605717" lon="11.9700983"><ele>242.00000000000003</ele><time>2026-03-22T11:55:03.979Z</time></trkpt><trkpt lat="44.06064" lon="11.9700333"><ele>242.0</ele><time>2026-03-22T11:55:05.98Z</time></trkpt><trkpt lat="44.060745" lon="11.9699467"><ele>242.00000000000003</ele><time>2026-03-22T11:55:07.979Z</time></trkpt><trkpt lat="44.06084" lon="11.9698983"><ele>242.0</ele><time>2026-03-22T11:55:09.98Z</time></trkpt><trkpt lat="44.0608983" lon="11.96986"><ele>242.0</ele><time>2026-03-22T11:55:11.98Z</time></trkpt><trkpt lat="44.0609717" lon="11.9698467"><ele>242.0</ele><time>2026-03-22T11:55:15.979Z</time></trkpt><trkpt lat="44.061035" lon="11.969965"><ele>242.00000000000003</ele><time>2026-03-22T11:55:20.979Z</time></trkpt><trkpt lat="44.06106" lon="11.9700517"><ele>242.0</ele><time>2026-03-22T11:55:22.979Z</time></trkpt><trkpt lat="44.0610117" lon="11.9701583"><ele>242.83333333333334</ele><time>2026-03-22T11:55:25.979Z</time></trkpt><trkpt lat="44.060905" lon="11.9702367"><ele>243.66666666666669</ele><time>2026-03-22T11:55:27.979Z</time></trkpt><trkpt lat="44.060845" lon="11.9702867"><ele>244.5</ele><time>2026-03-22T11:55:28.979Z</time></trkpt><trkpt lat="44.0607967" lon="11.9703467"><ele>245.33333333333331</ele><time>2026-03-22T11:55:29.979Z</time></trkpt><trkpt lat="44.0607467" lon="11.9704183"><ele>246.16666666666666</ele><time>2026-03-22T11:55:30.98Z</time></trkpt><trkpt lat="44.060705" lon="11.9704933"><ele>247.0</ele><time>2026-03-22T11:55:31.979Z</time></trkpt><trkpt lat="44.060655" lon="11.970565"><ele>249.83333333333331</ele><time>2026-03-22T11:55:32.979Z</time></trkpt><trkpt lat="44.0606" lon="11.9706267"><ele>252.66666666666666</ele><time>2026-03-22T11:55:33.979Z</time></trkpt><trkpt lat="44.060545" lon="11.9706867"><ele>255.5</ele><time>2026-03-22T11:55:34.98Z</time></trkpt><trkpt lat="44.060445" lon="11.9707717"><ele>258.3333333333333</ele><time>2026-03-22T11:55:36.978Z</time></trkpt><trkpt lat="44.0603733" lon="11.9708067"><ele>261.1666666666667</ele><time>2026-03-22T11:55:37.978Z</time></trkpt><trkpt lat="44.06031" lon="11.9708167"><ele>264.0</ele><time>2026-03-22T11:55:38.978Z</time></trkpt><trkpt lat="44.0602467" lon="11.97083"><ele>264.0</ele><time>2026-03-22T11:55:39.978Z</time></trkpt><trkpt lat="44.06016" lon="11.97084"><ele>264.0</ele><time>2026-03-22T11:55:41.978Z</time></trkpt><trkpt lat="44.0600767" lon="11.9709233"><ele>264.0</ele><time>2026-03-22T11:55:44.979Z</time></trkpt><trkpt lat="44.0600033" lon="11.9710483"><ele>264.0</ele><time>2026-03-22T11:55:46.979Z</time></trkpt><trkpt lat="44.0599683" lon="11.9711317"><ele>264.0</ele><time>2026-03-22T11:55:47.978Z</time></trkpt><trkpt lat="44.0599383" lon="11.971215"><ele>264.0</ele><time>2026-03-22T11:55:48.979Z</time></trkpt><trkpt lat="44.0599" lon="11.9712917"><ele>267.3333333333333</ele><time>2026-03-22T11:55:49.978Z</time></trkpt><trkpt lat="44.0598567" lon="11.9713633"><ele>270.6666666666667</ele><time>2026-03-22T11:55:50.979Z</time></trkpt><trkpt lat="44.0597683" lon="11.9714383"><ele>274.0</ele><time>2026-03-22T11:55:52.978Z</time></trkpt><trkpt lat="44.0597017" lon="11.97148"><ele>277.33333333333337</ele><time>2026-03-22T11:55:54.978Z</time></trkpt><trkpt lat="44.0596217" lon="11.97152"><ele>280.6666666666667</ele><time>2026-03-22T11:55:56.978Z</time></trkpt><trkpt lat="44.0595283" lon="11.9715583"><ele>284.0</ele><time>2026-03-22T11:55:58.978Z</time></trkpt><trkpt lat="44.0594067" lon="11.9716133"><ele>284.0</ele><time>2026-03-22T11:56:00.979Z</time></trkpt><trkpt lat="44.0593417" lon="11.9716667"><ele>284.0</ele><time>2026-03-22T11:56:01.979Z</time></trkpt><trkpt lat="44.059275" lon="11.97171"><ele>284.0</ele><time>2026-03-22T11:56:02.978Z</time></trkpt><trkpt lat="44.0592" lon="11.9717567"><ele>284.0</ele><time>2026-03-22T11:56:03.978Z</time></trkpt><trkpt lat="44.0591317" lon="11.9718067"><ele>284.0</ele><time>2026-03-22T11:56:04.978Z</time></trkpt><trkpt lat="44.05906" lon="11.9718517"><ele>284.0</ele><time>2026-03-22T11:56:05.978Z</time></trkpt><trkpt lat="44.0589983" lon="11.97189"><ele>288.83333333333337</ele><time>2026-03-22T11:56:06.978Z</time></trkpt><trkpt lat="44.0589367" lon="11.9719317"><ele>293.6666666666667</ele><time>2026-03-22T11:56:07.979Z</time></trkpt><trkpt lat="44.0588683" lon="11.9719733"><ele>298.5</ele><time>2026-03-22T11:56:08.978Z</time></trkpt><trkpt lat="44.058805" lon="11.972005"><ele>303.3333333333333</ele><time>2026-03-22T11:56:09.978Z</time></trkpt><trkpt lat="44.0587433" lon="11.9720383"><ele>308.16666666666663</ele><time>2026-03-22T11:56:10.978Z</time></trkpt><trkpt lat="44.0586417" lon="11.9720733"><ele>313.0</ele><time>2026-03-22T11:56:12.979Z</time></trkpt><trkpt lat="44.0585367" lon="11.972095"><ele>313.0</ele><time>2026-03-22T11:56:15.978Z</time></trkpt><trkpt lat="44.058445" lon="11.972115"><ele>313.0</ele><time>2026-03-22T11:56:17.978Z</time></trkpt><trkpt lat="44.05836" lon="11.972175"><ele>313.0</ele><time>2026-03-22T11:56:19.979Z</time></trkpt><trkpt lat="44.0582933" lon="11.972215"><ele>313.0</ele><time>2026-03-22T11:56:20.979Z</time></trkpt><trkpt lat="44.0582183" lon="11.9722683"><ele>313.0</ele><time>2026-03-22T11:56:21.979Z</time></trkpt><trkpt lat="44.0581533" lon="11.972325"><ele>313.0</ele><time>2026-03-22T11:56:22.979Z</time></trkpt><trkpt lat="44.0580917" lon="11.9723783"><ele>316.0</ele><time>2026-03-22T11:56:23.978Z</time></trkpt><trkpt lat="44.0580383" lon="11.97243"><ele>319.0</ele><time>2026-03-22T11:56:24.978Z</time></trkpt><trkpt lat="44.0579883" lon="11.972495"><ele>322.0</ele><time>2026-03-22T11:56:26.979Z</time></trkpt><trkpt lat="44.0579167" lon="11.972415"><ele>325.0</ele><time>2026-03-22T11:57:09.979Z</time></trkpt><trkpt lat="44.0578317" lon="11.9723733"><ele>328.0</ele><time>2026-03-22T11:57:11.979Z</time></trkpt><trkpt lat="44.0577517" lon="11.97239"><ele>331.0</ele><time>2026-03-22T11:57:13.979Z</time></trkpt><trkpt lat="44.0576867" lon="11.97241"><ele>331.0</ele><time>2026-03-22T11:57:15.978Z</time></trkpt><trkpt lat="44.0576217" lon="11.9724567"><ele>331.0</ele><time>2026-03-22T11:57:17.978Z</time></trkpt><trkpt lat="44.0575667" lon="11.9725333"><ele>331.0</ele><time>2026-03-22T11:57:19.978Z</time></trkpt><trkpt lat="44.05752" lon="11.9726283"><ele>331.0</ele><time>2026-03-22T11:57:21.978Z</time></trkpt><trkpt lat="44.0574883" lon="11.9727217"><ele>331.0</ele><time>2026-03-22T11:57:23.978Z</time></trkpt><trkpt lat="44.0574483" lon="11.9728283"><ele>331.0</ele><time>2026-03-22T11:57:25.978Z</time></trkpt><trkpt lat="44.0574" lon="11.9729267"><ele>334.4</ele><time>2026-03-22T11:57:27.978Z</time></trkpt><trkpt lat="44.0573383" lon="11.9730267"><ele>337.8</ele><time>2026-03-22T11:57:29.978Z</time></trkpt><trkpt lat="44.0572883" lon="11.973095"><ele>341.2</ele><time>2026-03-22T11:57:30.979Z</time></trkpt><trkpt lat="44.0572417" lon="11.9731567"><ele>344.59999999999997</ele><time>2026-03-22T11:57:31.978Z</time></trkpt><trkpt lat="44.0571517" lon="11.9732517"><ele>348.0</ele><time>2026-03-22T11:57:33.978Z</time></trkpt><trkpt lat="44.0570667" lon="11.9733467"><ele>350.3333333333333</ele><time>2026-03-22T11:57:35.978Z</time></trkpt><trkpt lat="44.0569883" lon="11.9734533"><ele>352.6666666666667</ele><time>2026-03-22T11:57:37.978Z</time></trkpt><trkpt lat="44.0569333" lon="11.97355"><ele>355.0</ele><time>2026-03-22T11:57:39.978Z</time></trkpt><trkpt lat="44.056885" lon="11.973655"><ele>357.33333333333337</ele><time>2026-03-22T11:57:42.978Z</time></trkpt><trkpt lat="44.0568283" lon="11.9737483"><ele>359.6666666666667</ele><time>2026-03-22T11:57:44.979Z</time></trkpt><trkpt lat="44.0567867" lon="11.9738217"><ele>362.0</ele><time>2026-03-22T11:57:46.978Z</time></trkpt><trkpt lat="44.0567367" lon="11.9738767"><ele>362.0</ele><time>2026-03-22T11:57:48.978Z</time></trkpt><trkpt lat="44.056675" lon="11.9739167"><ele>362.0</ele><time>2026-03-22T11:57:50.978Z</time></trkpt><trkpt lat="44.0565867" lon="11.9739783"><ele>362.0</ele><time>2026-03-22T11:57:52.979Z</time></trkpt><trkpt lat="44.0565033" lon="11.9740583"><ele>362.0</ele><time>2026-03-22T11:57:54.978Z</time></trkpt><trkpt lat="44.0564433" lon="11.9741417"><ele>362.0</ele><time>2026-03-22T11:57:56.978Z</time></trkpt><trkpt lat="44.0563833" lon="11.9742467"><ele>362.0</ele><time>2026-03-22T11:57:58.978Z</time></trkpt><trkpt lat="44.0563533" lon="11.9743333"><ele>367.40000000000003</ele><time>2026-03-22T11:58:00.978Z</time></trkpt><trkpt lat="44.05632" lon="11.9744617"><ele>372.8</ele><time>2026-03-22T11:58:02.978Z</time></trkpt><trkpt lat="44.05626" lon="11.9745783"><ele>378.2</ele><time>2026-03-22T11:58:04.978Z</time></trkpt><trkpt lat="44.056175" lon="11.9746217"><ele>383.6</ele><time>2026-03-22T11:58:06.979Z</time></trkpt><trkpt lat="44.0560733" lon="11.97465"><ele>389.0</ele><time>2026-03-22T11:58:08.978Z</time></trkpt><trkpt lat="44.0559467" lon="11.9746467"><ele>389.0</ele><time>2026-03-22T11:58:10.978Z</time></trkpt><trkpt lat="44.0558767" lon="11.9746367"><ele>389.0</ele><time>2026-03-22T11:58:11.979Z</time></trkpt><trkpt lat="44.055775" lon="11.974615"><ele>389.0</ele><time>2026-03-22T11:58:13.978Z</time></trkpt><trkpt lat="44.0556883" lon="11.9746067"><ele>389.0</ele><time>2026-03-22T11:58:15.978Z</time></trkpt><trkpt lat="44.0555817" lon="11.9746"><ele>389.0</ele><time>2026-03-22T11:58:17.979Z</time></trkpt><trkpt lat="44.0554933" lon="11.9746067"><ele>393.0</ele><time>2026-03-22T11:58:19.978Z</time></trkpt><trkpt lat="44.0554217" lon="11.97462"><ele>397.0</ele><time>2026-03-22T11:58:21.978Z</time></trkpt><trkpt lat="44.055365" lon="11.97466"><ele>401.0</ele><time>2026-03-22T11:58:24.979Z</time></trkpt><trkpt lat="44.05541" lon="11.974895"><ele>405.0</ele><time>2026-03-22T12:16:50.86Z</time></trkpt><trkpt lat="44.0552833" lon="11.97493"><ele>409.0</ele><time>2026-03-22T12:16:51.86Z</time></trkpt><trkpt lat="44.055275" lon="11.97484"><ele>409.00000000000006</ele><time>2026-03-22T12:16:52.861Z</time></trkpt><trkpt lat="44.0553267" lon="11.97477"><ele>409.0</ele><time>2026-03-22T12:18:26.231Z</time></trkpt><trkpt lat="44.0553083" lon="11.9746767"><ele>409.0</ele><time>2026-03-22T12:18:30.23Z</time></trkpt><trkpt lat="44.0554017" lon="11.9746083"><ele>409.0</ele><time>2026-03-22T12:19:04.992Z</time></trkpt><trkpt lat="44.055465" lon="11.974605"><ele>409.00000000000006</ele><time>2026-03-22T12:19:06.992Z</time></trkpt><trkpt lat="44.05555" lon="11.9746"><ele>409.0</ele><time>2026-03-22T12:19:09.992Z</time></trkpt><trkpt lat="44.0556133" lon="11.9745967"><ele>409.00000000000006</ele><time>2026-03-22T12:19:11.992Z</time></trkpt><trkpt lat="44.0556917" lon="11.97459"><ele>409.0</ele><time>2026-03-22T12:19:13.992Z</time></trkpt><trkpt lat="44.0557567" lon="11.9746067"><ele>409.0</ele><time>2026-03-22T12:19:15.992Z</time></trkpt><trkpt lat="44.055845" lon="11.9746333"><ele>409.0</ele><time>2026-03-22T12:19:18.992Z</time></trkpt><trkpt lat="44.055915" lon="11.9746433"><ele>409.00000000000006</ele><time>2026-03-22T12:19:20.993Z</time></trkpt><trkpt lat="44.0559833" lon="11.9746717"><ele>409.0</ele><time>2026-03-22T12:19:23.992Z</time></trkpt><trkpt lat="44.0559867" lon="11.9747733"><ele>409.6666666666667</ele><time>2026-03-22T12:19:28.992Z</time></trkpt><trkpt lat="44.0559617" lon="11.9748933"><ele>410.33333333333337</ele><time>2026-03-22T12:20:04.992Z</time></trkpt><trkpt lat="44.0559267" lon="11.9749667"><ele>411.0</ele><time>2026-03-22T12:20:06.992Z</time></trkpt><trkpt lat="44.0558767" lon="11.9750667"><ele>411.66666666666663</ele><time>2026-03-22T12:20:09.992Z</time></trkpt><trkpt lat="44.0558367" lon="11.9751583"><ele>412.3333333333333</ele><time>2026-03-22T12:20:13.992Z</time></trkpt><trkpt lat="44.055785" lon="11.9752583"><ele>413.0</ele><time>2026-03-22T12:20:16.993Z</time></trkpt><trkpt lat="44.0557367" lon="11.9753383"><ele>412.99999999999994</ele><time>2026-03-22T12:20:18.992Z</time></trkpt><trkpt lat="44.0556767" lon="11.9754"><ele>413.0</ele><time>2026-03-22T12:20:20.993Z</time></trkpt><trkpt lat="44.0556083" lon="11.9754533"><ele>413.0</ele><time>2026-03-22T12:20:22.992Z</time></trkpt><trkpt lat="44.0555317" lon="11.9754983"><ele>413.0</ele><time>2026-03-22T12:20:24.992Z</time></trkpt><trkpt lat="44.0554667" lon="11.9755417"><ele>412.99999999999994</ele><time>2026-03-22T12:20:28.992Z</time></trkpt><trkpt lat="44.055395" lon="11.9755967"><ele>413.0</ele><time>2026-03-22T12:20:32.992Z</time></trkpt><trkpt lat="44.0553317" lon="11.9756817"><ele>412.99999999999994</ele><time>2026-03-22T12:20:35.992Z</time></trkpt><trkpt lat="44.0552917" lon="11.9757933"><ele>413.0</ele><time>2026-03-22T12:20:38.993Z</time></trkpt><trkpt lat="44.0552417" lon="11.9758867"><ele>413.0</ele><time>2026-03-22T12:20:41.992Z</time></trkpt><trkpt lat="44.0551867" lon="11.9759917"><ele>413.0</ele><time>2026-03-22T12:20:44.993Z</time></trkpt><trkpt lat="44.055145" lon="11.9761033"><ele>412.99999999999994</ele><time>2026-03-22T12:20:47.992Z</time></trkpt><trkpt lat="44.05514" lon="11.976215"><ele>413.0</ele><time>2026-03-22T12:20:50.992Z</time></trkpt><trkpt lat="44.0551617" lon="11.976085"><ele>413.0</ele><time>2026-03-22T12:21:39.992Z</time></trkpt><trkpt lat="44.0552033" lon="11.975975"><ele>413.0</ele><time>2026-03-22T12:21:42.992Z</time></trkpt><trkpt lat="44.0552383" lon="11.9758983"><ele>413.0</ele><time>2026-03-22T12:21:44.992Z</time></trkpt><trkpt lat="44.0552867" lon="11.97581"><ele>413.0</ele><time>2026-03-22T12:21:47.992Z</time></trkpt><trkpt lat="44.0553183" lon="11.9757333"><ele>413.0</ele><time>2026-03-22T12:21:51.992Z</time></trkpt><trkpt lat="44.05537" lon="11.9756367"><ele>413.0</ele><time>2026-03-22T12:22:23.992Z</time></trkpt><trkpt lat="44.0554233" lon="11.97559"><ele>413.0</ele><time>2026-03-22T12:22:25.991Z</time></trkpt><trkpt lat="44.0554983" lon="11.975545"><ele>412.99999999999994</ele><time>2026-03-22T12:22:28.991Z</time></trkpt><trkpt lat="44.0555567" lon="11.9755017"><ele>413.0</ele><time>2026-03-22T12:22:30.992Z</time></trkpt><trkpt lat="44.0556467" lon="11.9754383"><ele>413.0</ele><time>2026-03-22T12:22:32.992Z</time></trkpt><trkpt lat="44.0557217" lon="11.9753717"><ele>413.0</ele><time>2026-03-22T12:22:34.991Z</time></trkpt><trkpt lat="44.05578" lon="11.9752883"><ele>412.99999999999994</ele><time>2026-03-22T12:22:36.991Z</time></trkpt><trkpt lat="44.0558267" lon="11.97518"><ele>413.0</ele><time>2026-03-22T12:22:38.991Z</time></trkpt><trkpt lat="44.0558717" lon="11.9750733"><ele>408.99999999999994</ele><time>2026-03-22T12:22:40.991Z</time></trkpt><trkpt lat="44.0559317" lon="11.9749433"><ele>405.0</ele><time>2026-03-22T12:22:42.991Z</time></trkpt><trkpt lat="44.055985" lon="11.9748433"><ele>401.0</ele><time>2026-03-22T12:22:44.991Z</time></trkpt><trkpt lat="44.0559733" lon="11.9747567"><ele>397.0</ele><time>2026-03-22T12:23:11.991Z</time></trkpt><trkpt lat="44.0559083" lon="11.9747867"><ele>392.99999999999994</ele><time>2026-03-22T12:23:18.991Z</time></trkpt><trkpt lat="44.0558333" lon="11.9747867"><ele>389.0</ele><time>2026-03-22T12:23:22.991Z</time></trkpt><trkpt lat="44.0558233" lon="11.97507"><ele>385.0</ele><time>2026-03-22T12:39:40.578Z</time></trkpt><trkpt lat="44.0558083" lon="11.9749667"><ele>389.0</ele><time>2026-03-22T12:39:41.578Z</time></trkpt><trkpt lat="44.0556917" lon="11.9748783"><ele>409.0</ele><time>2026-03-22T12:44:35.859Z</time></trkpt></trkseg><trkseg><trkpt lat="44.05633" lon="11.9745467"><ele>389.0</ele><time>2026-03-22T13:01:26.911Z</time></trkpt><trkpt lat="44.0563767" lon="11.974485"><ele>389.0</ele><time>2026-03-22T13:01:37.991Z</time></trkpt><trkpt lat="44.0563833" lon="11.9743567"><ele>389.0</ele><time>2026-03-22T13:01:42.991Z</time></trkpt><trkpt lat="44.0564" lon="11.9742717"><ele>389.0</ele><time>2026-03-22T13:01:44.991Z</time></trkpt><trkpt lat="44.0564433" lon="11.9741883"><ele>389.0</ele><time>2026-03-22T13:01:47.991Z</time></trkpt><trkpt lat="44.0564917" lon="11.97411"><ele>389.0</ele><time>2026-03-22T13:01:50.991Z</time></trkpt><trkpt lat="44.0565517" lon="11.9740417"><ele>389.0</ele><time>2026-03-22T13:01:53.991Z</time></trkpt><trkpt lat="44.0566217" lon="11.97397"><ele>384.49999999999994</ele><time>2026-03-22T13:01:56.992Z</time></trkpt><trkpt lat="44.0566883" lon="11.9739467"><ele>380.0</ele><time>2026-03-22T13:01:58.992Z</time></trkpt><trkpt lat="44.0567633" lon="11.9739083"><ele>375.5</ele><time>2026-03-22T13:02:00.991Z</time></trkpt><trkpt lat="44.0568133" lon="11.9738317"><ele>371.0</ele><time>2026-03-22T13:02:02.991Z</time></trkpt><trkpt lat="44.0568583" lon="11.9737517"><ele>366.5</ele><time>2026-03-22T13:02:04.992Z</time></trkpt><trkpt lat="44.0569133" lon="11.9736617"><ele>362.0</ele><time>2026-03-22T13:02:06.991Z</time></trkpt><trkpt lat="44.056955" lon="11.973575"><ele>362.0</ele><time>2026-03-22T13:02:08.991Z</time></trkpt><trkpt lat="44.0570033" lon="11.9734617"><ele>362.0</ele><time>2026-03-22T13:02:10.992Z</time></trkpt><trkpt lat="44.05706" lon="11.9733583"><ele>362.0</ele><time>2026-03-22T13:02:12.992Z</time></trkpt><trkpt lat="44.0571217" lon="11.973275"><ele>362.0</ele><time>2026-03-22T13:02:14.991Z</time></trkpt><trkpt lat="44.0571833" lon="11.9732133"><ele>362.0</ele><time>2026-03-22T13:02:16.992Z</time></trkpt><trkpt lat="44.05724" lon="11.973145"><ele>362.0</ele><time>2026-03-22T13:02:18.992Z</time></trkpt><trkpt lat="44.0573033" lon="11.973065"><ele>360.0</ele><time>2026-03-22T13:02:20.992Z</time></trkpt><trkpt lat="44.0573567" lon="11.9729917"><ele>358.0</ele><time>2026-03-22T13:02:22.991Z</time></trkpt><trkpt lat="44.0574" lon="11.972925"><ele>356.0</ele><time>2026-03-22T13:02:24.991Z</time></trkpt><trkpt lat="44.0574333" lon="11.9728467"><ele>354.0</ele><time>2026-03-22T13:02:26.991Z</time></trkpt><trkpt lat="44.0574667" lon="11.9727633"><ele>352.0</ele><time>2026-03-22T13:02:28.991Z</time></trkpt><trkpt lat="44.0575017" lon="11.972665"><ele>350.0</ele><time>2026-03-22T13:02:30.991Z</time></trkpt><trkpt lat="44.0575283" lon="11.9725833"><ele>348.0</ele><time>2026-03-22T13:02:32.991Z</time></trkpt><trkpt lat="44.0575783" lon="11.9724967"><ele>346.1428571428571</ele><time>2026-03-22T13:02:35.991Z</time></trkpt><trkpt lat="44.0576483" lon="11.9724383"><ele>344.2857142857143</ele><time>2026-03-22T13:02:38.991Z</time></trkpt><trkpt lat="44.0577233" lon="11.9724"><ele>342.42857142857144</ele><time>2026-03-22T13:02:41.991Z</time></trkpt><trkpt lat="44.057785" lon="11.97237"><ele>340.57142857142856</ele><time>2026-03-22T13:02:43.991Z</time></trkpt><trkpt lat="44.0578517" lon="11.9723917"><ele>338.7142857142857</ele><time>2026-03-22T13:02:45.991Z</time></trkpt><trkpt lat="44.0579067" lon="11.9724567"><ele>336.85714285714283</ele><time>2026-03-22T13:02:47.991Z</time></trkpt><trkpt lat="44.057935" lon="11.97254"><ele>335.0</ele><time>2026-03-22T13:02:49.992Z</time></trkpt><trkpt lat="44.05801" lon="11.972505"><ele>334.33333333333337</ele><time>2026-03-22T13:02:54.992Z</time></trkpt><trkpt lat="44.0580583" lon="11.9724133"><ele>333.6666666666667</ele><time>2026-03-22T13:02:56.991Z</time></trkpt><trkpt lat="44.0581383" lon="11.972345"><ele>333.0</ele><time>2026-03-22T13:03:00.991Z</time></trkpt><trkpt lat="44.0582133" lon="11.9722917"><ele>332.3333333333333</ele><time>2026-03-22T13:03:02.992Z</time></trkpt><trkpt lat="44.0582883" lon="11.97224"><ele>331.66666666666663</ele><time>2026-03-22T13:03:04.992Z</time></trkpt><trkpt lat="44.0583617" lon="11.9721883"><ele>331.0</ele><time>2026-03-22T13:03:06.992Z</time></trkpt><trkpt lat="44.05842" lon="11.972155"><ele>328.0</ele><time>2026-03-22T13:03:08.992Z</time></trkpt><trkpt lat="44.0585033" lon="11.9721317"><ele>325.0</ele><time>2026-03-22T13:03:11.991Z</time></trkpt><trkpt lat="44.0585667" lon="11.972125"><ele>322.0</ele><time>2026-03-22T13:03:13.991Z</time></trkpt><trkpt lat="44.05866" lon="11.9721117"><ele>319.0</ele><time>2026-03-22T13:03:16.992Z</time></trkpt><trkpt lat="44.0587517" lon="11.9720667"><ele>316.0</ele><time>2026-03-22T13:03:18.991Z</time></trkpt><trkpt lat="44.0588167" lon="11.9720333"><ele>313.0</ele><time>2026-03-22T13:03:19.991Z</time></trkpt><trkpt lat="44.05889" lon="11.971985"><ele>313.0</ele><time>2026-03-22T13:03:20.992Z</time></trkpt><trkpt lat="44.058955" lon="11.9719417"><ele>313.0</ele><time>2026-03-22T13:03:21.991Z</time></trkpt><trkpt lat="44.05902" lon="11.9719017"><ele>313.0</ele><time>2026-03-22T13:03:22.991Z</time></trkpt><trkpt lat="44.0590833" lon="11.971865"><ele>313.0</ele><time>2026-03-22T13:03:23.991Z</time></trkpt><trkpt lat="44.0591433" lon="11.97182"><ele>313.0</ele><time>2026-03-22T13:03:24.991Z</time></trkpt><trkpt lat="44.0592133" lon="11.9717733"><ele>313.0</ele><time>2026-03-22T13:03:25.991Z</time></trkpt><trkpt lat="44.0592833" lon="11.971725"><ele>313.0</ele><time>2026-03-22T13:03:26.991Z</time></trkpt><trkpt lat="44.0593567" lon="11.9716817"><ele>308.16666666666663</ele><time>2026-03-22T13:03:27.992Z</time></trkpt><trkpt lat="44.059425" lon="11.9716483"><ele>303.3333333333333</ele><time>2026-03-22T13:03:28.991Z</time></trkpt><trkpt lat="44.0594967" lon="11.971615"><ele>298.5</ele><time>2026-03-22T13:03:29.991Z</time></trkpt><trkpt lat="44.05962" lon="11.9715617"><ele>293.6666666666667</ele><time>2026-03-22T13:03:31.991Z</time></trkpt><trkpt lat="44.0596867" lon="11.97152"><ele>288.83333333333337</ele><time>2026-03-22T13:03:32.991Z</time></trkpt><trkpt lat="44.0597483" lon="11.97148"><ele>284.0</ele><time>2026-03-22T13:03:33.991Z</time></trkpt><trkpt lat="44.0598067" lon="11.9714383"><ele>284.0</ele><time>2026-03-22T13:03:34.992Z</time></trkpt><trkpt lat="44.0598617" lon="11.9713833"><ele>284.0</ele><time>2026-03-22T13:03:35.991Z</time></trkpt><trkpt lat="44.0599067" lon="11.97132"><ele>284.0</ele><time>2026-03-22T13:03:36.991Z</time></trkpt><trkpt lat="44.0599433" lon="11.9712433"><ele>284.0</ele><time>2026-03-22T13:03:37.992Z</time></trkpt><trkpt lat="44.05999" lon="11.9710917"><ele>284.0</ele><time>2026-03-22T13:03:39.992Z</time></trkpt><trkpt lat="44.0600333" lon="11.97099"><ele>284.0</ele><time>2026-03-22T13:03:41.991Z</time></trkpt><trkpt lat="44.0600883" lon="11.9709233"><ele>282.6666666666667</ele><time>2026-03-22T13:03:44.992Z</time></trkpt><trkpt lat="44.0601567" lon="11.970875"><ele>281.33333333333337</ele><time>2026-03-22T13:03:46.992Z</time></trkpt><trkpt lat="44.06022" lon="11.97085"><ele>280.0</ele><time>2026-03-22T13:03:48.991Z</time></trkpt><trkpt lat="44.06029" lon="11.9708417"><ele>278.6666666666667</ele><time>2026-03-22T13:03:50.991Z</time></trkpt><trkpt lat="44.0603833" lon="11.9708417"><ele>277.3333333333333</ele><time>2026-03-22T13:03:52.991Z</time></trkpt><trkpt lat="44.060465" lon="11.9707867"><ele>276.0</ele><time>2026-03-22T13:03:54.991Z</time></trkpt><trkpt lat="44.06053" lon="11.9707117"><ele>274.0</ele><time>2026-03-22T13:03:56.991Z</time></trkpt><trkpt lat="44.060595" lon="11.9706483"><ele>272.0</ele><time>2026-03-22T13:03:59.991Z</time></trkpt><trkpt lat="44.0606733" lon="11.9705867"><ele>270.0</ele><time>2026-03-22T13:04:02.991Z</time></trkpt><trkpt lat="44.0607233" lon="11.9705033"><ele>268.0</ele><time>2026-03-22T13:04:04.992Z</time></trkpt><trkpt lat="44.06077" lon="11.9704083"><ele>266.0</ele><time>2026-03-22T13:04:06.992Z</time></trkpt><trkpt lat="44.0608233" lon="11.9703217"><ele>264.0</ele><time>2026-03-22T13:04:08.992Z</time></trkpt><trkpt lat="44.0608833" lon="11.970265"><ele>261.1666666666667</ele><time>2026-03-22T13:04:10.991Z</time></trkpt><trkpt lat="44.0609417" lon="11.9702167"><ele>258.3333333333333</ele><time>2026-03-22T13:04:12.991Z</time></trkpt><trkpt lat="44.06102" lon="11.9701483"><ele>255.5</ele><time>2026-03-22T13:04:15.991Z</time></trkpt><trkpt lat="44.0610483" lon="11.9700633"><ele>252.66666666666666</ele><time>2026-03-22T13:04:17.991Z</time></trkpt><trkpt lat="44.0610267" lon="11.9699567"><ele>249.83333333333331</ele><time>2026-03-22T13:04:20.991Z</time></trkpt><trkpt lat="44.06098" lon="11.969875"><ele>247.0</ele><time>2026-03-22T13:04:25.992Z</time></trkpt><trkpt lat="44.0608933" lon="11.9699033"><ele>246.2</ele><time>2026-03-22T13:04:28.991Z</time></trkpt><trkpt lat="44.0607817" lon="11.96996"><ele>245.39999999999998</ele><time>2026-03-22T13:04:30.992Z</time></trkpt><trkpt lat="44.0607083" lon="11.970005"><ele>244.60000000000002</ele><time>2026-03-22T13:04:31.991Z</time></trkpt><trkpt lat="44.06062" lon="11.970065"><ele>243.8</ele><time>2026-03-22T13:04:32.991Z</time></trkpt><trkpt lat="44.06053" lon="11.9701317"><ele>243.0</ele><time>2026-03-22T13:04:33.991Z</time></trkpt><trkpt lat="44.06045" lon="11.9701917"><ele>244.71428571428572</ele><time>2026-03-22T13:04:34.991Z</time></trkpt><trkpt lat="44.0603783" lon="11.9702267"><ele>246.42857142857144</ele><time>2026-03-22T13:04:35.991Z</time></trkpt><trkpt lat="44.0603033" lon="11.97024"><ele>248.14285714285717</ele><time>2026-03-22T13:04:36.991Z</time></trkpt><trkpt lat="44.060225" lon="11.9702367"><ele>249.85714285714286</ele><time>2026-03-22T13:04:37.991Z</time></trkpt><trkpt lat="44.06015" lon="11.9702267"><ele>251.5714285714286</ele><time>2026-03-22T13:04:38.991Z</time></trkpt><trkpt lat="44.0600783" lon="11.9702317"><ele>253.2857142857143</ele><time>2026-03-22T13:04:39.991Z</time></trkpt><trkpt lat="44.0600117" lon="11.97025"><ele>255.0</ele><time>2026-03-22T13:04:40.991Z</time></trkpt><trkpt lat="44.0599467" lon="11.9702883"><ele>255.0</ele><time>2026-03-22T13:04:41.991Z</time></trkpt><trkpt lat="44.0598817" lon="11.970325"><ele>255.0</ele><time>2026-03-22T13:04:42.991Z</time></trkpt><trkpt lat="44.05982" lon="11.9703833"><ele>255.0</ele><time>2026-03-22T13:04:43.991Z</time></trkpt><trkpt lat="44.05976" lon="11.970445"><ele>255.0</ele><time>2026-03-22T13:04:44.99Z</time></trkpt><trkpt lat="44.05971" lon="11.9705133"><ele>255.0</ele><time>2026-03-22T13:04:45.99Z</time></trkpt><trkpt lat="44.0596283" lon="11.9705867"><ele>255.0</ele><time>2026-03-22T13:04:47.99Z</time></trkpt><trkpt lat="44.0595317" lon="11.9706083"><ele>255.0</ele><time>2026-03-22T13:04:49.99Z</time></trkpt><trkpt lat="44.05941" lon="11.9706183"><ele>255.0</ele><time>2026-03-22T13:04:51.99Z</time></trkpt><trkpt lat="44.0593067" lon="11.9706233"><ele>255.0</ele><time>2026-03-22T13:04:53.99Z</time></trkpt><trkpt lat="44.0592517" lon="11.970565"><ele>255.0</ele><time>2026-03-22T13:04:56.991Z</time></trkpt><trkpt lat="44.0591917" lon="11.9705083"><ele>255.0</ele><time>2026-03-22T13:05:01.99Z</time></trkpt><trkpt lat="44.0591317" lon="11.9705767"><ele>255.0</ele><time>2026-03-22T13:05:03.99Z</time></trkpt><trkpt lat="44.059075" lon="11.970625"><ele>256.14285714285717</ele><time>2026-03-22T13:05:04.99Z</time></trkpt><trkpt lat="44.059015" lon="11.970665"><ele>257.28571428571433</ele><time>2026-03-22T13:05:05.99Z</time></trkpt><trkpt lat="44.058945" lon="11.9706933"><ele>258.42857142857144</ele><time>2026-03-22T13:05:06.99Z</time></trkpt><trkpt lat="44.0588733" lon="11.9707"><ele>259.57142857142856</ele><time>2026-03-22T13:05:07.991Z</time></trkpt><trkpt lat="44.058805" lon="11.970685"><ele>260.71428571428567</ele><time>2026-03-22T13:05:08.99Z</time></trkpt><trkpt lat="44.0587383" lon="11.97064"><ele>261.85714285714283</ele><time>2026-03-22T13:05:09.991Z</time></trkpt><trkpt lat="44.0586767" lon="11.970575"><ele>263.0</ele><time>2026-03-22T13:05:10.991Z</time></trkpt><trkpt lat="44.0586083" lon="11.97055"><ele>263.0</ele><time>2026-03-22T13:05:11.99Z</time></trkpt><trkpt lat="44.058535" lon="11.97055"><ele>263.0</ele><time>2026-03-22T13:05:12.99Z</time></trkpt><trkpt lat="44.0584667" lon="11.970565"><ele>263.0</ele><time>2026-03-22T13:05:13.991Z</time></trkpt><trkpt lat="44.0584033" lon="11.97058"><ele>263.0</ele><time>2026-03-22T13:05:14.99Z</time></trkpt><trkpt lat="44.05832" lon="11.9706017"><ele>263.0</ele><time>2026-03-22T13:05:16.99Z</time></trkpt><trkpt lat="44.05823" lon="11.9705933"><ele>263.0</ele><time>2026-03-22T13:05:19.991Z</time></trkpt><trkpt lat="44.05823" lon="11.970485"><ele>263.0</ele><time>2026-03-22T13:05:23.991Z</time></trkpt><trkpt lat="44.0582817" lon="11.97043"><ele>263.0</ele><time>2026-03-22T13:05:25.99Z</time></trkpt><trkpt lat="44.05839" lon="11.9703367"><ele>263.0</ele><time>2026-03-22T13:05:27.99Z</time></trkpt><trkpt lat="44.0584617" lon="11.9702867"><ele>263.0</ele><time>2026-03-22T13:05:28.991Z</time></trkpt><trkpt lat="44.0585283" lon="11.9702467"><ele>263.0</ele><time>2026-03-22T13:05:29.99Z</time></trkpt><trkpt lat="44.0586267" lon="11.9701917"><ele>263.0</ele><time>2026-03-22T13:05:31.99Z</time></trkpt><trkpt lat="44.05868" lon="11.9701133"><ele>263.0</ele><time>2026-03-22T13:05:33.99Z</time></trkpt><trkpt lat="44.0586917" lon="11.9699867"><ele>263.0</ele><time>2026-03-22T13:05:36.991Z</time></trkpt><trkpt lat="44.05864" lon="11.9698883"><ele>263.0</ele><time>2026-03-22T13:05:39.99Z</time></trkpt><trkpt lat="44.0585517" lon="11.9699033"><ele>263.0</ele><time>2026-03-22T13:05:41.99Z</time></trkpt><trkpt lat="44.058435" lon="11.9699467"><ele>263.2</ele><time>2026-03-22T13:05:43.991Z</time></trkpt><trkpt lat="44.0583683" lon="11.9699683"><ele>263.4</ele><time>2026-03-22T13:05:44.99Z</time></trkpt><trkpt lat="44.0582867" lon="11.9699833"><ele>263.59999999999997</ele><time>2026-03-22T13:05:45.991Z</time></trkpt><trkpt lat="44.0581983" lon="11.96999"><ele>263.8</ele><time>2026-03-22T13:05:46.991Z</time></trkpt><trkpt lat="44.058075" lon="11.9699917"><ele>264.0</ele><time>2026-03-22T13:05:47.99Z</time></trkpt><trkpt lat="44.0579517" lon="11.9699967"><ele>266.8</ele><time>2026-03-22T13:05:48.99Z</time></trkpt><trkpt lat="44.057845" lon="11.9700017"><ele>269.59999999999997</ele><time>2026-03-22T13:05:49.99Z</time></trkpt><trkpt lat="44.0577633" lon="11.9699967"><ele>272.4</ele><time>2026-03-22T13:05:50.99Z</time></trkpt><trkpt lat="44.0576983" lon="11.970005"><ele>275.2</ele><time>2026-03-22T13:05:51.99Z</time></trkpt><trkpt lat="44.0576067" lon="11.9700483"><ele>278.0</ele><time>2026-03-22T13:05:53.99Z</time></trkpt><trkpt lat="44.0575233" lon="11.9701267"><ele>281.2</ele><time>2026-03-22T13:05:55.99Z</time></trkpt><trkpt lat="44.0574367" lon="11.970195"><ele>284.4</ele><time>2026-03-22T13:05:57.99Z</time></trkpt><trkpt lat="44.0573733" lon="11.9702217"><ele>287.59999999999997</ele><time>2026-03-22T13:05:58.991Z</time></trkpt><trkpt lat="44.0572917" lon="11.970245"><ele>290.8</ele><time>2026-03-22T13:05:59.991Z</time></trkpt><trkpt lat="44.0571983" lon="11.9702583"><ele>294.0</ele><time>2026-03-22T13:06:00.99Z</time></trkpt><trkpt lat="44.05709" lon="11.9702867"><ele>294.0</ele><time>2026-03-22T13:06:01.99Z</time></trkpt><trkpt lat="44.0569733" lon="11.97033"><ele>294.0</ele><time>2026-03-22T13:06:02.99Z</time></trkpt><trkpt lat="44.0568583" lon="11.9703767"><ele>294.0</ele><time>2026-03-22T13:06:03.99Z</time></trkpt><trkpt lat="44.0567483" lon="11.97043"><ele>294.0</ele><time>2026-03-22T13:06:04.99Z</time></trkpt><trkpt lat="44.0566483" lon="11.9704867"><ele>296.5</ele><time>2026-03-22T13:06:05.99Z</time></trkpt><trkpt lat="44.0565617" lon="11.9705383"><ele>299.0</ele><time>2026-03-22T13:06:06.99Z</time></trkpt><trkpt lat="44.056485" lon="11.9705783"><ele>301.5</ele><time>2026-03-22T13:06:07.99Z</time></trkpt><trkpt lat="44.056405" lon="11.9706167"><ele>304.0</ele><time>2026-03-22T13:06:08.99Z</time></trkpt><trkpt lat="44.0563333" lon="11.9706433"><ele>306.5</ele><time>2026-03-22T13:06:09.99Z</time></trkpt><trkpt lat="44.0562683" lon="11.9706633"><ele>309.0</ele><time>2026-03-22T13:06:10.991Z</time></trkpt><trkpt lat="44.0562017" lon="11.9706767"><ele>309.00000000000006</ele><time>2026-03-22T13:06:11.99Z</time></trkpt><trkpt lat="44.0561317" lon="11.9706867"><ele>309.0</ele><time>2026-03-22T13:06:12.99Z</time></trkpt><trkpt lat="44.0560617" lon="11.9706867"><ele>309.0</ele><time>2026-03-22T13:06:13.99Z</time></trkpt><trkpt lat="44.0559883" lon="11.9706717"><ele>309.0</ele><time>2026-03-22T13:06:14.99Z</time></trkpt><trkpt lat="44.055915" lon="11.9706467"><ele>309.0</ele><time>2026-03-22T13:06:15.991Z</time></trkpt><trkpt lat="44.055855" lon="11.9706067"><ele>309.00000000000006</ele><time>2026-03-22T13:06:16.99Z</time></trkpt><trkpt lat="44.055805" lon="11.97055"><ele>309.0</ele><time>2026-03-22T13:06:17.99Z</time></trkpt><trkpt lat="44.0557567" lon="11.9704783"><ele>312.79999999999995</ele><time>2026-03-22T13:06:18.99Z</time></trkpt><trkpt lat="44.0557167" lon="11.9703983"><ele>316.59999999999997</ele><time>2026-03-22T13:06:19.99Z</time></trkpt><trkpt lat="44.0556867" lon="11.970285"><ele>320.4</ele><time>2026-03-22T13:06:20.99Z</time></trkpt><trkpt lat="44.055665" lon="11.970125"><ele>324.2</ele><time>2026-03-22T13:06:21.99Z</time></trkpt><trkpt lat="44.0556367" lon="11.9699533"><ele>328.0</ele><time>2026-03-22T13:06:22.99Z</time></trkpt><trkpt lat="44.0556183" lon="11.9697783"><ele>333.75</ele><time>2026-03-22T13:06:23.99Z</time></trkpt><trkpt lat="44.0556" lon="11.9696067"><ele>339.5</ele><time>2026-03-22T13:06:24.99Z</time></trkpt><trkpt lat="44.0555833" lon="11.9694133"><ele>345.25</ele><time>2026-03-22T13:06:25.99Z</time></trkpt><trkpt lat="44.0555667" lon="11.9692417"><ele>351.0</ele><time>2026-03-22T13:06:26.99Z</time></trkpt><trkpt lat="44.0555583" lon="11.9691033"><ele>350.6666666666667</ele><time>2026-03-22T13:06:27.99Z</time></trkpt><trkpt lat="44.0555633" lon="11.9690033"><ele>350.3333333333333</ele><time>2026-03-22T13:06:28.99Z</time></trkpt><trkpt lat="44.0555883" lon="11.9688933"><ele>350.0</ele><time>2026-03-22T13:06:30.99Z</time></trkpt><trkpt lat="44.0556433" lon="11.9688117"><ele>349.66666666666663</ele><time>2026-03-22T13:06:32.991Z</time></trkpt><trkpt lat="44.0557" lon="11.96875"><ele>349.3333333333333</ele><time>2026-03-22T13:06:34.99Z</time></trkpt><trkpt lat="44.0558" lon="11.9687417"><ele>349.0</ele><time>2026-03-22T13:06:36.99Z</time></trkpt><trkpt lat="44.0558833" lon="11.9687483"><ele>349.0</ele><time>2026-03-22T13:06:37.99Z</time></trkpt><trkpt lat="44.0559833" lon="11.9687733"><ele>349.0</ele><time>2026-03-22T13:06:38.99Z</time></trkpt><trkpt lat="44.0560717" lon="11.968815"><ele>349.0</ele><time>2026-03-22T13:06:39.99Z</time></trkpt><trkpt lat="44.0561533" lon="11.9688483"><ele>349.0</ele><time>2026-03-22T13:06:41.99Z</time></trkpt><trkpt lat="44.0562117" lon="11.9688117"><ele>349.0</ele><time>2026-03-22T13:06:43.991Z</time></trkpt><trkpt lat="44.0562317" lon="11.9687033"><ele>349.0</ele><time>2026-03-22T13:06:46.99Z</time></trkpt><trkpt lat="44.056185" lon="11.9686017"><ele>349.0</ele><time>2026-03-22T13:06:48.99Z</time></trkpt><trkpt lat="44.0561533" lon="11.96845"><ele>349.0</ele><time>2026-03-22T13:06:50.99Z</time></trkpt><trkpt lat="44.056135" lon="11.968365"><ele>349.0</ele><time>2026-03-22T13:06:51.991Z</time></trkpt><trkpt lat="44.0561067" lon="11.968275"><ele>349.0</ele><time>2026-03-22T13:06:52.99Z</time></trkpt><trkpt lat="44.0560733" lon="11.9681867"><ele>349.0</ele><time>2026-03-22T13:06:53.99Z</time></trkpt><trkpt lat="44.0560383" lon="11.9681083"><ele>349.0</ele><time>2026-03-22T13:06:54.99Z</time></trkpt><trkpt lat="44.0559933" lon="11.9680117"><ele>353.2</ele><time>2026-03-22T13:06:56.99Z</time></trkpt><trkpt lat="44.05589" lon="11.967975"><ele>357.4</ele><time>2026-03-22T13:06:59.99Z</time></trkpt><trkpt lat="44.0558083" lon="11.9679783"><ele>361.6</ele><time>2026-03-22T13:07:01.99Z</time></trkpt><trkpt lat="44.055715" lon="11.9679833"><ele>365.8</ele><time>2026-03-22T13:07:03.991Z</time></trkpt><trkpt lat="44.0556067" lon="11.9679983"><ele>370.0</ele><time>2026-03-22T13:07:05.99Z</time></trkpt><trkpt lat="44.055515" lon="11.96801"><ele>376.4</ele><time>2026-03-22T13:07:07.99Z</time></trkpt><trkpt lat="44.0554383" lon="11.9680567"><ele>382.8</ele><time>2026-03-22T13:07:09.99Z</time></trkpt><trkpt lat="44.0553433" lon="11.9681533"><ele>389.20000000000005</ele><time>2026-03-22T13:07:11.991Z</time></trkpt><trkpt lat="44.0552783" lon="11.9682367"><ele>395.6</ele><time>2026-03-22T13:07:13.99Z</time></trkpt><trkpt lat="44.0553483" lon="11.9681967"><ele>402.0</ele><time>2026-03-22T13:09:39.99Z</time></trkpt><trkpt lat="44.0554233" lon="11.9681283"><ele>402.0</ele><time>2026-03-22T13:09:43.99Z</time></trkpt><trkpt lat="44.0554833" lon="11.9681017"><ele>402.0</ele><time>2026-03-22T13:09:45.991Z</time></trkpt><trkpt lat="44.05557" lon="11.9680783"><ele>402.0</ele><time>2026-03-22T13:09:47.99Z</time></trkpt><trkpt lat="44.05567" lon="11.9680533"><ele>402.0</ele><time>2026-03-22T13:09:49.99Z</time></trkpt><trkpt lat="44.0557583" lon="11.96804"><ele>402.0</ele><time>2026-03-22T13:09:51.991Z</time></trkpt><trkpt lat="44.0558333" lon="11.9680517"><ele>402.0</ele><time>2026-03-22T13:09:53.99Z</time></trkpt><trkpt lat="44.0559117" lon="11.9680867"><ele>396.6666666666667</ele><time>2026-03-22T13:09:55.99Z</time></trkpt><trkpt lat="44.0559917" lon="11.9681583"><ele>391.3333333333333</ele><time>2026-03-22T13:09:57.991Z</time></trkpt><trkpt lat="44.05605" lon="11.9682533"><ele>386.0</ele><time>2026-03-22T13:09:59.99Z</time></trkpt><trkpt lat="44.0560983" lon="11.9683517"><ele>380.66666666666663</ele><time>2026-03-22T13:10:01.991Z</time></trkpt><trkpt lat="44.0561333" lon="11.96847"><ele>375.3333333333333</ele><time>2026-03-22T13:10:03.99Z</time></trkpt><trkpt lat="44.05616" lon="11.968575"><ele>370.0</ele><time>2026-03-22T13:10:05.99Z</time></trkpt><trkpt lat="44.0562" lon="11.9686717"><ele>366.5</ele><time>2026-03-22T13:10:08.99Z</time></trkpt><trkpt lat="44.0562417" lon="11.9687683"><ele>363.0</ele><time>2026-03-22T13:10:22.99Z</time></trkpt><trkpt lat="44.0561733" lon="11.9688333"><ele>359.5</ele><time>2026-03-22T13:10:25.99Z</time></trkpt><trkpt lat="44.0561867" lon="11.9689367"><ele>356.0</ele><time>2026-03-22T13:10:28.99Z</time></trkpt><trkpt lat="44.0562483" lon="11.9690067"><ele>352.5</ele><time>2026-03-22T13:10:30.99Z</time></trkpt><trkpt lat="44.0563217" lon="11.9689967"><ele>349.0</ele><time>2026-03-22T13:10:32.991Z</time></trkpt><trkpt lat="44.05639" lon="11.968875"><ele>349.0</ele><time>2026-03-22T13:10:34.99Z</time></trkpt><trkpt lat="44.0564183" lon="11.9687883"><ele>349.0</ele><time>2026-03-22T13:10:35.99Z</time></trkpt><trkpt lat="44.0564367" lon="11.9687"><ele>349.0</ele><time>2026-03-22T13:10:36.99Z</time></trkpt><trkpt lat="44.0564433" lon="11.96861"><ele>349.0</ele><time>2026-03-22T13:10:37.99Z</time></trkpt><trkpt lat="44.0564567" lon="11.96848"><ele>349.0</ele><time>2026-03-22T13:10:39.99Z</time></trkpt><trkpt lat="44.05653" lon="11.96836"><ele>349.0</ele><time>2026-03-22T13:20:09.987Z</time></trkpt><trkpt lat="44.0565983" lon="11.9682933"><ele>350.3333333333333</ele><time>2026-03-22T13:20:11.987Z</time></trkpt><trkpt lat="44.05669" lon="11.9682367"><ele>351.66666666666663</ele><time>2026-03-22T13:20:13.988Z</time></trkpt><trkpt lat="44.0567617" lon="11.9682117"><ele>353.0</ele><time>2026-03-22T13:20:15.987Z</time></trkpt><trkpt lat="44.0568367" lon="11.968215"><ele>354.3333333333333</ele><time>2026-03-22T13:20:17.987Z</time></trkpt><trkpt lat="44.05691" lon="11.9682133"><ele>355.6666666666667</ele><time>2026-03-22T13:20:19.987Z</time></trkpt><trkpt lat="44.0569783" lon="11.968215"><ele>357.0</ele><time>2026-03-22T13:20:21.988Z</time></trkpt><trkpt lat="44.05705" lon="11.9681933"><ele>357.0</ele><time>2026-03-22T13:20:23.987Z</time></trkpt><trkpt lat="44.0571167" lon="11.9681217"><ele>357.0</ele><time>2026-03-22T13:20:26.987Z</time></trkpt><trkpt lat="44.0571567" lon="11.968045"><ele>357.0</ele><time>2026-03-22T13:20:29.987Z</time></trkpt><trkpt lat="44.0572367" lon="11.968035"><ele>357.0</ele><time>2026-03-22T13:20:32.987Z</time></trkpt><trkpt lat="44.0573217" lon="11.968035"><ele>357.0</ele><time>2026-03-22T13:20:35.987Z</time></trkpt><trkpt lat="44.0574133" lon="11.9680017"><ele>357.0</ele><time>2026-03-22T13:20:38.987Z</time></trkpt><trkpt lat="44.057485" lon="11.967935"><ele>352.0</ele><time>2026-03-22T13:20:40.988Z</time></trkpt><trkpt lat="44.0575467" lon="11.9678667"><ele>347.0</ele><time>2026-03-22T13:20:42.987Z</time></trkpt><trkpt lat="44.05768" lon="11.9677633"><ele>342.0</ele><time>2026-03-22T13:23:44.987Z</time></trkpt><trkpt lat="44.0577767" lon="11.96768"><ele>337.0</ele><time>2026-03-22T13:25:51.987Z</time></trkpt><trkpt lat="44.0578533" lon="11.96766"><ele>332.0</ele><time>2026-03-22T13:26:00.987Z</time></trkpt><trkpt lat="44.0579417" lon="11.96764"><ele>332.0</ele><time>2026-03-22T13:26:02.986Z</time></trkpt><trkpt lat="44.058045" lon="11.9676317"><ele>332.0</ele><time>2026-03-22T13:26:04.986Z</time></trkpt><trkpt lat="44.0581333" lon="11.9676517"><ele>332.0</ele><time>2026-03-22T13:26:06.986Z</time></trkpt><trkpt lat="44.058215" lon="11.967695"><ele>332.0</ele><time>2026-03-22T13:26:08.986Z</time></trkpt><trkpt lat="44.0583017" lon="11.9677433"><ele>332.0</ele><time>2026-03-22T13:26:10.986Z</time></trkpt><trkpt lat="44.0583917" lon="11.9677467"><ele>332.83333333333337</ele><time>2026-03-22T13:26:12.986Z</time></trkpt><trkpt lat="44.05848" lon="11.9677433"><ele>333.6666666666667</ele><time>2026-03-22T13:26:14.986Z</time></trkpt><trkpt lat="44.0585567" lon="11.9677317"><ele>334.5</ele><time>2026-03-22T13:26:16.986Z</time></trkpt><trkpt lat="44.058655" lon="11.9676633"><ele>335.3333333333333</ele><time>2026-03-22T13:26:18.987Z</time></trkpt><trkpt lat="44.058715" lon="11.9676117"><ele>336.16666666666663</ele><time>2026-03-22T13:26:19.987Z</time></trkpt><trkpt lat="44.0587783" lon="11.9675633"><ele>337.0</ele><time>2026-03-22T13:26:20.987Z</time></trkpt><trkpt lat="44.0588333" lon="11.9675183"><ele>337.0</ele><time>2026-03-22T13:26:21.986Z</time></trkpt><trkpt lat="44.0588917" lon="11.9674817"><ele>337.0</ele><time>2026-03-22T13:26:22.986Z</time></trkpt><trkpt lat="44.0589967" lon="11.9674617"><ele>337.0</ele><time>2026-03-22T13:26:24.987Z</time></trkpt><trkpt lat="44.0591083" lon="11.967455"><ele>337.0</ele><time>2026-03-22T13:26:26.986Z</time></trkpt><trkpt lat="44.0592167" lon="11.9674467"><ele>337.0</ele><time>2026-03-22T13:26:28.986Z</time></trkpt><trkpt lat="44.05929" lon="11.9674017"><ele>331.5</ele><time>2026-03-22T13:26:30.987Z</time></trkpt><trkpt lat="44.05936" lon="11.9672917"><ele>326.0</ele><time>2026-03-22T13:26:32.986Z</time></trkpt><trkpt lat="44.059415" lon="11.9671483"><ele>320.5</ele><time>2026-03-22T13:26:34.986Z</time></trkpt><trkpt lat="44.0594583" lon="11.967005"><ele>315.0</ele><time>2026-03-22T13:26:36.987Z</time></trkpt><trkpt lat="44.0594467" lon="11.9668417"><ele>315.0</ele><time>2026-03-22T13:26:38.986Z</time></trkpt><trkpt lat="44.059385" lon="11.9667267"><ele>315.0</ele><time>2026-03-22T13:26:40.986Z</time></trkpt><trkpt lat="44.0593417" lon="11.9666533"><ele>315.0</ele><time>2026-03-22T13:26:42.987Z</time></trkpt><trkpt lat="44.0592867" lon="11.9666083"><ele>315.0</ele><time>2026-03-22T13:26:50.987Z</time></trkpt><trkpt lat="44.0591817" lon="11.9665533"><ele>315.0</ele><time>2026-03-22T13:26:52.986Z</time></trkpt><trkpt lat="44.0590683" lon="11.9664783"><ele>321.0</ele><time>2026-03-22T13:26:54.986Z</time></trkpt><trkpt lat="44.0589683" lon="11.9663917"><ele>327.0</ele><time>2026-03-22T13:26:56.986Z</time></trkpt><trkpt lat="44.05889" lon="11.9662967"><ele>333.0</ele><time>2026-03-22T13:26:58.986Z</time></trkpt><trkpt lat="44.0588" lon="11.9662133"><ele>339.0</ele><time>2026-03-22T13:27:00.987Z</time></trkpt><trkpt lat="44.058705" lon="11.9661483"><ele>345.0</ele><time>2026-03-22T13:27:02.986Z</time></trkpt><trkpt lat="44.058595" lon="11.9661167"><ele>345.0</ele><time>2026-03-22T13:27:04.986Z</time></trkpt><trkpt lat="44.0585" lon="11.96605"><ele>345.0</ele><time>2026-03-22T13:27:06.986Z</time></trkpt><trkpt lat="44.0584267" lon="11.9659867"><ele>345.0</ele><time>2026-03-22T13:27:08.986Z</time></trkpt><trkpt lat="44.0584083" lon="11.9658933"><ele>345.0</ele><time>2026-03-22T13:28:44.985Z</time></trkpt><trkpt lat="44.05844" lon="11.96601"><ele>345.0</ele><time>2026-03-22T13:28:48.985Z</time></trkpt><trkpt lat="44.0585" lon="11.9660583"><ele>345.0</ele><time>2026-03-22T13:28:50.985Z</time></trkpt><trkpt lat="44.0585867" lon="11.96606"><ele>345.0</ele><time>2026-03-22T13:28:52.985Z</time></trkpt><trkpt lat="44.0587017" lon="11.9660983"><ele>345.0</ele><time>2026-03-22T13:28:54.986Z</time></trkpt><trkpt lat="44.0587617" lon="11.9661367"><ele>345.0</ele><time>2026-03-22T13:28:55.985Z</time></trkpt><trkpt lat="44.05882" lon="11.9661867"><ele>345.0</ele><time>2026-03-22T13:28:56.985Z</time></trkpt><trkpt lat="44.058875" lon="11.96625"><ele>345.0</ele><time>2026-03-22T13:28:57.985Z</time></trkpt><trkpt lat="44.05893" lon="11.966325"><ele>345.0</ele><time>2026-03-22T13:28:58.985Z</time></trkpt><trkpt lat="44.0589967" lon="11.9664083"><ele>345.0</ele><time>2026-03-22T13:28:59.985Z</time></trkpt><trkpt lat="44.05906" lon="11.9664717"><ele>345.0</ele><time>2026-03-22T13:29:00.985Z</time></trkpt><trkpt lat="44.059125" lon="11.9665217"><ele>345.0</ele><time>2026-03-22T13:29:01.985Z</time></trkpt><trkpt lat="44.0591867" lon="11.9665683"><ele>345.0</ele><time>2026-03-22T13:29:02.986Z</time></trkpt><trkpt lat="44.0592783" lon="11.966645"><ele>345.0</ele><time>2026-03-22T13:29:04.985Z</time></trkpt><trkpt lat="44.0593217" lon="11.9667267"><ele>345.0</ele><time>2026-03-22T13:29:06.986Z</time></trkpt><trkpt lat="44.0593783" lon="11.9668267"><ele>339.0</ele><time>2026-03-22T13:29:08.985Z</time></trkpt><trkpt lat="44.0594383" lon="11.9669283"><ele>333.0</ele><time>2026-03-22T13:29:10.986Z</time></trkpt><trkpt lat="44.0594567" lon="11.967035"><ele>327.0</ele><time>2026-03-22T13:29:12.985Z</time></trkpt><trkpt lat="44.0594333" lon="11.9671617"><ele>321.0</ele><time>2026-03-22T13:29:14.985Z</time></trkpt><trkpt lat="44.0593667" lon="11.9672833"><ele>315.0</ele><time>2026-03-22T13:29:16.985Z</time></trkpt><trkpt lat="44.059295" lon="11.967365"><ele>315.0</ele><time>2026-03-22T13:29:18.985Z</time></trkpt><trkpt lat="44.0591867" lon="11.9674117"><ele>315.0</ele><time>2026-03-22T13:29:20.985Z</time></trkpt><trkpt lat="44.05908" lon="11.9674233"><ele>315.0</ele><time>2026-03-22T13:29:22.985Z</time></trkpt><trkpt lat="44.05897" lon="11.9674433"><ele>315.0</ele><time>2026-03-22T13:29:24.985Z</time></trkpt><trkpt lat="44.0589" lon="11.9674583"><ele>315.0</ele><time>2026-03-22T13:29:25.985Z</time></trkpt><trkpt lat="44.0588333" lon="11.9674833"><ele>314.6</ele><time>2026-03-22T13:29:26.985Z</time></trkpt><trkpt lat="44.0587733" lon="11.9675167"><ele>314.2</ele><time>2026-03-22T13:29:27.986Z</time></trkpt><trkpt lat="44.0586633" lon="11.9675917"><ele>313.8</ele><time>2026-03-22T13:29:29.986Z</time></trkpt><trkpt lat="44.05857" lon="11.96767"><ele>313.4</ele><time>2026-03-22T13:29:31.986Z</time></trkpt><trkpt lat="44.0584817" lon="11.9677183"><ele>313.0</ele><time>2026-03-22T13:29:33.985Z</time></trkpt><trkpt lat="44.0583633" lon="11.9677283"><ele>316.8</ele><time>2026-03-22T13:29:35.985Z</time></trkpt><trkpt lat="44.0582483" lon="11.96769"><ele>320.6</ele><time>2026-03-22T13:29:37.985Z</time></trkpt><trkpt lat="44.058145" lon="11.9676333"><ele>324.40000000000003</ele><time>2026-03-22T13:29:39.985Z</time></trkpt><trkpt lat="44.05804" lon="11.9675817"><ele>328.20000000000005</ele><time>2026-03-22T13:29:41.985Z</time></trkpt><trkpt lat="44.0579483" lon="11.9675833"><ele>332.0</ele><time>2026-03-22T13:29:43.985Z</time></trkpt><trkpt lat="44.0578467" lon="11.96764"><ele>332.0</ele><time>2026-03-22T13:29:56.985Z</time></trkpt><trkpt lat="44.0577083" lon="11.967695"><ele>332.0</ele><time>2026-03-22T13:30:43.985Z</time></trkpt><trkpt lat="44.057635" lon="11.9677617"><ele>332.0</ele><time>2026-03-22T13:32:15.984Z</time></trkpt><trkpt lat="44.0575567" lon="11.9678283"><ele>332.0</ele><time>2026-03-22T13:32:17.984Z</time></trkpt><trkpt lat="44.057485" lon="11.9678883"><ele>332.0</ele><time>2026-03-22T13:32:19.984Z</time></trkpt><trkpt lat="44.0573883" lon="11.96794"><ele>337.0</ele><time>2026-03-22T13:32:21.984Z</time></trkpt><trkpt lat="44.0572833" lon="11.9679717"><ele>342.0</ele><time>2026-03-22T13:32:23.985Z</time></trkpt><trkpt lat="44.0572083" lon="11.9679867"><ele>347.0</ele><time>2026-03-22T13:32:25.985Z</time></trkpt><trkpt lat="44.0571583" lon="11.9680633"><ele>352.0</ele><time>2026-03-22T13:32:28.984Z</time></trkpt><trkpt lat="44.0571067" lon="11.9681333"><ele>357.0</ele><time>2026-03-22T13:32:30.984Z</time></trkpt><trkpt lat="44.0569783" lon="11.968185"><ele>357.0</ele><time>2026-03-22T13:32:32.984Z</time></trkpt><trkpt lat="44.056895" lon="11.9681967"><ele>357.0</ele><time>2026-03-22T13:32:33.985Z</time></trkpt><trkpt lat="44.0568033" lon="11.9682"><ele>357.0</ele><time>2026-03-22T13:32:34.984Z</time></trkpt><trkpt lat="44.0567267" lon="11.968205"><ele>357.0</ele><time>2026-03-22T13:32:35.984Z</time></trkpt><trkpt lat="44.056665" lon="11.9682333"><ele>357.0</ele><time>2026-03-22T13:32:36.984Z</time></trkpt><trkpt lat="44.0566017" lon="11.968275"><ele>357.0</ele><time>2026-03-22T13:32:37.984Z</time></trkpt><trkpt lat="44.0565233" lon="11.9683683"><ele>355.6666666666667</ele><time>2026-03-22T13:32:39.985Z</time></trkpt><trkpt lat="44.0564767" lon="11.9684717"><ele>354.3333333333333</ele><time>2026-03-22T13:32:41.984Z</time></trkpt><trkpt lat="44.0564367" lon="11.9686517"><ele>353.0</ele><time>2026-03-22T13:32:43.985Z</time></trkpt><trkpt lat="44.05642" lon="11.968755"><ele>351.66666666666663</ele><time>2026-03-22T13:32:44.984Z</time></trkpt><trkpt lat="44.0564" lon="11.9688617"><ele>350.3333333333333</ele><time>2026-03-22T13:32:45.985Z</time></trkpt><trkpt lat="44.05637" lon="11.9689467"><ele>349.0</ele><time>2026-03-22T13:32:46.984Z</time></trkpt><trkpt lat="44.0562917" lon="11.9690183"><ele>349.0</ele><time>2026-03-22T13:32:48.984Z</time></trkpt><trkpt lat="44.0562117" lon="11.9690033"><ele>349.0</ele><time>2026-03-22T13:32:50.984Z</time></trkpt><trkpt lat="44.0561817" lon="11.968905"><ele>349.0</ele><time>2026-03-22T13:32:52.985Z</time></trkpt><trkpt lat="44.0561" lon="11.9687983"><ele>349.0</ele><time>2026-03-22T13:32:55.985Z</time></trkpt><trkpt lat="44.0560383" lon="11.9687717"><ele>349.0</ele><time>2026-03-22T13:32:56.984Z</time></trkpt><trkpt lat="44.0559167" lon="11.968725"><ele>349.0</ele><time>2026-03-22T13:32:58.984Z</time></trkpt><trkpt lat="44.0558517" lon="11.968715"><ele>349.0</ele><time>2026-03-22T13:32:59.985Z</time></trkpt><trkpt lat="44.05574" lon="11.9687417"><ele>349.0</ele><time>2026-03-22T13:33:01.984Z</time></trkpt><trkpt lat="44.05565" lon="11.96883"><ele>349.0</ele><time>2026-03-22T13:33:03.984Z</time></trkpt><trkpt lat="44.055595" lon="11.96891"><ele>349.0</ele><time>2026-03-22T13:33:05.984Z</time></trkpt><trkpt lat="44.05557" lon="11.9690083"><ele>349.0</ele><time>2026-03-22T13:33:08.984Z</time></trkpt><trkpt lat="44.05557" lon="11.969165"><ele>349.3333333333333</ele><time>2026-03-22T13:33:10.985Z</time></trkpt><trkpt lat="44.0555783" lon="11.969265"><ele>349.66666666666663</ele><time>2026-03-22T13:33:11.984Z</time></trkpt><trkpt lat="44.055585" lon="11.96938"><ele>350.0</ele><time>2026-03-22T13:33:12.984Z</time></trkpt><trkpt lat="44.0555967" lon="11.9695017"><ele>350.3333333333333</ele><time>2026-03-22T13:33:13.985Z</time></trkpt><trkpt lat="44.0556117" lon="11.9696283"><ele>350.6666666666667</ele><time>2026-03-22T13:33:14.984Z</time></trkpt><trkpt lat="44.0556233" lon="11.9697633"><ele>351.0</ele><time>2026-03-22T13:33:15.984Z</time></trkpt><trkpt lat="44.05564" lon="11.9698933"><ele>351.0</ele><time>2026-03-22T13:33:16.984Z</time></trkpt><trkpt lat="44.05566" lon="11.9700217"><ele>351.0</ele><time>2026-03-22T13:33:17.985Z</time></trkpt><trkpt lat="44.0556817" lon="11.9701317"><ele>351.0</ele><time>2026-03-22T13:33:18.985Z</time></trkpt><trkpt lat="44.0557" lon="11.9702217"><ele>351.0</ele><time>2026-03-22T13:33:19.984Z</time></trkpt><trkpt lat="44.055725" lon="11.970385"><ele>351.0</ele><time>2026-03-22T13:33:21.984Z</time></trkpt><trkpt lat="44.0557733" lon="11.9705183"><ele>342.6</ele><time>2026-03-22T13:33:23.984Z</time></trkpt><trkpt lat="44.055855" lon="11.9706283"><ele>334.20000000000005</ele><time>2026-03-22T13:33:25.984Z</time></trkpt><trkpt lat="44.0559433" lon="11.9706933"><ele>325.79999999999995</ele><time>2026-03-22T13:33:27.985Z</time></trkpt><trkpt lat="44.0560633" lon="11.9707167"><ele>317.4</ele><time>2026-03-22T13:33:29.985Z</time></trkpt><trkpt lat="44.0561333" lon="11.970715"><ele>309.0</ele><time>2026-03-22T13:33:30.985Z</time></trkpt><trkpt lat="44.05621" lon="11.9707067"><ele>309.0</ele><time>2026-03-22T13:33:31.984Z</time></trkpt><trkpt lat="44.056285" lon="11.9706867"><ele>309.0</ele><time>2026-03-22T13:33:32.985Z</time></trkpt><trkpt lat="44.0563667" lon="11.9706583"><ele>309.0</ele><time>2026-03-22T13:33:33.984Z</time></trkpt><trkpt lat="44.056465" lon="11.970615"><ele>309.0</ele><time>2026-03-22T13:33:34.984Z</time></trkpt><trkpt lat="44.0565733" lon="11.9705667"><ele>309.0</ele><time>2026-03-22T13:33:35.984Z</time></trkpt><trkpt lat="44.056695" lon="11.9704983"><ele>305.25</ele><time>2026-03-22T13:33:36.985Z</time></trkpt><trkpt lat="44.056815" lon="11.9704333"><ele>301.5</ele><time>2026-03-22T13:33:37.984Z</time></trkpt><trkpt lat="44.056925" lon="11.9703833"><ele>297.75</ele><time>2026-03-22T13:33:38.984Z</time></trkpt><trkpt lat="44.0570267" lon="11.97035"><ele>294.0</ele><time>2026-03-22T13:33:39.985Z</time></trkpt><trkpt lat="44.0571383" lon="11.970325"><ele>294.0</ele><time>2026-03-22T13:33:40.984Z</time></trkpt><trkpt lat="44.0572383" lon="11.9702983"><ele>294.0</ele><time>2026-03-22T13:33:41.984Z</time></trkpt><trkpt lat="44.057325" lon="11.9702783"><ele>294.0</ele><time>2026-03-22T13:33:42.985Z</time></trkpt><trkpt lat="44.0573917" lon="11.9702617"><ele>294.0</ele><time>2026-03-22T13:33:43.984Z</time></trkpt><trkpt lat="44.0574783" lon="11.9702167"><ele>294.0</ele><time>2026-03-22T13:33:45.984Z</time></trkpt><trkpt lat="44.0575483" lon="11.9701517"><ele>294.0</ele><time>2026-03-22T13:33:47.984Z</time></trkpt><trkpt lat="44.0576283" lon="11.9700633"><ele>292.59999999999997</ele><time>2026-03-22T13:33:49.984Z</time></trkpt><trkpt lat="44.05771" lon="11.970005"><ele>291.2</ele><time>2026-03-22T13:33:51.985Z</time></trkpt><trkpt lat="44.0578433" lon="11.9700267"><ele>289.79999999999995</ele><time>2026-03-22T13:33:53.984Z</time></trkpt><trkpt lat="44.0579233" lon="11.970035"><ele>288.4</ele><time>2026-03-22T13:33:54.984Z</time></trkpt><trkpt lat="44.058025" lon="11.9700317"><ele>287.0</ele><time>2026-03-22T13:33:55.984Z</time></trkpt><trkpt lat="44.0581283" lon="11.9700267"><ele>285.5</ele><time>2026-03-22T13:33:56.985Z</time></trkpt><trkpt lat="44.0582183" lon="11.970025"><ele>284.0</ele><time>2026-03-22T13:33:57.985Z</time></trkpt><trkpt lat="44.0583033" lon="11.9700117"><ele>282.5</ele><time>2026-03-22T13:33:58.984Z</time></trkpt><trkpt lat="44.0583833" lon="11.9699883"><ele>281.0</ele><time>2026-03-22T13:33:59.984Z</time></trkpt><trkpt lat="44.0584583" lon="11.9699567"><ele>279.5</ele><time>2026-03-22T13:34:00.984Z</time></trkpt><trkpt lat="44.058535" lon="11.9699233"><ele>278.0</ele><time>2026-03-22T13:34:01.984Z</time></trkpt><trkpt lat="44.0586067" lon="11.9698967"><ele>275.6666666666667</ele><time>2026-03-22T13:34:02.985Z</time></trkpt><trkpt lat="44.0586833" lon="11.9699067"><ele>273.33333333333337</ele><time>2026-03-22T13:34:04.984Z</time></trkpt><trkpt lat="44.0587117" lon="11.969985"><ele>271.0</ele><time>2026-03-22T13:34:06.984Z</time></trkpt><trkpt lat="44.05877" lon="11.9700217"><ele>268.6666666666667</ele><time>2026-03-22T13:34:08.984Z</time></trkpt><trkpt lat="44.0589133" lon="11.9700083"><ele>266.3333333333333</ele><time>2026-03-22T13:34:10.984Z</time></trkpt><trkpt lat="44.0590017" lon="11.969985"><ele>264.0</ele><time>2026-03-22T13:34:11.984Z</time></trkpt><trkpt lat="44.0590867" lon="11.969975"><ele>262.5</ele><time>2026-03-22T13:34:12.984Z</time></trkpt><trkpt lat="44.0591667" lon="11.9699967"><ele>261.0</ele><time>2026-03-22T13:34:13.984Z</time></trkpt><trkpt lat="44.0592433" lon="11.9700367"><ele>259.5</ele><time>2026-03-22T13:34:14.985Z</time></trkpt><trkpt lat="44.0593117" lon="11.970075"><ele>258.0</ele><time>2026-03-22T13:34:15.984Z</time></trkpt><trkpt lat="44.05941" lon="11.9701283"><ele>256.5</ele><time>2026-03-22T13:34:17.984Z</time></trkpt><trkpt lat="44.0594417" lon="11.9702067"><ele>255.0</ele><time>2026-03-22T13:34:19.984Z</time></trkpt><trkpt lat="44.0593867" lon="11.9703117"><ele>255.0</ele><time>2026-03-22T13:34:21.984Z</time></trkpt><trkpt lat="44.0592983" lon="11.9704133"><ele>255.0</ele><time>2026-03-22T13:34:23.984Z</time></trkpt><trkpt lat="44.0592417" lon="11.9705"><ele>255.0</ele><time>2026-03-22T13:34:25.985Z</time></trkpt><trkpt lat="44.059265" lon="11.9705883"><ele>255.0</ele><time>2026-03-22T13:34:27.985Z</time></trkpt><trkpt lat="44.0593567" lon="11.9706633"><ele>255.0</ele><time>2026-03-22T13:34:29.985Z</time></trkpt><trkpt lat="44.0594317" lon="11.9706733"><ele>255.0</ele><time>2026-03-22T13:34:30.984Z</time></trkpt><trkpt lat="44.059525" lon="11.9706683"><ele>255.0</ele><time>2026-03-22T13:34:31.984Z</time></trkpt><trkpt lat="44.05961" lon="11.97065"><ele>255.0</ele><time>2026-03-22T13:34:32.984Z</time></trkpt><trkpt lat="44.05968" lon="11.9706117"><ele>255.0</ele><time>2026-03-22T13:34:33.984Z</time></trkpt><trkpt lat="44.0597467" lon="11.9705517"><ele>255.0</ele><time>2026-03-22T13:34:34.984Z</time></trkpt><trkpt lat="44.0598133" lon="11.9704817"><ele>255.0</ele><time>2026-03-22T13:34:35.984Z</time></trkpt><trkpt lat="44.0598817" lon="11.9704167"><ele>255.0</ele><time>2026-03-22T13:34:36.984Z</time></trkpt><trkpt lat="44.0599533" lon="11.9703517"><ele>256.8</ele><time>2026-03-22T13:34:37.984Z</time></trkpt><trkpt lat="44.0600317" lon="11.970295"><ele>258.6</ele><time>2026-03-22T13:34:38.984Z</time></trkpt><trkpt lat="44.0601117" lon="11.9702483"><ele>260.4</ele><time>2026-03-22T13:34:39.984Z</time></trkpt><trkpt lat="44.06021" lon="11.97023"><ele>262.2</ele><time>2026-03-22T13:34:40.984Z</time></trkpt><trkpt lat="44.0603083" lon="11.97024"><ele>264.0</ele><time>2026-03-22T13:34:41.985Z</time></trkpt><trkpt lat="44.0603967" lon="11.970235"><ele>264.0</ele><time>2026-03-22T13:34:42.984Z</time></trkpt><trkpt lat="44.0605" lon="11.9701783"><ele>264.0</ele><time>2026-03-22T13:34:43.985Z</time></trkpt><trkpt lat="44.06061" lon="11.9700967"><ele>264.0</ele><time>2026-03-22T13:34:44.985Z</time></trkpt><trkpt lat="44.06072" lon="11.970015"><ele>264.0</ele><time>2026-03-22T13:34:45.984Z</time></trkpt><trkpt lat="44.0608183" lon="11.9699333"><ele>261.1666666666667</ele><time>2026-03-22T13:34:46.984Z</time></trkpt><trkpt lat="44.0608917" lon="11.96989"><ele>258.3333333333333</ele><time>2026-03-22T13:34:47.984Z</time></trkpt><trkpt lat="44.060985" lon="11.9698417"><ele>255.5</ele><time>2026-03-22T13:34:49.984Z</time></trkpt><trkpt lat="44.0610733" lon="11.9698583"><ele>252.66666666666666</ele><time>2026-03-22T13:34:52.984Z</time></trkpt><trkpt lat="44.0611633" lon="11.9699067"><ele>249.83333333333331</ele><time>2026-03-22T13:34:54.984Z</time></trkpt><trkpt lat="44.0612333" lon="11.9699667"><ele>247.0</ele><time>2026-03-22T13:34:56.984Z</time></trkpt><trkpt lat="44.0612783" lon="11.9700283"><ele>247.0</ele><time>2026-03-22T13:34:58.984Z</time></trkpt><trkpt lat="44.0613083" lon="11.9701183"><ele>247.0</ele><time>2026-03-22T13:35:00.984Z</time></trkpt><trkpt lat="44.0613367" lon="11.9702533"><ele>247.0</ele><time>2026-03-22T13:35:02.984Z</time></trkpt><trkpt lat="44.0613467" lon="11.9703933"><ele>247.0</ele><time>2026-03-22T13:35:04.984Z</time></trkpt><trkpt lat="44.0613367" lon="11.970545"><ele>247.0</ele><time>2026-03-22T13:35:06.984Z</time></trkpt><trkpt lat="44.0613233" lon="11.9706867"><ele>247.0</ele><time>2026-03-22T13:35:08.984Z</time></trkpt><trkpt lat="44.06133" lon="11.9707867"><ele>247.0</ele><time>2026-03-22T13:35:10.984Z</time></trkpt><trkpt lat="44.0614017" lon="11.97085"><ele>247.0</ele><time>2026-03-22T13:35:13.984Z</time></trkpt><trkpt lat="44.0615067" lon="11.9707967"><ele>247.0</ele><time>2026-03-22T13:35:15.984Z</time></trkpt><trkpt lat="44.0615967" lon="11.9706867"><ele>247.0</ele><time>2026-03-22T13:35:17.984Z</time></trkpt><trkpt lat="44.06164" lon="11.9706067"><ele>245.8</ele><time>2026-03-22T13:35:18.985Z</time></trkpt><trkpt lat="44.06169" lon="11.970515"><ele>244.6</ele><time>2026-03-22T13:35:19.985Z</time></trkpt><trkpt lat="44.0617583" lon="11.9704217"><ele>243.40000000000003</ele><time>2026-03-22T13:35:20.984Z</time></trkpt><trkpt lat="44.0618417" lon="11.970325"><ele>242.20000000000002</ele><time>2026-03-22T13:35:21.985Z</time></trkpt><trkpt lat="44.061935" lon="11.9702333"><ele>241.0</ele><time>2026-03-22T13:35:22.985Z</time></trkpt><trkpt lat="44.0620283" lon="11.9701383"><ele>241.0</ele><time>2026-03-22T13:35:23.985Z</time></trkpt><trkpt lat="44.0621117" lon="11.9700633"><ele>241.00000000000003</ele><time>2026-03-22T13:35:24.985Z</time></trkpt><trkpt lat="44.0621833" lon="11.9700133"><ele>241.00000000000003</ele><time>2026-03-22T13:35:25.984Z</time></trkpt><trkpt lat="44.0622667" lon="11.9699917"><ele>241.0</ele><time>2026-03-22T13:35:26.984Z</time></trkpt><trkpt lat="44.062375" lon="11.96999"><ele>241.0</ele><time>2026-03-22T13:35:27.985Z</time></trkpt><trkpt lat="44.0625" lon="11.9700083"><ele>242.0</ele><time>2026-03-22T13:35:28.984Z</time></trkpt><trkpt lat="44.062625" lon="11.97004"><ele>243.0</ele><time>2026-03-22T13:35:29.984Z</time></trkpt><trkpt lat="44.0627483" lon="11.9700533"><ele>244.0</ele><time>2026-03-22T13:35:30.984Z</time></trkpt><trkpt lat="44.06287" lon="11.9700417"><ele>245.0</ele><time>2026-03-22T13:35:31.984Z</time></trkpt><trkpt lat="44.0629933" lon="11.970005"><ele>240.2</ele><time>2026-03-22T13:35:32.984Z</time></trkpt><trkpt lat="44.0631133" lon="11.969965"><ele>235.4</ele><time>2026-03-22T13:35:33.983Z</time></trkpt><trkpt lat="44.0632217" lon="11.96992"><ele>230.60000000000002</ele><time>2026-03-22T13:35:34.983Z</time></trkpt><trkpt lat="44.0633133" lon="11.969895"><ele>225.8</ele><time>2026-03-22T13:35:35.983Z</time></trkpt><trkpt lat="44.0633917" lon="11.9698617"><ele>221.0</ele><time>2026-03-22T13:35:36.983Z</time></trkpt><trkpt lat="44.063475" lon="11.96981"><ele>221.00000000000003</ele><time>2026-03-22T13:35:37.984Z</time></trkpt><trkpt lat="44.06356" lon="11.9697383"><ele>221.0</ele><time>2026-03-22T13:35:38.984Z</time></trkpt><trkpt lat="44.063645" lon="11.96969"><ele>221.0</ele><time>2026-03-22T13:35:39.984Z</time></trkpt><trkpt lat="44.0637217" lon="11.9696383"><ele>221.0</ele><time>2026-03-22T13:35:40.983Z</time></trkpt><trkpt lat="44.0637967" lon="11.9695833"><ele>221.00000000000003</ele><time>2026-03-22T13:35:41.983Z</time></trkpt><trkpt lat="44.0638683" lon="11.9695383"><ele>221.0</ele><time>2026-03-22T13:35:42.984Z</time></trkpt><trkpt lat="44.06393" lon="11.9695083"><ele>221.0</ele><time>2026-03-22T13:35:43.983Z</time></trkpt><trkpt lat="44.0640567" lon="11.9694567"><ele>221.0</ele><time>2026-03-22T13:35:45.983Z</time></trkpt><trkpt lat="44.0641317" lon="11.96937"><ele>221.0</ele><time>2026-03-22T13:35:46.983Z</time></trkpt><trkpt lat="44.0642167" lon="11.969255"><ele>221.0</ele><time>2026-03-22T13:35:47.984Z</time></trkpt><trkpt lat="44.0643" lon="11.96913"><ele>215.4</ele><time>2026-03-22T13:35:48.983Z</time></trkpt><trkpt lat="44.0643733" lon="11.9690117"><ele>209.8</ele><time>2026-03-22T13:35:49.984Z</time></trkpt><trkpt lat="44.064445" lon="11.9688967"><ele>204.20000000000002</ele><time>2026-03-22T13:35:50.983Z</time></trkpt><trkpt lat="44.06451" lon="11.9687933"><ele>198.60000000000002</ele><time>2026-03-22T13:35:51.983Z</time></trkpt><trkpt lat="44.0645567" lon="11.9687033"><ele>193.0</ele><time>2026-03-22T13:35:52.983Z</time></trkpt><trkpt lat="44.0646" lon="11.9686067"><ele>192.99999999999997</ele><time>2026-03-22T13:35:53.984Z</time></trkpt><trkpt lat="44.064645" lon="11.9685167"><ele>193.0</ele><time>2026-03-22T13:35:54.983Z</time></trkpt><trkpt lat="44.0646917" lon="11.968435"><ele>193.0</ele><time>2026-03-22T13:35:55.983Z</time></trkpt><trkpt lat="44.064735" lon="11.9683583"><ele>193.0</ele><time>2026-03-22T13:35:56.983Z</time></trkpt><trkpt lat="44.0647833" lon="11.9682917"><ele>192.99999999999997</ele><time>2026-03-22T13:35:57.983Z</time></trkpt><trkpt lat="44.0648767" lon="11.9681817"><ele>193.0</ele><time>2026-03-22T13:35:59.983Z</time></trkpt><trkpt lat="44.0649817" lon="11.96813"><ele>191.49999999999997</ele><time>2026-03-22T13:36:01.984Z</time></trkpt><trkpt lat="44.0650883" lon="11.9681517"><ele>190.0</ele><time>2026-03-22T13:36:03.983Z</time></trkpt><trkpt lat="44.0652" lon="11.9681183"><ele>188.5</ele><time>2026-03-22T13:36:05.983Z</time></trkpt><trkpt lat="44.0652517" lon="11.968055"><ele>187.0</ele><time>2026-03-22T13:36:06.983Z</time></trkpt><trkpt lat="44.06529" lon="11.96798"><ele>185.5</ele><time>2026-03-22T13:36:07.983Z</time></trkpt><trkpt lat="44.065325" lon="11.967895"><ele>184.0</ele><time>2026-03-22T13:36:08.983Z</time></trkpt><trkpt lat="44.0653583" lon="11.9678067"><ele>184.0</ele><time>2026-03-22T13:36:09.983Z</time></trkpt><trkpt lat="44.06539" lon="11.9677217"><ele>184.0</ele><time>2026-03-22T13:36:10.983Z</time></trkpt><trkpt lat="44.0654483" lon="11.9675933"><ele>184.0</ele><time>2026-03-22T13:36:12.983Z</time></trkpt><trkpt lat="44.0655" lon="11.96754"><ele>184.0</ele><time>2026-03-22T13:36:15.983Z</time></trkpt><trkpt lat="44.06557" lon="11.9676283"><ele>184.0</ele><time>2026-03-22T13:36:18.984Z</time></trkpt><trkpt lat="44.0655967" lon="11.96772"><ele>184.0</ele><time>2026-03-22T13:36:19.983Z</time></trkpt><trkpt lat="44.0656267" lon="11.9678383"><ele>184.0</ele><time>2026-03-22T13:36:20.983Z</time></trkpt><trkpt lat="44.0656767" lon="11.967985"><ele>184.0</ele><time>2026-03-22T13:36:21.984Z</time></trkpt><trkpt lat="44.0657383" lon="11.96815"><ele>184.0</ele><time>2026-03-22T13:36:22.984Z</time></trkpt><trkpt lat="44.0657967" lon="11.9683383"><ele>184.0</ele><time>2026-03-22T13:36:23.984Z</time></trkpt><trkpt lat="44.0658583" lon="11.9685433"><ele>185.66666666666669</ele><time>2026-03-22T13:36:24.983Z</time></trkpt><trkpt lat="44.0659233" lon="11.968755"><ele>187.33333333333334</ele><time>2026-03-22T13:36:25.983Z</time></trkpt><trkpt lat="44.0659933" lon="11.9689767"><ele>189.0</ele><time>2026-03-22T13:36:26.983Z</time></trkpt><trkpt lat="44.06606" lon="11.9691767"><ele>190.75</ele><time>2026-03-22T13:36:27.983Z</time></trkpt><trkpt lat="44.0661233" lon="11.9693667"><ele>192.5</ele><time>2026-03-22T13:36:28.983Z</time></trkpt><trkpt lat="44.0661817" lon="11.9695417"><ele>194.25</ele><time>2026-03-22T13:36:29.984Z</time></trkpt><trkpt lat="44.0662383" lon="11.9697017"><ele>196.0</ele><time>2026-03-22T13:36:30.983Z</time></trkpt><trkpt lat="44.0663017" lon="11.9698483"><ele>196.0</ele><time>2026-03-22T13:36:31.984Z</time></trkpt><trkpt lat="44.0663717" lon="11.9699833"><ele>196.0</ele><time>2026-03-22T13:36:32.983Z</time></trkpt><trkpt lat="44.0664467" lon="11.9701033"><ele>196.0</ele><time>2026-03-22T13:36:33.983Z</time></trkpt><trkpt lat="44.0665317" lon="11.9702117"><ele>196.0</ele><time>2026-03-22T13:36:34.983Z</time></trkpt><trkpt lat="44.0666267" lon="11.9703033"><ele>196.75</ele><time>2026-03-22T13:36:35.984Z</time></trkpt><trkpt lat="44.0667383" lon="11.9703683"><ele>197.5</ele><time>2026-03-22T13:36:36.983Z</time></trkpt><trkpt lat="44.066865" lon="11.9704267"><ele>198.25</ele><time>2026-03-22T13:36:37.983Z</time></trkpt><trkpt lat="44.0669967" lon="11.9704883"><ele>199.0</ele><time>2026-03-22T13:36:38.983Z</time></trkpt><trkpt lat="44.0671317" lon="11.97056"><ele>199.0</ele><time>2026-03-22T13:36:39.983Z</time></trkpt><trkpt lat="44.0672633" lon="11.970635"><ele>199.0</ele><time>2026-03-22T13:36:40.984Z</time></trkpt><trkpt lat="44.0673933" lon="11.9707"><ele>199.0</ele><time>2026-03-22T13:36:41.983Z</time></trkpt><trkpt lat="44.0675217" lon="11.97076"><ele>199.0</ele><time>2026-03-22T13:36:42.983Z</time></trkpt><trkpt lat="44.067645" lon="11.970835"><ele>198.25</ele><time>2026-03-22T13:36:43.984Z</time></trkpt><trkpt lat="44.0677767" lon="11.9709083"><ele>197.5</ele><time>2026-03-22T13:36:44.983Z</time></trkpt><trkpt lat="44.067905" lon="11.9709867"><ele>196.75</ele><time>2026-03-22T13:36:45.984Z</time></trkpt><trkpt lat="44.0680383" lon="11.9710483"><ele>196.0</ele><time>2026-03-22T13:36:46.984Z</time></trkpt><trkpt lat="44.068175" lon="11.9711183"><ele>193.25</ele><time>2026-03-22T13:36:47.983Z</time></trkpt><trkpt lat="44.0683067" lon="11.9711983"><ele>190.5</ele><time>2026-03-22T13:36:48.983Z</time></trkpt><trkpt lat="44.06844" lon="11.9712883"><ele>187.75</ele><time>2026-03-22T13:36:49.984Z</time></trkpt><trkpt lat="44.0685633" lon="11.9714017"><ele>185.0</ele><time>2026-03-22T13:36:50.983Z</time></trkpt><trkpt lat="44.06868" lon="11.9715083"><ele>185.0</ele><time>2026-03-22T13:36:51.983Z</time></trkpt><trkpt lat="44.0687933" lon="11.9716083"><ele>185.0</ele><time>2026-03-22T13:36:52.984Z</time></trkpt><trkpt lat="44.068905" lon="11.9717033"><ele>185.0</ele><time>2026-03-22T13:36:53.983Z</time></trkpt><trkpt lat="44.069015" lon="11.9717883"><ele>185.0</ele><time>2026-03-22T13:36:54.983Z</time></trkpt><trkpt lat="44.0691333" lon="11.971855"><ele>183.5</ele><time>2026-03-22T13:36:55.984Z</time></trkpt><trkpt lat="44.0692567" lon="11.9719067"><ele>182.0</ele><time>2026-03-22T13:36:56.983Z</time></trkpt><trkpt lat="44.0693883" lon="11.9719467"><ele>180.5</ele><time>2026-03-22T13:36:57.984Z</time></trkpt><trkpt lat="44.06952" lon="11.9719767"><ele>179.0</ele><time>2026-03-22T13:36:58.984Z</time></trkpt><trkpt lat="44.0696483" lon="11.9720133"><ele>179.0</ele><time>2026-03-22T13:36:59.983Z</time></trkpt><trkpt lat="44.0697617" lon="11.97205"><ele>179.0</ele><time>2026-03-22T13:37:00.983Z</time></trkpt><trkpt lat="44.069875" lon="11.9720883"><ele>179.0</ele><time>2026-03-22T13:37:01.984Z</time></trkpt><trkpt lat="44.0699883" lon="11.972125"><ele>179.0</ele><time>2026-03-22T13:37:02.984Z</time></trkpt><trkpt lat="44.0701" lon="11.9721567"><ele>177.0</ele><time>2026-03-22T13:37:03.984Z</time></trkpt><trkpt lat="44.0702067" lon="11.9721817"><ele>175.0</ele><time>2026-03-22T13:37:04.983Z</time></trkpt><trkpt lat="44.0703217" lon="11.9722117"><ele>173.0</ele><time>2026-03-22T13:37:05.983Z</time></trkpt><trkpt lat="44.07042" lon="11.9722367"><ele>171.0</ele><time>2026-03-22T13:37:06.983Z</time></trkpt><trkpt lat="44.0705133" lon="11.9722633"><ele>169.0</ele><time>2026-03-22T13:37:07.984Z</time></trkpt><trkpt lat="44.0705967" lon="11.97229"><ele>169.0</ele><time>2026-03-22T13:37:08.983Z</time></trkpt><trkpt lat="44.0706583" lon="11.9723167"><ele>169.0</ele><time>2026-03-22T13:37:09.983Z</time></trkpt><trkpt lat="44.0707233" lon="11.9723483"><ele>169.0</ele><time>2026-03-22T13:37:12.983Z</time></trkpt><trkpt lat="44.0707883" lon="11.9723567"><ele>169.0</ele><time>2026-03-22T13:39:04.983Z</time></trkpt><trkpt lat="44.0708517" lon="11.9723883"><ele>169.0</ele><time>2026-03-22T13:39:06.983Z</time></trkpt><trkpt lat="44.0709383" lon="11.9724"><ele>169.0</ele><time>2026-03-22T13:39:08.984Z</time></trkpt><trkpt lat="44.07101" lon="11.9724017"><ele>169.0</ele><time>2026-03-22T13:39:09.983Z</time></trkpt><trkpt lat="44.0711017" lon="11.9724217"><ele>168.75</ele><time>2026-03-22T13:39:10.983Z</time></trkpt><trkpt lat="44.071215" lon="11.9724433"><ele>168.5</ele><time>2026-03-22T13:39:11.983Z</time></trkpt><trkpt lat="44.07136" lon="11.9724583"><ele>168.25</ele><time>2026-03-22T13:39:12.983Z</time></trkpt><trkpt lat="44.0715183" lon="11.9724833"><ele>168.0</ele><time>2026-03-22T13:39:13.983Z</time></trkpt><trkpt lat="44.071685" lon="11.9725267"><ele>167.0</ele><time>2026-03-22T13:39:14.983Z</time></trkpt><trkpt lat="44.0718417" lon="11.972575"><ele>166.0</ele><time>2026-03-22T13:39:15.983Z</time></trkpt><trkpt lat="44.0719967" lon="11.972615"><ele>165.0</ele><time>2026-03-22T13:39:16.983Z</time></trkpt><trkpt lat="44.07215" lon="11.972655"><ele>165.0</ele><time>2026-03-22T13:39:17.983Z</time></trkpt><trkpt lat="44.0722983" lon="11.972705"><ele>165.0</ele><time>2026-03-22T13:39:18.983Z</time></trkpt><trkpt lat="44.0724567" lon="11.97275"><ele>165.0</ele><time>2026-03-22T13:39:19.983Z</time></trkpt><trkpt lat="44.072615" lon="11.9727833"><ele>165.0</ele><time>2026-03-22T13:39:20.983Z</time></trkpt><trkpt lat="44.072765" lon="11.9728183"><ele>165.0</ele><time>2026-03-22T13:39:21.984Z</time></trkpt><trkpt lat="44.0729083" lon="11.9728567"><ele>165.0</ele><time>2026-03-22T13:39:22.983Z</time></trkpt><trkpt lat="44.0730567" lon="11.9728917"><ele>165.0</ele><time>2026-03-22T13:39:23.983Z</time></trkpt><trkpt lat="44.0732033" lon="11.9729317"><ele>166.75</ele><time>2026-03-22T13:39:24.984Z</time></trkpt><trkpt lat="44.073345" lon="11.97297"><ele>168.5</ele><time>2026-03-22T13:39:25.984Z</time></trkpt><trkpt lat="44.0734783" lon="11.9730133"><ele>170.25</ele><time>2026-03-22T13:39:26.983Z</time></trkpt><trkpt lat="44.0736167" lon="11.973055"><ele>172.0</ele><time>2026-03-22T13:39:27.983Z</time></trkpt><trkpt lat="44.0737567" lon="11.9730867"><ele>172.0</ele><time>2026-03-22T13:39:28.984Z</time></trkpt><trkpt lat="44.073885" lon="11.9731283"><ele>172.0</ele><time>2026-03-22T13:39:29.983Z</time></trkpt><trkpt lat="44.0740217" lon="11.97317"><ele>172.0</ele><time>2026-03-22T13:39:30.984Z</time></trkpt><trkpt lat="44.074155" lon="11.97321"><ele>172.0</ele><time>2026-03-22T13:39:31.983Z</time></trkpt><trkpt lat="44.07429" lon="11.9732483"><ele>172.75</ele><time>2026-03-22T13:39:32.984Z</time></trkpt><trkpt lat="44.074425" lon="11.9732833"><ele>173.5</ele><time>2026-03-22T13:39:33.984Z</time></trkpt><trkpt lat="44.07457" lon="11.9733067"><ele>174.25</ele><time>2026-03-22T13:39:34.983Z</time></trkpt><trkpt lat="44.0747017" lon="11.9733167"><ele>175.0</ele><time>2026-03-22T13:39:35.984Z</time></trkpt><trkpt lat="44.0748367" lon="11.9733383"><ele>172.75</ele><time>2026-03-22T13:39:36.983Z</time></trkpt><trkpt lat="44.07497" lon="11.9733767"><ele>170.5</ele><time>2026-03-22T13:39:37.983Z</time></trkpt><trkpt lat="44.0751033" lon="11.9734033"><ele>168.25</ele><time>2026-03-22T13:39:38.983Z</time></trkpt><trkpt lat="44.0752467" lon="11.9734217"><ele>166.0</ele><time>2026-03-22T13:39:39.983Z</time></trkpt><trkpt lat="44.075395" lon="11.9734217"><ele>166.0</ele><time>2026-03-22T13:39:40.984Z</time></trkpt><trkpt lat="44.0755383" lon="11.9734183"><ele>166.0</ele><time>2026-03-22T13:39:41.984Z</time></trkpt><trkpt lat="44.0756817" lon="11.9734017"><ele>166.0</ele><time>2026-03-22T13:39:42.983Z</time></trkpt><trkpt lat="44.0758267" lon="11.9733867"><ele>166.0</ele><time>2026-03-22T13:39:43.983Z</time></trkpt><trkpt lat="44.0759783" lon="11.9733733"><ele>166.66666666666669</ele><time>2026-03-22T13:39:44.983Z</time></trkpt><trkpt lat="44.0761317" lon="11.9733617"><ele>167.33333333333334</ele><time>2026-03-22T13:39:45.984Z</time></trkpt><trkpt lat="44.0762833" lon="11.9733517"><ele>168.0</ele><time>2026-03-22T13:39:46.983Z</time></trkpt><trkpt lat="44.076435" lon="11.97334"><ele>168.0</ele><time>2026-03-22T13:39:47.983Z</time></trkpt><trkpt lat="44.07659" lon="11.9733267"><ele>168.0</ele><time>2026-03-22T13:39:48.984Z</time></trkpt><trkpt lat="44.07675" lon="11.97332"><ele>168.0</ele><time>2026-03-22T13:39:49.983Z</time></trkpt><trkpt lat="44.0769117" lon="11.9733067"><ele>167.66666666666666</ele><time>2026-03-22T13:39:50.983Z</time></trkpt><trkpt lat="44.07707" lon="11.973305"><ele>167.33333333333331</ele><time>2026-03-22T13:39:51.983Z</time></trkpt><trkpt lat="44.0772317" lon="11.9733"><ele>167.0</ele><time>2026-03-22T13:39:52.983Z</time></trkpt><trkpt lat="44.0773883" lon="11.9733"><ele>167.5</ele><time>2026-03-22T13:39:53.983Z</time></trkpt><trkpt lat="44.0775367" lon="11.9733233"><ele>168.0</ele><time>2026-03-22T13:39:54.983Z</time></trkpt><trkpt lat="44.0776817" lon="11.973365"><ele>168.5</ele><time>2026-03-22T13:39:55.983Z</time></trkpt><trkpt lat="44.0778233" lon="11.9734133"><ele>169.0</ele><time>2026-03-22T13:39:56.983Z</time></trkpt><trkpt lat="44.0779633" lon="11.9734733"><ele>167.66666666666669</ele><time>2026-03-22T13:39:57.983Z</time></trkpt><trkpt lat="44.078105" lon="11.9735367"><ele>166.33333333333334</ele><time>2026-03-22T13:39:58.983Z</time></trkpt><trkpt lat="44.0782467" lon="11.9736083"><ele>165.0</ele><time>2026-03-22T13:39:59.983Z</time></trkpt><trkpt lat="44.0783917" lon="11.973685"><ele>165.0</ele><time>2026-03-22T13:40:00.983Z</time></trkpt><trkpt lat="44.07854" lon="11.9737583"><ele>165.0</ele><time>2026-03-22T13:40:01.983Z</time></trkpt><trkpt lat="44.0786833" lon="11.9738333"><ele>165.0</ele><time>2026-03-22T13:40:02.983Z</time></trkpt><trkpt lat="44.0788333" lon="11.97391"><ele>165.0</ele><time>2026-03-22T13:40:03.984Z</time></trkpt><trkpt lat="44.07898" lon="11.9739883"><ele>165.0</ele><time>2026-03-22T13:40:04.983Z</time></trkpt><trkpt lat="44.0791333" lon="11.9740667"><ele>165.0</ele><time>2026-03-22T13:40:05.983Z</time></trkpt><trkpt lat="44.0792767" lon="11.9741517"><ele>163.33333333333334</ele><time>2026-03-22T13:40:06.983Z</time></trkpt><trkpt lat="44.0794233" lon="11.97424"><ele>161.66666666666669</ele><time>2026-03-22T13:40:07.983Z</time></trkpt><trkpt lat="44.079565" lon="11.9743233"><ele>160.0</ele><time>2026-03-22T13:40:08.984Z</time></trkpt><trkpt lat="44.079705" lon="11.9744083"><ele>160.0</ele><time>2026-03-22T13:40:09.983Z</time></trkpt><trkpt lat="44.0798433" lon="11.974495"><ele>160.0</ele><time>2026-03-22T13:40:10.983Z</time></trkpt><trkpt lat="44.0799817" lon="11.9745767"><ele>160.0</ele><time>2026-03-22T13:40:11.984Z</time></trkpt><trkpt lat="44.0801267" lon="11.9746517"><ele>160.66666666666669</ele><time>2026-03-22T13:40:12.984Z</time></trkpt><trkpt lat="44.08029" lon="11.9747433"><ele>161.33333333333334</ele><time>2026-03-22T13:40:13.983Z</time></trkpt><trkpt lat="44.0804733" lon="11.9748333"><ele>162.0</ele><time>2026-03-22T13:40:14.983Z</time></trkpt><trkpt lat="44.0806467" lon="11.9749233"><ele>161.66666666666666</ele><time>2026-03-22T13:40:15.984Z</time></trkpt><trkpt lat="44.0808133" lon="11.975005"><ele>161.33333333333331</ele><time>2026-03-22T13:40:16.983Z</time></trkpt><trkpt lat="44.080975" lon="11.9750883"><ele>161.0</ele><time>2026-03-22T13:40:17.983Z</time></trkpt><trkpt lat="44.08114" lon="11.97517"><ele>161.0</ele><time>2026-03-22T13:40:18.984Z</time></trkpt><trkpt lat="44.0813133" lon="11.9752467"><ele>161.0</ele><time>2026-03-22T13:40:19.983Z</time></trkpt><trkpt lat="44.081475" lon="11.9753283"><ele>161.0</ele><time>2026-03-22T13:40:20.983Z</time></trkpt><trkpt lat="44.0816367" lon="11.975405"><ele>160.0</ele><time>2026-03-22T13:40:21.983Z</time></trkpt><trkpt lat="44.081795" lon="11.9754783"><ele>159.0</ele><time>2026-03-22T13:40:22.983Z</time></trkpt><trkpt lat="44.0819583" lon="11.9755483"><ele>158.0</ele><time>2026-03-22T13:40:23.983Z</time></trkpt><trkpt lat="44.0821267" lon="11.975625"><ele>158.0</ele><time>2026-03-22T13:40:24.984Z</time></trkpt><trkpt lat="44.0822917" lon="11.9757017"><ele>158.0</ele><time>2026-03-22T13:40:25.983Z</time></trkpt><trkpt lat="44.0824517" lon="11.9757633"><ele>158.0</ele><time>2026-03-22T13:40:26.983Z</time></trkpt><trkpt lat="44.0826183" lon="11.9758317"><ele>156.33333333333331</ele><time>2026-03-22T13:40:27.983Z</time></trkpt><trkpt lat="44.082785" lon="11.9758833"><ele>154.66666666666666</ele><time>2026-03-22T13:40:28.983Z</time></trkpt><trkpt lat="44.082965" lon="11.9759283"><ele>153.0</ele><time>2026-03-22T13:40:29.983Z</time></trkpt><trkpt lat="44.083135" lon="11.97597"><ele>152.33333333333334</ele><time>2026-03-22T13:40:30.983Z</time></trkpt><trkpt lat="44.0833117" lon="11.9760017"><ele>151.66666666666669</ele><time>2026-03-22T13:40:31.983Z</time></trkpt><trkpt lat="44.0834933" lon="11.976015"><ele>151.0</ele><time>2026-03-22T13:40:32.983Z</time></trkpt><trkpt lat="44.083675" lon="11.9760083"><ele>151.0</ele><time>2026-03-22T13:40:33.983Z</time></trkpt><trkpt lat="44.0838417" lon="11.97598"><ele>151.0</ele><time>2026-03-22T13:40:34.983Z</time></trkpt><trkpt lat="44.0840083" lon="11.9759467"><ele>151.0</ele><time>2026-03-22T13:40:35.982Z</time></trkpt><trkpt lat="44.084185" lon="11.9758933"><ele>151.66666666666669</ele><time>2026-03-22T13:40:36.983Z</time></trkpt><trkpt lat="44.0843683" lon="11.9758383"><ele>152.33333333333334</ele><time>2026-03-22T13:40:37.983Z</time></trkpt><trkpt lat="44.0845333" lon="11.9757767"><ele>153.0</ele><time>2026-03-22T13:40:38.983Z</time></trkpt><trkpt lat="44.0846983" lon="11.9757183"><ele>153.0</ele><time>2026-03-22T13:40:39.982Z</time></trkpt><trkpt lat="44.0848583" lon="11.975665"><ele>153.0</ele><time>2026-03-22T13:40:40.982Z</time></trkpt><trkpt lat="44.08501" lon="11.9756317"><ele>153.0</ele><time>2026-03-22T13:40:41.982Z</time></trkpt><trkpt lat="44.08516" lon="11.97562"><ele>152.75</ele><time>2026-03-22T13:40:42.982Z</time></trkpt><trkpt lat="44.0853" lon="11.9756483"><ele>152.5</ele><time>2026-03-22T13:40:43.982Z</time></trkpt><trkpt lat="44.0854333" lon="11.9757033"><ele>152.25</ele><time>2026-03-22T13:40:44.982Z</time></trkpt><trkpt lat="44.0855617" lon="11.9757833"><ele>152.0</ele><time>2026-03-22T13:40:45.982Z</time></trkpt><trkpt lat="44.0856633" lon="11.9758883"><ele>152.0</ele><time>2026-03-22T13:40:46.983Z</time></trkpt><trkpt lat="44.0857517" lon="11.976005"><ele>152.0</ele><time>2026-03-22T13:40:47.982Z</time></trkpt><trkpt lat="44.0858117" lon="11.9761333"><ele>152.0</ele><time>2026-03-22T13:40:48.982Z</time></trkpt><trkpt lat="44.0858517" lon="11.976295"><ele>152.0</ele><time>2026-03-22T13:40:49.982Z</time></trkpt><trkpt lat="44.0858817" lon="11.9764967"><ele>151.66666666666666</ele><time>2026-03-22T13:40:50.982Z</time></trkpt><trkpt lat="44.0859117" lon="11.97672"><ele>151.33333333333334</ele><time>2026-03-22T13:40:51.982Z</time></trkpt><trkpt lat="44.085955" lon="11.9769367"><ele>151.0</ele><time>2026-03-22T13:40:52.983Z</time></trkpt><trkpt lat="44.0860083" lon="11.9771333"><ele>151.0</ele><time>2026-03-22T13:40:53.982Z</time></trkpt><trkpt lat="44.0860683" lon="11.9773167"><ele>151.0</ele><time>2026-03-22T13:40:54.983Z</time></trkpt><trkpt lat="44.086145" lon="11.977485"><ele>151.0</ele><time>2026-03-22T13:40:55.982Z</time></trkpt><trkpt lat="44.08625" lon="11.9776267"><ele>151.0</ele><time>2026-03-22T13:40:56.983Z</time></trkpt><trkpt lat="44.086365" lon="11.9777533"><ele>150.66666666666669</ele><time>2026-03-22T13:40:57.983Z</time></trkpt><trkpt lat="44.0865017" lon="11.97786"><ele>150.33333333333334</ele><time>2026-03-22T13:40:58.983Z</time></trkpt><trkpt lat="44.08665" lon="11.9779567"><ele>150.0</ele><time>2026-03-22T13:40:59.982Z</time></trkpt><trkpt lat="44.0868083" lon="11.9780367"><ele>151.33333333333334</ele><time>2026-03-22T13:41:00.982Z</time></trkpt><trkpt lat="44.0869583" lon="11.97815"><ele>152.66666666666669</ele><time>2026-03-22T13:41:01.982Z</time></trkpt><trkpt lat="44.08712" lon="11.97825"><ele>154.0</ele><time>2026-03-22T13:41:02.982Z</time></trkpt><trkpt lat="44.087275" lon="11.9783367"><ele>153.66666666666669</ele><time>2026-03-22T13:41:03.983Z</time></trkpt><trkpt lat="44.0874167" lon="11.9784267"><ele>153.33333333333334</ele><time>2026-03-22T13:41:04.982Z</time></trkpt><trkpt lat="44.0875583" lon="11.9785133"><ele>153.0</ele><time>2026-03-22T13:41:05.982Z</time></trkpt><trkpt lat="44.0876967" lon="11.9786067"><ele>153.0</ele><time>2026-03-22T13:41:06.982Z</time></trkpt><trkpt lat="44.08784" lon="11.9787017"><ele>153.0</ele><time>2026-03-22T13:41:07.983Z</time></trkpt><trkpt lat="44.087995" lon="11.9787983"><ele>153.0</ele><time>2026-03-22T13:41:08.982Z</time></trkpt><trkpt lat="44.0881567" lon="11.9789017"><ele>154.0</ele><time>2026-03-22T13:41:09.982Z</time></trkpt><trkpt lat="44.0883167" lon="11.979005"><ele>155.0</ele><time>2026-03-22T13:41:10.982Z</time></trkpt><trkpt lat="44.08848" lon="11.979105"><ele>156.0</ele><time>2026-03-22T13:41:11.982Z</time></trkpt><trkpt lat="44.088645" lon="11.9791983"><ele>153.33333333333334</ele><time>2026-03-22T13:41:12.982Z</time></trkpt><trkpt lat="44.0888133" lon="11.9792867"><ele>150.66666666666669</ele><time>2026-03-22T13:41:13.982Z</time></trkpt><trkpt lat="44.0889767" lon="11.9793717"><ele>148.0</ele><time>2026-03-22T13:41:14.982Z</time></trkpt><trkpt lat="44.0891333" lon="11.9794517"><ele>148.0</ele><time>2026-03-22T13:41:15.982Z</time></trkpt><trkpt lat="44.0892867" lon="11.9795317"><ele>148.0</ele><time>2026-03-22T13:41:16.983Z</time></trkpt><trkpt lat="44.089445" lon="11.9796217"><ele>148.0</ele><time>2026-03-22T13:41:17.982Z</time></trkpt><trkpt lat="44.0896067" lon="11.97971"><ele>148.0</ele><time>2026-03-22T13:41:18.982Z</time></trkpt><trkpt lat="44.08977" lon="11.9797917"><ele>148.0</ele><time>2026-03-22T13:41:19.982Z</time></trkpt><trkpt lat="44.0899367" lon="11.97987"><ele>148.0</ele><time>2026-03-22T13:41:20.982Z</time></trkpt><trkpt lat="44.090095" lon="11.979945"><ele>146.66666666666669</ele><time>2026-03-22T13:41:21.982Z</time></trkpt><trkpt lat="44.090265" lon="11.9800183"><ele>145.33333333333334</ele><time>2026-03-22T13:41:22.982Z</time></trkpt><trkpt lat="44.09043" lon="11.9800833"><ele>144.0</ele><time>2026-03-22T13:41:23.982Z</time></trkpt><trkpt lat="44.0905933" lon="11.9801467"><ele>144.33333333333334</ele><time>2026-03-22T13:41:24.982Z</time></trkpt><trkpt lat="44.09076" lon="11.98019"><ele>144.66666666666669</ele><time>2026-03-22T13:41:25.982Z</time></trkpt><trkpt lat="44.09093" lon="11.9802033"><ele>145.0</ele><time>2026-03-22T13:41:26.982Z</time></trkpt><trkpt lat="44.091105" lon="11.9801983"><ele>145.0</ele><time>2026-03-22T13:41:27.982Z</time></trkpt><trkpt lat="44.0912767" lon="11.98018"><ele>145.0</ele><time>2026-03-22T13:41:28.982Z</time></trkpt><trkpt lat="44.0914517" lon="11.9801467"><ele>145.0</ele><time>2026-03-22T13:41:29.982Z</time></trkpt><trkpt lat="44.0916217" lon="11.980095"><ele>144.66666666666669</ele><time>2026-03-22T13:41:30.982Z</time></trkpt><trkpt lat="44.09179" lon="11.980045"><ele>144.33333333333334</ele><time>2026-03-22T13:41:31.982Z</time></trkpt><trkpt lat="44.0919567" lon="11.9799983"><ele>144.0</ele><time>2026-03-22T13:41:32.982Z</time></trkpt><trkpt lat="44.0921283" lon="11.9799467"><ele>147.0</ele><time>2026-03-22T13:41:33.982Z</time></trkpt><trkpt lat="44.0922983" lon="11.9798967"><ele>150.0</ele><time>2026-03-22T13:41:34.982Z</time></trkpt><trkpt lat="44.0924733" lon="11.9798433"><ele>153.0</ele><time>2026-03-22T13:41:35.982Z</time></trkpt><trkpt lat="44.0926417" lon="11.97979"><ele>153.0</ele><time>2026-03-22T13:41:36.983Z</time></trkpt><trkpt lat="44.092815" lon="11.9797383"><ele>153.0</ele><time>2026-03-22T13:41:37.982Z</time></trkpt><trkpt lat="44.0929833" lon="11.9796883"><ele>153.0</ele><time>2026-03-22T13:41:38.982Z</time></trkpt><trkpt lat="44.0931567" lon="11.9796367"><ele>151.33333333333334</ele><time>2026-03-22T13:41:39.982Z</time></trkpt><trkpt lat="44.093315" lon="11.9795867"><ele>149.66666666666669</ele><time>2026-03-22T13:41:40.982Z</time></trkpt><trkpt lat="44.09347" lon="11.979545"><ele>148.0</ele><time>2026-03-22T13:41:41.982Z</time></trkpt><trkpt lat="44.0936167" lon="11.979525"><ele>148.0</ele><time>2026-03-22T13:41:42.983Z</time></trkpt><trkpt lat="44.093755" lon="11.9795333"><ele>148.0</ele><time>2026-03-22T13:41:43.982Z</time></trkpt><trkpt lat="44.0939" lon="11.97957"><ele>148.0</ele><time>2026-03-22T13:41:44.982Z</time></trkpt><trkpt lat="44.0940467" lon="11.9796383"><ele>148.0</ele><time>2026-03-22T13:41:45.983Z</time></trkpt><trkpt lat="44.0941983" lon="11.9797433"><ele>148.0</ele><time>2026-03-22T13:41:46.982Z</time></trkpt><trkpt lat="44.09437" lon="11.97986"><ele>148.0</ele><time>2026-03-22T13:41:47.983Z</time></trkpt><trkpt lat="44.094545" lon="11.9799867"><ele>148.0</ele><time>2026-03-22T13:41:48.982Z</time></trkpt><trkpt lat="44.094715" lon="11.9801133"><ele>148.0</ele><time>2026-03-22T13:41:49.982Z</time></trkpt><trkpt lat="44.09488" lon="11.9802417"><ele>148.0</ele><time>2026-03-22T13:41:50.982Z</time></trkpt><trkpt lat="44.09504" lon="11.9803633"><ele>148.0</ele><time>2026-03-22T13:41:51.982Z</time></trkpt><trkpt lat="44.0952017" lon="11.9804683"><ele>148.0</ele><time>2026-03-22T13:41:52.982Z</time></trkpt><trkpt lat="44.0953433" lon="11.980605"><ele>148.0</ele><time>2026-03-22T13:41:53.983Z</time></trkpt><trkpt lat="44.0954883" lon="11.980715"><ele>148.0</ele><time>2026-03-22T13:41:54.982Z</time></trkpt><trkpt lat="44.0956433" lon="11.9808117"><ele>147.33333333333334</ele><time>2026-03-22T13:41:55.982Z</time></trkpt><trkpt lat="44.0957917" lon="11.980925"><ele>146.66666666666666</ele><time>2026-03-22T13:41:56.983Z</time></trkpt><trkpt lat="44.0959433" lon="11.9810233"><ele>146.0</ele><time>2026-03-22T13:41:57.982Z</time></trkpt><trkpt lat="44.0960817" lon="11.981125"><ele>146.0</ele><time>2026-03-22T13:41:58.982Z</time></trkpt><trkpt lat="44.09622" lon="11.9812283"><ele>146.0</ele><time>2026-03-22T13:41:59.982Z</time></trkpt><trkpt lat="44.0963667" lon="11.9813117"><ele>146.0</ele><time>2026-03-22T13:42:00.982Z</time></trkpt><trkpt lat="44.0965117" lon="11.9813833"><ele>145.75</ele><time>2026-03-22T13:42:01.982Z</time></trkpt><trkpt lat="44.0966633" lon="11.98145"><ele>145.5</ele><time>2026-03-22T13:42:02.982Z</time></trkpt><trkpt lat="44.0968033" lon="11.9814967"><ele>145.25</ele><time>2026-03-22T13:42:03.982Z</time></trkpt><trkpt lat="44.0969467" lon="11.9815317"><ele>145.0</ele><time>2026-03-22T13:42:04.982Z</time></trkpt><trkpt lat="44.0970983" lon="11.9815567"><ele>145.0</ele><time>2026-03-22T13:42:05.982Z</time></trkpt><trkpt lat="44.097255" lon="11.9815683"><ele>145.0</ele><time>2026-03-22T13:42:06.983Z</time></trkpt><trkpt lat="44.0974083" lon="11.9815717"><ele>145.0</ele><time>2026-03-22T13:42:07.983Z</time></trkpt><trkpt lat="44.09757" lon="11.98156"><ele>144.33333333333334</ele><time>2026-03-22T13:42:08.982Z</time></trkpt><trkpt lat="44.09773" lon="11.9815417"><ele>143.66666666666666</ele><time>2026-03-22T13:42:09.982Z</time></trkpt><trkpt lat="44.097885" lon="11.98152"><ele>143.0</ele><time>2026-03-22T13:42:10.982Z</time></trkpt><trkpt lat="44.0980367" lon="11.9814933"><ele>143.0</ele><time>2026-03-22T13:42:11.982Z</time></trkpt><trkpt lat="44.0982017" lon="11.9814517"><ele>143.0</ele><time>2026-03-22T13:42:12.982Z</time></trkpt><trkpt lat="44.0983617" lon="11.98143"><ele>143.0</ele><time>2026-03-22T13:42:13.982Z</time></trkpt><trkpt lat="44.0985217" lon="11.9813967"><ele>142.0</ele><time>2026-03-22T13:42:14.982Z</time></trkpt><trkpt lat="44.098685" lon="11.9813667"><ele>142.0</ele><time>2026-03-22T13:42:15.982Z</time></trkpt></trkseg></trk></gpx>